[[{"header":{"parameterUnit":"m.s-1","parameterCategory":1,"la1":30.6,"la2":29.2853,"lo1":-89.7004,"lo2":-87.6739,"dy":0.0162,"dx":0.0183,"nx":112,"ny":82,"refTime":"2023-05-10T00:00:00:Z","depth":0,"parameterNumber":2,"parameterNumberName":"U-component_of_WINDS"},"data":[0.0,0.0,0.0,0.0,0.0,0.0,0.0,0.0,0.0,0.0,0.0,0.0,0.0,0.0,0.0,0.0,0.0,0.0,0.0,0.0,0.0,0.0,0.0,0.0,0.0,0.0,0.0,0.0,0.0,0.0,0.0,0.0,0.0,0.0,0.0,0.0,0.0,0.0,0.0,0.0,0.0,0.0,0.0,0.0,0.0,0.0,0.0,0.0,0.0,0.0,0.0,0.0,0.0,0.0,0.0,0.0,0.0,0.0,0.0,0.0,0.0,0.0,0.0,0.0,0.0,0.0,0.0,0.0,0.0,0.0,0.0,0.0,0.0,0.0,0.0,0.0,0.0,0.0,0.0,0.0,0.0,0.0,0.0,0.0,0.0,0.0,0.0,0.0,0.0,0.0,-4.4347,-4.6298,-4.9375,-5.1336,-5.1391,-4.9804,-4.8808,-4.8799,0.0,0.0,0.0,0.0,0.0,0.0,0.0,0.0,0.0,0.0,0.0,0.0,0.0,0.0,0.0,0.0,0.0,0.0,0.0,0.0,0.0,0.0,0.0,0.0,0.0,0.0,0.0,0.0,0.0,0.0,0.0,0.0,0.0,0.0,0.0,0.0,0.0,0.0,0.0,0.0,0.0,0.0,0.0,0.0,0.0,0.0,0.0,0.0,0.0,0.0,0.0,0.0,0.0,0.0,0.0,0.0,0.0,0.0,0.0,0.0,0.0,0.0,0.0,0.0,0.0,0.0,0.0,0.0,0.0,0.0,0.0,0.0,0.0,0.0,0.0,0.0,0.0,0.0,0.0,0.0,0.0,0.0,0.0,0.0,0.0,0.0,0.0,0.0,0.0,0.0,0.0,0.0,0.0,0.0,0.0,0.0,0.0,0.0,0.0,0.0,0.0,0.0,0.0,0.0,-4.4806,-4.7977,-5.0104,-5.1339,-5.1391,-4.9794,-4.8804,-4.8804,0.0,0.0,0.0,0.0,0.0,0.0,0.0,0.0,0.0,0.0,0.0,0.0,0.0,0.0,0.0,0.0,0.0,0.0,0.0,0.0,0.0,0.0,0.0,0.0,0.0,0.0,0.0,0.0,0.0,0.0,0.0,0.0,0.0,0.0,0.0,0.0,0.0,0.0,0.0,0.0,0.0,0.0,0.0,0.0,0.0,0.0,0.0,0.0,0.0,0.0,0.0,0.0,0.0,0.0,0.0,0.0,0.0,0.0,0.0,0.0,0.0,0.0,0.0,0.0,0.0,0.0,0.0,0.0,0.0,0.0,0.0,0.0,0.0,0.0,0.0,0.0,0.0,0.0,0.0,0.0,0.0,0.0,0.0,0.0,0.0,0.0,0.0,0.0,0.0,0.0,0.0,0.0,0.0,0.0,0.0,0.0,0.0,0.0,0.0,0.0,0.0,0.0,0.0,-4.4482,-4.6391,-4.8419,-5.0217,-5.1269,-5.134,-4.9772,-4.861,-4.8121,-4.5236,0.0,0.0,0.0,0.0,0.0,0.0,0.0,0.0,0.0,0.0,0.0,0.0,0.0,0.0,0.0,0.0,0.0,0.0,0.0,0.0,0.0,0.0,0.0,0.0,0.0,0.0,0.0,0.0,0.0,0.0,0.0,0.0,0.0,0.0,0.0,0.0,0.0,0.0,0.0,0.0,0.0,0.0,0.0,0.0,0.0,0.0,0.0,0.0,0.0,0.0,0.0,0.0,0.0,0.0,0.0,0.0,0.0,0.0,0.0,0.0,0.0,0.0,0.0,0.0,0.0,0.0,0.0,0.0,0.0,0.0,0.0,0.0,0.0,0.0,0.0,0.0,0.0,0.0,0.0,0.0,0.0,0.0,0.0,0.0,0.0,0.0,0.0,0.0,0.0,0.0,0.0,0.0,0.0,0.0,0.0,0.0,0.0,0.0,0.0,0.0,0.0,0.0,-4.6028,-4.795,-4.8801,-5.0271,-5.1234,-5.128,-4.9766,-4.8432,-4.7557,-4.5057,0.0,0.0,0.0,0.0,0.0,0.0,0.0,0.0,0.0,0.0,0.0,0.0,0.0,0.0,0.0,0.0,0.0,0.0,0.0,0.0,0.0,0.0,0.0,0.0,0.0,0.0,0.0,0.0,0.0,0.0,0.0,0.0,0.0,0.0,0.0,0.0,0.0,0.0,0.0,0.0,0.0,0.0,0.0,0.0,0.0,0.0,0.0,0.0,0.0,0.0,0.0,0.0,0.0,0.0,0.0,0.0,0.0,0.0,0.0,0.0,0.0,0.0,0.0,0.0,0.0,0.0,0.0,0.0,0.0,0.0,0.0,0.0,0.0,0.0,0.0,0.0,0.0,0.0,0.0,0.0,0.0,0.0,0.0,0.0,0.0,0.0,0.0,0.0,0.0,0.0,0.0,0.0,0.0,0.0,0.0,0.0,0.0,0.0,0.0,0.0,0.0,0.0,-4.6892,-4.8843,-4.9712,-5.0634,-5.1225,-5.1296,-4.9753,-4.8436,-4.7558,-4.5052,0.0,0.0,0.0,0.0,0.0,0.0,0.0,0.0,0.0,0.0,0.0,0.0,0.0,0.0,0.0,0.0,0.0,0.0,0.0,0.0,0.0,0.0,0.0,0.0,0.0,0.0,0.0,0.0,0.0,0.0,0.0,0.0,0.0,0.0,0.0,0.0,0.0,0.0,0.0,0.0,0.0,0.0,0.0,0.0,0.0,0.0,0.0,0.0,0.0,0.0,0.0,0.0,0.0,0.0,0.0,0.0,0.0,0.0,0.0,0.0,0.0,0.0,0.0,0.0,0.0,0.0,0.0,0.0,0.0,0.0,0.0,0.0,0.0,0.0,0.0,0.0,0.0,0.0,0.0,0.0,0.0,0.0,0.0,0.0,0.0,0.0,0.0,0.0,0.0,0.0,0.0,0.0,0.0,0.0,0.0,0.0,0.0,0.0,0.0,0.0,0.0,0.0,-4.6061,-4.8018,-4.8929,-4.9314,-4.9784,-5.0438,-4.8944,-4.7396,-4.5976,0.0,0.0,0.0,0.0,0.0,0.0,0.0,0.0,0.0,0.0,0.0,0.0,0.0,0.0,0.0,0.0,0.0,0.0,0.0,0.0,0.0,0.0,0.0,0.0,0.0,0.0,0.0,0.0,0.0,0.0,0.0,0.0,0.0,0.0,0.0,0.0,0.0,0.0,0.0,0.0,0.0,0.0,0.0,0.0,0.0,0.0,0.0,0.0,0.0,0.0,0.0,0.0,0.0,0.0,0.0,0.0,0.0,0.0,0.0,0.0,0.0,0.0,0.0,0.0,0.0,0.0,0.0,0.0,0.0,0.0,0.0,0.0,0.0,0.0,0.0,0.0,0.0,0.0,0.0,0.0,0.0,0.0,0.0,0.0,0.0,0.0,0.0,0.0,0.0,0.0,0.0,0.0,0.0,0.0,0.0,0.0,0.0,0.0,0.0,0.0,0.0,0.0,-4.3537,-4.5711,-4.7486,-4.8399,-4.8515,-4.8813,-4.9508,-4.8275,-4.6737,-4.5015,0.0,0.0,0.0,0.0,0.0,0.0,0.0,0.0,0.0,0.0,0.0,0.0,0.0,0.0,0.0,0.0,0.0,0.0,0.0,0.0,0.0,0.0,0.0,0.0,0.0,0.0,0.0,0.0,0.0,0.0,0.0,0.0,0.0,0.0,0.0,0.0,0.0,0.0,0.0,0.0,0.0,0.0,0.0,0.0,0.0,0.0,0.0,0.0,0.0,0.0,0.0,0.0,0.0,0.0,0.0,0.0,0.0,0.0,0.0,0.0,0.0,0.0,0.0,0.0,0.0,0.0,0.0,0.0,0.0,0.0,0.0,0.0,0.0,0.0,0.0,0.0,0.0,0.0,0.0,0.0,0.0,0.0,0.0,0.0,0.0,0.0,0.0,0.0,0.0,0.0,0.0,0.0,0.0,0.0,0.0,0.0,0.0,0.0,0.0,0.0,0.0,0.0,-4.4259,-4.6105,-4.7514,-4.8399,-4.8535,-4.8563,-4.8598,-4.7847,-4.667,0.0,0.0,0.0,0.0,0.0,0.0,0.0,0.0,0.0,0.0,0.0,0.0,0.0,0.0,0.0,0.0,0.0,0.0,0.0,0.0,0.0,0.0,0.0,0.0,0.0,0.0,0.0,0.0,0.0,0.0,0.0,0.0,0.0,0.0,0.0,0.0,0.0,0.0,0.0,0.0,0.0,0.0,0.0,0.0,0.0,0.0,0.0,0.0,0.0,0.0,0.0,0.0,0.0,0.0,0.0,0.0,0.0,0.0,0.0,0.0,0.0,0.0,0.0,0.0,0.0,0.0,0.0,0.0,0.0,0.0,0.0,0.0,0.0,0.0,0.0,0.0,0.0,0.0,0.0,0.0,0.0,0.0,0.0,0.0,0.0,0.0,0.0,0.0,0.0,0.0,0.0,0.0,0.0,0.0,0.0,0.0,0.0,0.0,0.0,0.0,0.0,0.0,0.0,-4.3421,-4.5156,-4.6557,-4.7488,-4.7042,-4.6987,-4.7679,-4.6963,-4.6031,-4.4977,0.0,0.0,0.0,0.0,0.0,0.0,0.0,0.0,0.0,0.0,0.0,0.0,0.0,0.0,0.0,0.0,0.0,0.0,0.0,0.0,0.0,0.0,0.0,0.0,0.0,0.0,0.0,0.0,0.0,0.0,0.0,0.0,0.0,0.0,0.0,0.0,0.0,0.0,0.0,0.0,0.0,0.0,0.0,0.0,0.0,0.0,0.0,0.0,0.0,0.0,0.0,0.0,0.0,0.0,0.0,0.0,0.0,0.0,0.0,0.0,0.0,0.0,0.0,0.0,0.0,0.0,0.0,0.0,0.0,0.0,0.0,0.0,0.0,0.0,0.0,0.0,0.0,0.0,0.0,0.0,0.0,0.0,0.0,0.0,0.0,0.0,0.0,0.0,0.0,0.0,0.0,0.0,0.0,0.0,0.0,0.0,0.0,0.0,0.0,0.0,0.0,0.0,-4.3091,-4.4748,-4.6014,-4.6577,-4.6203,-4.6149,-4.6798,-4.6387,-4.5761,-4.4916,0.0,0.0,0.0,0.0,0.0,0.0,0.0,0.0,0.0,0.0,0.0,0.0,0.0,0.0,0.0,0.0,0.0,0.0,0.0,0.0,0.0,0.0,0.0,0.0,0.0,0.0,0.0,0.0,0.0,0.0,0.0,0.0,0.0,0.0,0.0,0.0,0.0,0.0,0.0,0.0,0.0,0.0,0.0,0.0,0.0,0.0,0.0,0.0,0.0,0.0,0.0,0.0,0.0,0.0,0.0,0.0,0.0,0.0,0.0,0.0,0.0,0.0,0.0,0.0,0.0,0.0,0.0,0.0,0.0,0.0,0.0,0.0,0.0,0.0,0.0,0.0,0.0,0.0,0.0,0.0,0.0,0.0,0.0,0.0,0.0,0.0,0.0,0.0,0.0,0.0,0.0,0.0,0.0,0.0,0.0,0.0,0.0,0.0,0.0,0.0,0.0,0.0,-4.3095,-4.4708,-4.58,-4.5807,-4.5841,-4.5917,-4.5991,-4.6041,-4.576,-4.4962,0.0,0.0,0.0,0.0,0.0,0.0,0.0,0.0,0.0,0.0,0.0,0.0,0.0,0.0,0.0,0.0,0.0,0.0,0.0,0.0,0.0,0.0,0.0,0.0,0.0,0.0,0.0,0.0,0.0,0.0,0.0,0.0,0.0,0.0,0.0,0.0,0.0,0.0,0.0,0.0,0.0,0.0,0.0,0.0,0.0,0.0,0.0,0.0,0.0,0.0,0.0,0.0,0.0,0.0,0.0,0.0,0.0,0.0,0.0,0.0,-3.8321,-3.9007,0.0,0.0,0.0,0.0,0.0,0.0,0.0,0.0,0.0,0.0,0.0,0.0,0.0,0.0,0.0,0.0,0.0,0.0,0.0,0.0,0.0,0.0,0.0,0.0,0.0,0.0,0.0,0.0,0.0,0.0,0.0,0.0,0.0,0.0,0.0,0.0,0.0,0.0,0.0,0.0,-4.3095,-4.4725,-4.5791,-4.58,-4.5821,-4.5854,-4.5917,-4.5972,-4.5933,-4.577,-4.4982,0.0,0.0,0.0,0.0,0.0,0.0,0.0,0.0,0.0,0.0,0.0,0.0,0.0,0.0,0.0,0.0,0.0,0.0,0.0,0.0,0.0,0.0,0.0,0.0,0.0,0.0,0.0,0.0,0.0,0.0,0.0,0.0,0.0,0.0,0.0,0.0,0.0,0.0,0.0,0.0,0.0,0.0,0.0,0.0,0.0,0.0,0.0,0.0,0.0,0.0,0.0,0.0,0.0,0.0,0.0,0.0,0.0,0.0,0.0,-3.9363,-3.9163,0.0,0.0,0.0,0.0,0.0,0.0,0.0,0.0,0.0,0.0,0.0,0.0,0.0,0.0,0.0,0.0,0.0,0.0,0.0,0.0,0.0,0.0,0.0,0.0,0.0,0.0,0.0,0.0,0.0,0.0,0.0,0.0,0.0,0.0,0.0,0.0,0.0,0.0,0.0,0.0,-4.3144,-4.473,-4.5781,-4.5765,-4.5771,-4.5801,-4.5861,-4.5905,-4.5941,-4.5958,-4.5191,0.0,0.0,0.0,0.0,0.0,0.0,0.0,0.0,0.0,0.0,0.0,0.0,0.0,0.0,0.0,0.0,0.0,0.0,0.0,0.0,0.0,0.0,0.0,0.0,0.0,0.0,0.0,0.0,0.0,0.0,0.0,0.0,0.0,0.0,0.0,0.0,0.0,0.0,0.0,0.0,0.0,0.0,0.0,0.0,0.0,0.0,0.0,0.0,0.0,0.0,0.0,0.0,0.0,-4.1403,-4.1582,-4.1736,-4.2037,-4.18,-4.1062,-4.0039,-3.8865,-3.7767,-3.9048,0.0,0.0,0.0,0.0,0.0,0.0,0.0,0.0,0.0,0.0,0.0,0.0,0.0,0.0,0.0,0.0,0.0,0.0,0.0,0.0,0.0,0.0,-3.8941,-3.9208,-4.0502,-4.0963,-3.836,0.0,0.0,0.0,0.0,0.0,0.0,0.0,0.0,0.0,0.0,0.0,-4.3381,-4.4789,-4.5754,-4.5701,-4.5731,-4.5778,-4.5786,-4.5848,-4.5886,-4.5886,-4.5277,-4.4771,0.0,0.0,0.0,0.0,0.0,0.0,0.0,0.0,0.0,0.0,0.0,0.0,0.0,0.0,0.0,0.0,0.0,0.0,0.0,0.0,0.0,0.0,0.0,0.0,0.0,0.0,0.0,0.0,0.0,0.0,0.0,0.0,-3.8275,-3.9717,0.0,0.0,0.0,0.0,0.0,0.0,0.0,0.0,0.0,0.0,0.0,0.0,0.0,-3.9714,-3.9714,-3.9714,-4.0175,-4.1117,-4.114,-4.1261,-4.1471,-4.1626,-4.14,-4.0849,-4.0793,0.0,-3.9932,-3.9586,0.0,0.0,0.0,0.0,0.0,0.0,0.0,0.0,0.0,0.0,0.0,0.0,0.0,0.0,0.0,0.0,0.0,0.0,0.0,0.0,0.0,0.0,-3.7478,-3.8808,-3.9964,-4.067,-4.0235,-3.9708,-3.9154,-3.8639,-3.7991,-3.7823,0.0,0.0,0.0,0.0,0.0,0.0,-4.4064,-4.5068,-4.5701,-4.5631,-4.5673,-4.5703,-4.5715,-4.5761,-4.581,-4.581,-4.5776,-4.506,-4.3543,-4.328,0.0,0.0,0.0,0.0,0.0,0.0,0.0,0.0,0.0,0.0,0.0,0.0,0.0,0.0,0.0,0.0,0.0,0.0,0.0,0.0,0.0,0.0,0.0,0.0,0.0,0.0,0.0,0.0,0.0,-3.9,-3.9562,-4.0781,-4.0917,-4.1001,0.0,0.0,0.0,0.0,0.0,0.0,0.0,0.0,0.0,-4.0597,-4.0637,-4.0497,-4.0086,-4.0134,-4.0401,-4.0881,-4.1023,-4.1169,-4.1295,-4.1498,-4.156,-4.1456,-4.1135,-4.0989,-4.0904,-4.0167,-3.9931,-4.0082,0.0,0.0,0.0,0.0,-3.8619,-3.8195,-3.7399,-3.7075,-3.6992,-3.6532,0.0,0.0,0.0,0.0,0.0,0.0,0.0,-3.6272,-3.6599,-3.7681,-3.8888,-3.955,-4.0495,-4.1106,-4.0699,-4.075,-4.0841,-4.0644,-4.0413,-4.0401,-4.0886,-4.1074,0.0,0.0,0.0,-4.3874,-4.4141,-4.503,-4.5622,-4.5559,-4.564,-4.5709,-4.5706,-4.5727,-4.5731,-4.5731,-4.5344,-4.4759,-4.4005,-4.3137,-4.2153,0.0,0.0,0.0,0.0,0.0,0.0,0.0,0.0,0.0,0.0,0.0,0.0,0.0,0.0,0.0,0.0,0.0,0.0,0.0,0.0,0.0,0.0,0.0,0.0,0.0,0.0,0.0,0.0,-3.9876,-4.0172,-4.1391,-4.1527,-4.1705,0.0,0.0,0.0,0.0,0.0,0.0,-4.1362,-4.1687,-4.1697,-4.1307,-4.1444,-4.1162,-4.0478,-4.0583,-4.0673,-4.0697,-4.0953,-4.1082,-4.1209,-4.1408,-4.1688,-4.197,-4.1469,-4.1303,-4.1312,-4.0325,-3.986,-3.9744,-3.9562,-3.9682,-3.9869,-3.9216,-3.8988,-3.8878,-3.8143,-3.7849,-3.7713,-3.711,-3.6952,-3.6849,-3.6053,0.0,0.0,0.0,0.0,-3.6874,-3.6874,-3.8206,-3.9612,-3.9845,-4.0647,-4.1222,-4.0677,-4.1276,-4.1876,-4.1801,-4.2083,-4.2354,-4.2424,-4.2558,0.0,-4.2993,-4.3656,-4.4183,-4.4345,-4.5045,-4.5523,-4.5467,-4.555,-4.5535,-4.5342,-4.5335,-4.5252,-4.504,-4.4484,-4.4068,-4.3836,-4.2653,-4.1937,-4.177,0.0,0.0,0.0,0.0,0.0,0.0,0.0,0.0,0.0,0.0,0.0,0.0,0.0,0.0,0.0,0.0,0.0,0.0,0.0,0.0,0.0,0.0,0.0,0.0,0.0,0.0,0.0,0.0,0.0,-4.163,-4.1881,0.0,0.0,0.0,0.0,-4.0876,-4.1446,-4.1848,-4.1881,-4.2645,-4.2476,-4.1062,-4.1152,-4.0926,-4.0305,-4.0436,-4.0558,-4.0697,-4.084,-4.0995,-4.1209,-4.1209,-4.1515,-4.2005,-4.197,-4.1698,-4.1196,-3.9768,-3.9662,-4.0383,-3.9762,-3.996,-4.0594,-3.9962,-3.9735,-3.9642,-3.8896,-3.8634,-3.8634,-3.8597,-3.8579,-3.8447,-3.7695,-3.7996,0.0,0.0,-3.7581,-3.7636,-3.7636,-3.7728,-3.802,-3.8868,-3.9769,-4.0481,-4.0496,-4.1249,-4.1708,-4.1086,-4.1594,-4.2153,-4.2295,0.0,-4.2689,-4.3529,-4.3792,-4.4189,-4.4954,-4.5258,-4.5379,-4.5317,-4.537,-4.5112,-4.4336,-4.4331,-4.4045,-4.3283,-4.3258,-4.2891,-4.208,-4.2015,-4.1634,-4.0884,-4.0911,0.0,0.0,0.0,0.0,0.0,0.0,0.0,0.0,0.0,0.0,0.0,0.0,0.0,0.0,0.0,0.0,0.0,0.0,0.0,0.0,0.0,0.0,0.0,0.0,0.0,0.0,0.0,0.0,-4.2278,-4.2562,0.0,-4.2892,-4.2657,-4.2367,-4.21,-4.1755,-4.1566,-4.1566,-4.2083,-4.211,-4.159,-4.1326,-4.1111,-4.0892,-4.0526,-4.0436,-4.0558,-4.0721,-4.0918,-4.1209,-4.1209,-4.1475,-4.2005,-4.2005,-4.2035,-4.2002,-4.0947,-4.0182,-3.9661,-3.9547,-3.9361,-3.9141,-3.9013,-3.8967,-3.8946,-3.8768,-3.8707,-3.8707,-3.8707,-3.834,-3.7878,-3.7614,-3.7371,-3.7151,-3.6871,-3.7161,-3.7566,-3.7566,-3.7996,-3.8516,-3.8851,-3.9234,-3.9523,-3.963,-4.0383,-4.095,-4.0802,-4.1493,-4.2134,-4.2153,-4.2662,-4.3152,-4.351,-4.4051,-4.4542,-4.4917,-4.5114,-4.5004,-4.4461,-4.4457,-4.4173,-4.3369,-4.3348,-4.3305,-4.3052,-4.2563,-4.2171,-4.1844,-4.1359,-4.0739,-3.9989,-4.0048,-3.9691,0.0,0.0,0.0,0.0,0.0,0.0,0.0,0.0,0.0,0.0,0.0,0.0,0.0,0.0,0.0,0.0,0.0,0.0,0.0,0.0,0.0,0.0,0.0,0.0,0.0,-4.0943,-4.1175,-4.2659,-4.2783,-4.2965,-4.3448,-4.2978,-4.2638,-4.2638,-4.2059,-4.1819,-4.2051,-4.2444,-4.254,-4.2289,-4.2058,-4.1711,-4.1204,-4.0841,-4.0618,-4.051,-4.0648,-4.0871,-4.1209,-4.1209,-4.1475,-4.1923,-4.1984,-4.2136,-4.2328,-4.189,-4.1005,-3.9896,-3.9568,-3.9127,-3.8687,-3.8556,-3.851,-3.8525,-3.8658,-3.8707,-3.8707,-3.8707,-3.834,-3.7915,-3.7915,-3.7533,-3.711,-3.711,-3.7477,-3.7915,-3.7915,-3.833,-3.8777,-3.8851,-3.8925,-3.8993,-3.912,-3.9616,-4.0015,-3.9829,-4.0995,-4.2012,-4.2025,-4.2495,-4.2884,-4.2949,-4.3691,-4.4158,-4.3989,-4.4343,-4.4296,-4.3477,-4.3465,-4.3203,-4.2412,-4.2393,-4.2325,-4.2073,-4.1607,-4.1333,-4.1368,-4.0877,-4.0235,-3.947,-3.9561,-3.9208,-3.8405,0.0,0.0,0.0,0.0,0.0,0.0,0.0,0.0,0.0,0.0,0.0,0.0,0.0,0.0,0.0,0.0,0.0,0.0,0.0,0.0,0.0,0.0,0.0,-4.0609,-4.0736,-4.1257,-4.2704,-4.2553,-4.2321,-4.2321,-4.2321,-4.2321,-4.2321,-4.2321,-4.2634,-4.3369,-4.3835,-4.3762,-4.3071,-4.3271,-4.2699,-4.1288,-4.135,-4.1095,-4.0544,-4.0624,-4.0871,-4.1209,-4.1209,-4.1431,-4.1819,-4.1945,-4.2034,-4.2124,-4.2384,-4.206,-4.1297,-3.9914,-3.9439,-3.9432,-3.8793,-3.8528,-3.8525,-3.8658,-3.8692,-3.8692,-3.8692,-3.8692,-3.8692,-3.8692,-3.8707,-3.8707,-3.8707,-3.8707,-3.8707,-3.8707,-3.8707,-3.8723,-3.8777,-3.8851,-3.8925,-3.8979,-3.9106,-3.8955,-3.8154,-4.0005,-4.1679,-4.1729,-4.1707,-4.1712,-4.1766,-4.2583,0.0,-4.2127,-4.2925,-4.3246,-4.2367,-4.2392,-4.2153,-4.1345,-4.1341,-4.1017,-4.0186,-4.0258,-4.0356,-4.0425,-4.0485,-4.0142,-3.9348,-3.9414,-3.9096,-3.8323,0.0,0.0,0.0,0.0,0.0,0.0,0.0,0.0,0.0,0.0,0.0,0.0,0.0,0.0,0.0,0.0,0.0,0.0,0.0,0.0,0.0,-4.0893,-4.1181,-4.1123,-4.1274,-4.1511,-4.1916,-4.2638,-4.3092,-4.3092,-4.3092,-4.3092,-4.3092,-4.2955,-4.3037,-4.3386,-4.3611,-4.3764,-4.3796,-4.3429,-4.3097,-4.2784,-4.1771,-4.1282,-4.1288,-4.0791,-4.0782,-4.1209,-4.1209,-4.1431,-4.1801,-4.1841,-4.1952,-4.2103,-4.2184,-4.2221,-4.2115,-4.1341,-4.0435,-3.9553,-3.9431,-3.9072,-3.8643,-3.8575,-3.8559,-3.8559,-3.8496,-3.8512,-3.8559,-3.8559,-3.8624,-3.8707,-3.8707,-3.8707,-3.8707,-3.8707,-3.8707,-3.8723,-3.8777,-3.8822,-3.8851,-3.8906,-3.895,-3.8766,-3.7988,-3.8382,-3.8716,-3.834,-3.8706,-3.9059,-3.9119,-3.9866,-4.0373,-4.0303,-4.0528,-4.0431,-3.9656,-3.9615,-3.9329,-3.856,-3.8555,-3.8547,-3.8391,-3.8461,-3.8539,-3.8599,-3.8677,-3.836,-3.761,-3.6991,-3.6614,0.0,0.0,0.0,0.0,0.0,0.0,0.0,0.0,0.0,0.0,0.0,0.0,0.0,0.0,0.0,0.0,0.0,0.0,0.0,0.0,0.0,0.0,-4.1151,-4.1438,-4.1422,-4.1612,-4.1723,-4.1723,-4.2515,-4.3068,-4.3068,-4.3129,-4.3207,-4.3207,-4.3068,-4.3068,-4.319,-4.3449,-4.3687,-4.3894,-4.3736,-4.3547,-4.3327,-4.2503,-4.1961,-4.1587,-4.1169,-4.1037,-4.1175,-4.1175,-4.1335,-4.1626,-4.1692,-4.1823,-4.1995,-4.2061,-4.2225,-4.2356,0.0,0.0,0.0,0.0,-3.8914,-3.8562,-3.8496,-3.8462,-3.8462,-3.8415,-3.843,-3.8462,-3.8494,-3.8559,-3.8624,-3.8673,-3.8707,-3.8707,-3.8707,-3.8658,-3.8624,-3.8667,-3.8664,-3.8664,-3.871,-3.8792,-3.8472,-3.7349,-3.7086,0.0,-3.5768,-3.6586,-3.7392,-3.7452,-3.8173,-3.8635,-3.844,-3.8777,-3.8713,-3.7939,-3.7921,-3.778,-3.7354,-3.7399,0.0,0.0,0.0,-3.7721,-3.7806,-3.7552,0.0,0.0,0.0,-3.6128,-3.6157,-3.6568,0.0,0.0,-3.5496,-3.4825,0.0,0.0,0.0,0.0,0.0,0.0,0.0,0.0,0.0,0.0,0.0,0.0,0.0,0.0,0.0,0.0,-4.1309,-4.107,-4.1542,-4.1752,-4.1866,-4.1898,-4.2302,-4.2602,-4.2602,-4.2759,-4.2868,-4.2899,-4.2868,-4.2868,-4.2899,-4.3328,0.0,0.0,0.0,-4.3979,-4.3323,-4.336,-4.2816,-4.1682,-4.1613,-4.1393,-4.107,-4.107,-4.1192,-4.1363,-4.1515,-4.1648,-4.178,-4.1995,-4.2163,-4.2218,-4.1543,-4.096,-4.0329,-3.8902,-3.8401,-3.8401,-3.8401,0.0,0.0,-3.8385,-3.8366,-3.8399,-3.8462,-3.8478,-3.851,-3.8643,-3.8676,-3.8676,-3.8676,-3.8593,-3.8494,-3.8494,-3.8478,-3.8478,-3.8478,-3.8489,-3.8041,-3.6465,-3.608,-3.553,-3.4009,-3.5096,-3.6209,-3.6276,-3.6949,-3.7233,-3.6571,-3.7219,-3.746,-3.678,-3.681,0.0,-3.69,-3.7006,-3.7091,-3.7115,-3.7185,-3.7271,-3.7406,-3.6774,-3.6435,-3.6449,-3.6572,-3.662,-3.664,-3.75,-3.7141,-3.5664,-3.5029,-3.4633,0.0,0.0,0.0,0.0,0.0,0.0,0.0,0.0,0.0,0.0,0.0,0.0,0.0,0.0,0.0,-4.1376,-4.1412,-4.1479,-4.1606,-4.1621,-4.1703,-4.1866,-4.2238,-4.2476,-4.2602,-4.2634,-4.2728,-4.2899,-4.2728,-4.2728,-4.2899,-4.3099,-4.3325,-4.3598,-4.3852,-4.4001,-4.4091,-4.3502,-4.2926,-4.232,-4.1707,0.0,-4.0935,-4.0935,-4.1059,-4.1255,-4.1363,-4.1515,-4.1648,-4.1801,-4.1973,-4.2024,-4.1008,-4.051,-4.0239,-3.8855,-3.8322,-3.8322,-3.8322,-3.8322,-3.8305,-3.8257,-3.829,-3.8322,-3.8322,-3.8368,0.0,-3.8465,-3.8465,-3.8465,-3.8465,-3.843,-3.8415,-3.8415,-3.8368,-3.8338,-3.8338,-3.7814,-3.7037,-3.6056,-3.5348,-3.4603,-3.3644,-3.3959,-3.4338,-3.4333,-3.4529,-3.4631,-3.4542,-3.4748,-3.4865,-3.4831,-3.4848,-3.4906,-3.4997,-3.5093,-3.5197,-3.5291,-3.5429,-3.5513,-3.5604,-3.5475,-3.5447,-3.5546,-3.558,-3.5626,-3.5671,-3.5912,-3.5881,-3.5623,-3.5577,-3.4847,0.0,0.0,0.0,0.0,0.0,0.0,0.0,0.0,0.0,0.0,0.0,-3.9564,-4.0056,0.0,-4.0987,-4.1256,-4.139,-4.1489,-4.1588,-4.1904,-4.2033,-4.1783,-4.198,-4.2174,-4.2238,-4.2381,-4.2539,-4.2634,-4.2634,-4.2634,-4.2728,-4.2914,-4.3099,-4.3325,-4.3598,-4.3881,-4.4097,-4.3871,-4.3468,-4.2942,-4.2258,-4.169,-4.1246,-4.0941,-4.0894,-4.1065,-4.1175,-4.1335,-4.1515,-4.1714,-4.1931,-4.1964,-4.0615,-4.016,-4.0093,-3.8633,-3.8122,-3.8138,-3.8138,-3.8189,-3.8224,-3.8122,-3.8174,-3.8241,-3.8204,-3.8271,-3.8352,-3.8382,-3.8399,-3.8399,-3.8399,-3.8385,-3.832,-3.8269,-3.8204,-3.8139,-3.8106,-3.744,-3.6612,-3.58,-3.4988,-3.4194,-3.34,-3.3357,-3.3502,-3.3629,-3.3712,-3.378,-3.3829,-3.3908,-3.3985,-3.4086,-3.4136,-3.4185,-3.4293,-3.4409,-3.455,-3.4687,-3.479,-3.4879,-3.4946,-3.4982,-3.5037,-3.5108,-3.48,-3.4672,-3.4691,-3.4805,-3.486,-3.4898,-3.546,-3.5057,0.0,0.0,0.0,0.0,0.0,0.0,0.0,-3.8794,-3.9238,-3.8868,-3.9249,-3.9829,-4.0301,-4.047,-4.0662,-4.1122,-4.1223,-4.1323,-4.1522,-4.2061,-4.2219,-4.1667,-4.1878,-4.2024,-4.1914,-4.2174,-4.2349,-4.2413,-4.2539,-4.2602,-4.2602,-4.2806,-4.2945,-4.3052,-4.3372,-4.3658,-4.3839,-4.4097,-4.394,-4.3365,-4.2864,-4.2251,-4.1545,-4.1072,-4.0858,-4.0864,-4.1029,-4.1238,-4.1426,-4.1692,-4.1888,-4.1898,-4.0354,-3.987,-3.9848,-3.8403,-3.7898,-3.7949,-3.7966,-3.8054,-3.8123,-3.802,-3.8054,-3.8123,-3.8087,-3.8138,-3.8223,-3.8287,-3.8285,-3.8285,-3.8285,-3.8272,-3.8207,-3.8086,-3.8001,-3.7879,-3.7684,-3.6984,-3.6159,-3.537,-3.458,-3.3809,-3.3163,-3.3055,-3.3132,-3.339,-3.3491,-3.3563,-3.3619,-3.3671,-3.3753,-3.382,-3.3881,-3.3972,-3.4074,-3.4085,-3.415,-3.4303,-3.4218,-3.4206,-3.4268,-3.4348,-3.4387,-3.4415,-3.3949,-3.3707,-3.3731,-3.3853,-3.3922,-3.3955,-3.489,-3.5111,-3.6702,-3.6755,-3.6954,-3.7662,-3.8347,-3.8841,0.0,-3.8353,-3.8218,-3.8918,-3.8799,-3.8868,-3.9874,-4.0296,-4.0558,-4.0833,-4.1018,-4.1153,-4.1323,-4.1386,-4.1468,-4.1604,-4.2206,-4.2432,-4.1929,-4.2029,-4.2222,-4.2381,-4.2539,-4.2602,-4.2602,-4.2806,-4.2899,-4.293,-4.3267,-4.3509,-4.3628,-4.3852,-4.3717,-4.3216,-4.316,-4.2503,-4.1418,-4.1359,-4.1092,-4.0745,-4.1065,-4.1272,-4.1426,-4.1692,-4.1801,-4.1686,-4.0215,-3.9713,-3.9672,-3.8258,-3.7721,-3.7739,-3.7863,-3.7916,-3.7916,-3.7916,-3.7916,-3.7934,-3.7934,-3.7934,-3.7951,-3.7951,-3.7969,-3.7969,-3.7969,-3.7951,-3.7934,-3.7934,-3.7828,-3.756,-3.6879,-3.6022,-3.5149,-3.4399,-3.3612,-3.3039,-3.295,-3.2932,-3.2961,-3.3117,-3.3259,-3.3337,-3.3337,-3.3393,-3.3466,-3.3534,-3.3605,-3.3739,-3.3985,-3.3389,-3.3061,-3.3265,-3.266,-3.2333,-3.2406,-3.2466,-3.2572,-3.2689,-3.2612,-3.2642,-3.2756,-3.2829,-3.2896,-3.2985,-3.3923,-3.4793,-3.6626,-3.7047,-3.7711,-3.7959,-3.8814,-3.9574,-3.9574,-3.9153,-3.8884,-3.9275,-3.9039,-3.8994,-3.9544,-3.9874,-4.0176,-4.0558,-4.0712,-4.0882,-4.1256,-4.1651,-4.1911,-4.1799,-4.2403,-4.2546,-4.1815,-4.1882,-4.2012,-4.2109,-4.2349,-4.2476,-4.2476,-4.2634,-4.2775,-4.2899,-4.3099,-4.3312,-4.3479,-4.3763,-4.3789,-4.3588,-4.3323,-4.2715,-4.1803,-4.1503,-4.1136,-4.0721,-4.0942,-4.1134,-4.1295,-4.1493,-4.1648,-4.166,-4.0132,-3.9593,-3.9498,-3.8054,-3.7595,-3.7703,-3.7757,-3.7828,-3.7881,-3.781,-3.7828,-3.7881,-3.781,-3.7828,-3.7899,-3.7899,-3.7899,-3.7899,-3.7899,-3.7899,-3.7881,-3.781,-3.7416,-3.6951,-3.6559,-3.547,-3.4455,-3.4169,-3.3437,-3.2884,-3.2854,-3.2854,-3.282,-3.2818,-3.2995,-3.3122,-3.3122,-3.3152,-3.318,-3.3271,-3.339,-3.3381,-3.3088,-3.2753,-3.247,-3.2233,-3.1961,-3.1864,-3.1989,-3.2084,-3.2174,-3.2223,-3.1843,-3.1695,-3.1789,-3.1843,-3.1928,-3.2008,-3.2947,-3.3904,-3.7259,-3.7651,-3.8289,-3.8638,-3.9421,-4.0104,-4.0104,-3.9858,-3.9647,-3.951,-3.9326,-3.9254,-3.9382,-3.9517,-3.9803,-4.0296,-4.0401,-4.0593,-4.1021,-4.1609,-4.1969,-4.1749,-4.2213,-4.2324,-4.175,-4.1915,-4.2028,-4.2028,-4.2302,-4.2445,-4.2445,-4.2539,-4.2665,-4.2806,-4.2976,-4.3113,-4.3312,-4.3598,-4.3809,-4.3898,-4.355,-4.2948,-4.2072,-4.14,-4.0923,-4.0631,-4.084,-4.1012,-4.118,-4.1295,-4.1475,-4.1552,-3.9986,-3.9453,-3.9398,-3.7865,-3.7449,-3.7613,-3.7613,-3.7703,-3.7793,-3.7703,-3.7703,-3.7739,-3.7649,-3.7685,-3.7757,-3.7757,-3.7793,-3.7811,-3.7757,-3.7757,-3.7685,-3.7345,-3.6845,-3.6327,-3.5811,-3.4831,-3.3959,-3.3797,-3.3246,-3.2804,-3.2739,-3.2739,-3.2706,-3.2622,-3.2753,-3.29,-3.29,-3.29,-3.2932,-3.3024,-3.3165,-3.3008,-3.2379,-3.2101,-3.1749,-3.1188,-3.1013,-3.0994,-3.1147,-3.1277,-3.134,-3.1389,-3.0951,-3.0739,-3.0801,-3.0864,-3.0944,-3.1012,-3.1974,-3.2786,-3.8797,-3.8667,-3.8507,-3.9726,-4.006,-4.0104,-4.0104,-4.0075,-3.9979,-3.956,-3.9504,-3.9488,-3.942,-3.9409,-3.9532,-3.994,-4.0172,-4.0366,-4.0489,-4.0879,-4.1185,-4.129,-4.1505,-4.1719,-4.1866,-4.2206,-4.2381,-4.2381,-4.2508,-4.2602,-4.2602,-4.2602,-4.2602,-4.2602,-4.2806,-4.2976,-4.3113,-4.3312,-4.3568,-4.3898,-4.3881,-4.3253,-4.2055,-4.0875,-4.0396,-4.0534,-4.0776,-4.0982,-4.1117,-4.118,-4.1295,-4.1246,-3.9713,-3.9266,-3.9315,-3.769,-3.7242,-3.7411,-3.7411,-3.7503,-3.7613,-3.7595,-3.7522,-3.7411,-3.7411,-3.7411,-3.7429,-3.7429,-3.7503,-3.7577,-3.7448,-3.7429,-3.7215,-3.6342,-3.6129,-3.5704,-3.4285,-3.3878,-3.3613,-3.2968,-3.2707,-3.2622,-3.2606,-3.2606,-3.2588,-3.2606,-3.2606,-3.2622,-3.2622,-3.2622,-3.2688,-3.2884,-3.2916,-3.2706,-3.2159,-3.1394,-3.0695,-3.0099,-2.9375,-2.9065,-2.9274,-2.9344,-2.9458,-2.9577,-2.9701,-2.9738,-2.9755,-2.9876,-2.9934,-2.9962,-3.0967,-3.1489,-3.961,-3.9949,-4.0441,-4.0879,-4.1211,-4.1424,-4.1424,-4.1076,-4.0622,-4.0032,-3.9979,-3.9997,-3.9705,-3.9788,-4.0009,-4.0396,-4.0248,-4.0191,-4.0455,-4.073,-4.1037,-4.1456,-4.1555,-4.172,-4.1996,-4.2045,-4.2109,-4.2174,-4.2238,-4.227,-4.227,-4.2381,-4.2476,-4.2476,-4.2744,-4.2945,-4.3113,-4.3312,-4.3509,-4.3687,-4.2841,-4.2306,-4.2055,-4.0678,-4.0155,-4.0362,-4.0558,-4.0752,-4.0982,-4.1099,-4.1198,-4.1115,-3.9621,-3.9118,-3.9049,-3.7489,-3.7031,-3.7204,-3.7298,-3.7372,-3.741,-3.741,-3.7372,-3.7334,-3.7334,-3.7334,-3.7334,-3.7334,-3.7372,-3.7391,-3.7353,-3.7334,-3.7122,-3.6306,-3.5739,-3.5084,-3.4056,-3.3401,-3.2941,-3.2709,-3.2639,-3.2573,-3.249,-3.2489,-3.2489,-3.2335,-3.2404,-3.249,-3.2523,-3.249,-3.2507,-3.2623,-3.2672,-3.2238,-3.1076,-3.076,-3.0144,-2.9024,-2.8833,-2.8822,-2.8929,-2.9127,-2.9246,-2.9307,-2.9423,-2.9531,-2.9636,-2.9719,-2.9806,-2.9916,-3.0246,-3.0765,-4.0477,-4.0964,-4.1536,-4.173,-4.2003,-4.2117,-4.1787,-4.141,-4.0844,-3.9958,-4.0061,-4.0188,-3.9879,-3.9927,-4.0114,-4.0544,-4.0206,-3.9996,-4.0296,-4.0539,-4.096,-4.1586,-4.1801,-4.2078,-4.2631,-4.244,-4.2251,-4.2206,-4.2222,-4.2222,-4.2222,-4.227,-4.2318,-4.2413,-4.2619,-4.2821,-4.3037,-4.3204,-4.3402,-4.3582,-4.2314,-4.1783,-4.1909,-4.0522,-4.0011,-4.0238,-4.0362,-4.0583,-4.084,-4.0912,-4.0856,-4.0619,-3.9407,-3.8812,-3.8478,-3.7239,-3.6851,-3.7029,-3.7164,-3.7259,-3.7297,-3.7297,-3.7278,-3.7222,-3.7222,-3.7222,-3.7222,-3.7222,-3.7259,-3.7278,-3.7239,-3.7008,-3.6547,-3.5715,-3.4939,-3.4146,-3.3389,-3.2807,-3.2421,-3.2455,-3.2438,-3.2387,-3.2301,-3.2336,-3.2301,-3.2179,-3.2214,-3.2249,-3.2353,-3.2319,-3.2319,-3.2405,-3.2439,-3.1888,-3.0444,-3.0363,-2.9796,-2.838,-2.8471,-2.86,-2.865,-2.8917,-2.9067,-2.9089,-2.9246,-2.9382,-2.9482,-2.9579,-2.9692,-2.9823,-2.9857,-3.0222,-4.1347,-4.1715,-4.1882,-4.2268,-4.2389,-4.2132,-4.1273,-4.1087,-4.0739,-3.9489,-3.9751,-4.0115,-3.9885,-3.9873,-4.0053,-4.0427,-4.0085,-3.9813,-4.0021,-4.0312,-4.082,-4.1693,-4.215,-4.2724,-4.3589,-4.3226,-4.2794,-4.2446,-4.2397,-4.2381,-4.2381,-4.2174,-4.2174,-4.2381,-4.2381,-4.2571,-4.2899,-4.3021,-4.3281,-4.3582,-4.2285,-4.1688,-4.1666,-4.0433,-3.9961,-4.0113,-4.0238,-4.0453,-4.0673,-4.0697,-4.0352,-3.9823,-3.9062,-3.8369,-3.7715,-3.6963,-3.6725,-3.6811,-3.7011,-3.7164,-3.7278,-3.7278,-3.7203,-3.7089,-3.7089,-3.7089,-3.7089,-3.7089,-3.7184,-3.7239,-3.7108,-3.645,-3.5564,-3.4697,-3.3835,-3.3032,-3.2336,-3.2144,-3.2108,-3.2179,-3.2144,-3.209,-3.209,-3.209,-3.2073,-3.2073,-3.1966,-3.193,-3.2073,-3.209,-3.2108,-3.2179,-3.2162,-3.1601,-3.029,-3.0147,-2.9554,-2.8159,-2.8205,-2.8313,-2.8367,-2.8637,-2.881,-2.8863,-2.9078,-2.9214,-2.9283,-2.9414,-2.956,-2.9683,-2.9755,-2.9823,-4.1516,-4.2054,-4.2589,-4.2199,-4.2006,-4.1685,-4.0959,-4.0813,-4.0578,-3.9824,-4.0529,-4.1195,-4.0846,-4.1136,-4.1525,-4.1863,-4.1077,-4.0507,-4.0703,-4.0527,-4.0716,-4.1693,-4.1891,-4.233,-4.3383,-4.3497,-4.3273,-4.2826,-4.2299,-4.2028,-4.2028,-4.1996,-4.2012,-4.2174,-4.2318,-4.2571,-4.2899,-4.319,-4.3372,-4.3432,-4.2109,-4.1543,-4.1638,-4.0248,-3.972,-3.9961,-4.0087,-4.0238,-4.0404,-4.051,-4.0185,-3.9531,-3.8774,-3.8151,-3.7567,-3.6821,-3.6623,-3.6725,-3.6786,-3.6928,-3.7085,-3.7085,-3.7048,-3.7029,-3.7029,-3.7029,-3.7029,-3.7029,-3.697,-3.6928,-3.6891,-3.6234,-3.5388,-3.4619,-3.3797,-3.2996,-3.2265,-3.2108,-3.2108,-3.2108,-3.202,-3.1984,-3.2073,-3.1875,-3.1747,-3.1856,-3.1726,-3.1726,-3.2055,-3.2002,-3.2002,-3.2108,-3.1603,-3.087,-2.9979,-2.9479,-2.8818,-2.7859,-2.8025,-2.8168,-2.8182,-2.838,-2.851,-2.8523,-2.8773,-2.8957,-2.9093,-2.9265,-2.9411,-2.956,-2.9673,-2.9755,-4.1678,-4.2038,-4.2384,-4.2216,-4.1783,-4.1346,-4.0846,-4.0719,-4.0669,-4.03,-4.1022,-4.1666,-4.1546,-4.1793,-4.2004,-4.1983,-4.1183,-4.0586,-4.0567,-4.0345,-4.0664,-4.1985,-4.2215,-4.2729,-4.3961,-4.4039,-4.3759,-4.3171,-4.2625,-4.2216,-4.193,-4.1833,-4.185,-4.2012,-4.219,-4.2476,-4.2899,-4.3084,-4.3073,-4.2805,-4.1816,-4.1191,-4.0945,-3.9964,-3.958,-3.972,-3.9935,-4.0087,-4.0196,-4.0022,-3.9546,-3.887,-3.8134,-3.7475,-3.6926,-3.6512,-3.6461,-3.6623,-3.6623,-3.6708,-3.6869,-3.6908,-3.6908,-3.6908,-3.6908,-3.6888,-3.6866,-3.6866,-3.6809,-3.6766,-3.6766,-3.5849,-3.4834,-3.4417,-3.3423,-3.2467,-3.1979,-3.1875,-3.1874,-3.1838,-3.1764,-3.1746,-3.1837,-3.1671,-3.1578,-3.1651,-3.1574,-3.1593,-3.1818,-3.1764,-3.1746,-3.1837,-3.1165,-3.0439,-2.9729,-2.9097,-2.8408,-2.7667,-2.7806,-2.7922,-2.7922,-2.815,-2.8304,-2.8353,-2.8536,-2.8724,-2.8899,-2.904,-2.9178,-2.9361,-2.948,-2.9598,-4.1711,-4.179,-4.1821,-4.2098,-4.1607,-4.0999,-4.0793,-4.0755,-4.0769,-4.0858,-4.1351,-4.1849,-4.2099,-4.2084,-4.1984,-4.1675,-4.101,-4.0484,-4.0273,-4.0193,-4.0715,-4.2289,-4.2608,-4.3247,-4.4524,-4.4362,-4.3937,-4.3317,-4.3013,-4.2547,-4.1913,-4.1703,-4.1703,-4.1931,-4.2061,-4.2381,-4.2868,-4.2899,-4.2602,-4.2064,-4.146,-4.0807,-4.0066,-3.963,-3.9475,-3.9528,-3.9772,-3.9935,-4.0037,-3.9433,-3.8789,-3.8105,-3.7348,-3.6703,-3.6165,-3.6165,-3.6293,-3.6461,-3.6461,-3.6544,-3.6702,-3.6748,-3.6788,-3.6788,-3.6788,-3.6745,-3.6702,-3.6681,-3.6643,-3.6643,-3.664,-3.5396,-3.414,-3.414,-3.2905,-3.1709,-3.1579,-3.1542,-3.154,-3.1462,-3.146,-3.146,-3.146,-3.146,-3.144,-3.144,-3.144,-3.1421,-3.144,-3.1479,-3.1464,-3.1344,-3.0735,-3.0055,-2.9369,-2.8712,-2.8083,-2.75,-2.7582,-2.7672,-2.7672,-2.7911,-2.8095,-2.8232,-2.83,-2.8471,-2.8737,-2.8749,-2.8893,-2.9145,-2.9229,-2.9368,-4.1134,-4.1522,-4.1736,-4.1128,-4.0895,-4.0709,-4.0539,-4.0465,-4.0614,-4.1189,-4.1831,-4.2279,-4.2333,-4.2318,-4.2453,-4.2886,-4.1998,-4.131,-4.1546,-4.1149,-4.1066,-4.1704,-4.1806,-4.2186,-4.3154,-4.3195,-4.298,-4.2592,-4.2504,-4.2228,-4.1669,-4.1621,-4.1753,-4.2061,-4.2254,-4.2445,-4.2665,-4.2837,-4.2541,-4.1838,-4.1298,-4.0693,-4.0066,-3.9396,-3.9228,-3.9528,-3.9668,-3.9807,-3.9885,-3.9268,-3.8652,-3.7948,-3.7217,-3.6575,-3.6019,-3.6019,-3.6122,-3.6251,-3.6251,-3.6395,-3.6544,-3.6684,-3.6722,-3.6722,-3.6722,-3.6722,-3.6681,-3.6582,-3.6444,-3.636,-3.6293,-3.5053,-3.3785,-3.3785,-3.2635,-3.1519,-3.1389,-3.131,-3.1269,-3.1249,-3.1249,-3.1249,-3.1249,-3.1171,-3.1075,-3.1075,-3.1052,-3.1032,-3.1092,-3.1327,-3.1278,-3.0664,-2.9895,-2.9126,-2.8391,-2.7787,-2.7384,-2.7261,-2.7432,-2.7524,-2.7524,-2.7632,-2.7719,-2.7803,-2.7982,-2.8164,-2.8393,-2.851,-2.8657,-2.887,-2.9044,-2.9218,-4.1194,-4.1183,-4.1081,-4.1003,-4.0688,-4.0504,-4.1105,-4.1144,-4.1355,-4.24,-4.2734,-4.2865,-4.2865,-4.262,-4.25,-4.2776,-4.2013,-4.1415,-4.1425,-4.118,-4.1157,-4.1566,-4.1601,-4.1899,-4.2685,-4.2855,-4.2667,-4.2128,-4.2169,-4.2043,-4.162,-4.1588,-4.172,-4.198,-4.2077,-4.227,-4.2508,-4.2571,-4.213,-4.1119,-4.0926,-4.0324,-3.9301,-3.9106,-3.9094,-3.9255,-3.9484,-3.9642,-3.961,-3.8639,-3.8031,-3.7641,-3.651,-3.5921,-3.5694,-3.5694,-3.5822,-3.5993,-3.5993,-3.6101,-3.6255,-3.6314,-3.644,-3.6582,-3.6523,-3.6478,-3.6395,-3.6187,-3.6084,-3.6019,-3.591,-3.4717,-3.3535,-3.3535,-3.2357,-3.1213,-3.1157,-3.1035,-3.0952,-3.0952,-3.0875,-3.0834,-3.0834,-3.0794,-3.0773,-3.0834,-3.0814,-3.0831,-3.0915,-3.0754,-3.0516,-3.0257,-2.9561,-2.8779,-2.8014,-2.7384,-2.7039,-2.7039,-2.7198,-2.7293,-2.7293,-2.7434,-2.7542,-2.76,-2.7719,-2.7911,-2.8136,-2.8219,-2.8367,-2.8587,-2.8755,-2.8945,-4.1263,-4.0865,-4.0469,-4.0954,-4.0568,-4.038,-4.168,-4.1888,-4.2153,-4.3482,-4.3557,-4.3384,-4.3384,-4.2845,-4.244,-4.259,-4.2104,-4.1558,-4.1228,-4.1246,-4.1285,-4.1366,-4.137,-4.1571,-4.2109,-4.2299,-4.2173,-4.1635,-4.1762,-4.1768,-4.1554,-4.1588,-4.1703,-4.1898,-4.1898,-4.2061,-4.2349,-4.2381,-4.1831,-4.0663,-4.0651,-4.0008,-3.8844,-3.8887,-3.8958,-3.9023,-3.9325,-3.9475,-3.9428,-3.8221,-3.7635,-3.7326,-3.5997,-3.5448,-3.535,-3.535,-3.5509,-3.5711,-3.5711,-3.58,-3.591,-3.591,-3.6127,-3.636,-3.6216,-3.6148,-3.6058,-3.5795,-3.5706,-3.5661,-3.5532,-3.4487,-3.3405,-3.309,-3.1929,-3.0875,-3.0875,-3.0712,-3.0589,-3.0589,-3.0506,-3.0443,-3.0443,-3.0443,-3.0485,-3.0568,-3.0589,-3.063,-3.079,-3.0156,-2.9697,-2.9719,-2.9104,-2.8379,-2.7585,-2.7097,-2.6843,-2.6843,-2.6957,-2.7005,-2.7005,-2.7182,-2.7326,-2.7388,-2.7465,-2.7615,-2.7882,-2.7882,-2.8039,-2.8313,-2.8453,-2.8651,-4.0751,-4.0536,-4.0486,-4.0423,-4.0323,-4.0593,-4.1732,-4.1999,-4.2341,-4.3714,-4.3793,-4.3651,-4.3651,-4.2977,-4.259,-4.315,-4.2872,-4.2402,-4.1879,-4.2025,-4.1801,-4.0735,-4.0597,-4.0612,-4.0674,-4.0724,-4.0763,-4.0892,-4.1093,-4.1232,-4.1323,-4.1489,-4.1703,-4.1898,-4.1898,-4.198,-4.2109,-4.2318,-4.2026,-4.1237,-4.0744,-4.0196,-3.9593,-3.8925,-3.8766,-3.9023,-3.9245,-3.9395,-3.9461,-3.8789,-3.8037,-3.7253,-3.6428,-3.5711,-3.5135,-3.5135,-3.5258,-3.5447,-3.5447,-3.5515,-3.5644,-3.5644,-3.5822,-3.6019,-3.5883,-3.5839,-3.5795,-3.5515,-3.5373,-3.5314,-3.5182,-3.4459,-3.3437,-3.2077,-3.1085,-3.0459,-3.0459,-3.0338,-3.0248,-3.0248,-3.0231,-3.0231,-3.0231,-3.0231,-3.0231,-3.0231,-3.0248,-3.0295,-3.0438,-2.9815,-2.9108,-2.8528,-2.802,-2.7426,-2.6687,-2.6622,-2.6623,-2.6623,-2.6691,-2.6741,-2.6741,-2.6859,-2.6992,-2.704,-2.7103,-2.7277,-2.7542,-2.7542,-2.7721,-2.8042,-2.816,-2.8388,-4.0689,-4.0489,-4.0489,-4.0436,-4.0436,-4.0754,-4.2061,-4.2258,-4.255,-4.3892,-4.391,-4.369,-4.369,-4.3109,-4.279,-4.3452,-4.3156,-4.272,-4.2208,-4.2227,-4.1847,-4.0659,-4.0909,-4.117,-4.117,-4.117,-4.1021,-4.0658,-4.0814,-4.0935,-4.1003,-4.1256,-4.1522,-4.1703,-4.1703,-4.1801,-4.198,-4.2158,-4.1916,-4.1303,-4.1213,-4.0621,-3.9576,-3.9357,-3.9096,-3.8766,-3.9013,-3.9148,-3.9152,-3.8493,-3.7945,-3.7402,-3.6189,-3.5498,-3.5161,-3.4758,-3.4763,-3.4961,-3.4961,-3.5071,-3.5188,-3.5188,-3.5258,-3.535,-3.5458,-3.5498,-3.5412,-3.5071,-3.4954,-3.4899,-3.4763,-3.3851,-3.2685,-3.1649,-3.0838,-3.0274,-3.0274,-3.0167,-3.0081,-3.0081,-3.0055,-3.0011,-3.0011,-3.0011,-3.0033,-3.006,-3.0081,-3.0103,-3.0146,-2.9153,-2.8318,-2.7983,-2.7564,-2.7004,-2.6254,-2.6224,-2.6241,-2.6241,-2.633,-2.64,-2.64,-2.6521,-2.6607,-2.664,-2.6859,-2.7039,-2.7201,-2.723,-2.7402,-2.7707,-2.785,-2.8014,-4.0786,-4.0489,-4.0489,-4.0489,-4.0659,-4.112,-4.234,-4.2631,-4.3002,-4.4151,-4.4065,-4.3808,-4.3808,-4.3337,-4.3148,-4.3615,-4.3349,-4.297,-4.2646,-4.249,-4.2073,-4.1228,-4.1586,-4.1909,-4.1909,-4.1724,-4.1294,-4.0551,-4.0627,-4.073,-4.0799,-4.1021,-4.1256,-4.1489,-4.1555,-4.167,-4.1817,-4.1964,-4.1869,-4.1531,-4.1508,-4.1017,-4.0121,-3.9742,-3.93,-3.8825,-3.8837,-3.8849,-3.8854,-3.8416,-3.7964,-3.7465,-3.6391,-3.5776,-3.5406,-3.4718,-3.4634,-3.4865,-3.4652,-3.4667,-3.478,-3.478,-3.478,-3.4804,-3.497,-3.5065,-3.5058,-3.4715,-3.4618,-3.4546,-3.4423,-3.3353,-3.2161,-3.1638,-3.0789,-3.0119,-3.0119,-3.0033,-2.9968,-2.9968,-2.9924,-2.9896,-2.9896,-2.9896,-2.9902,-2.9924,-2.9924,-2.9886,-2.9798,-2.8558,-2.7643,-2.7504,-2.6906,-2.6349,-2.5932,-2.5883,-2.5883,-2.5919,-2.5992,-2.6064,-2.6117,-2.6225,-2.6313,-2.633,-2.6589,-2.6775,-2.6876,-2.6941,-2.7086,-2.7357,-2.7282,-2.7256,-4.0944,-4.0489,-4.0489,-4.0489,-4.1063,-4.1771,-4.2463,-4.3094,-4.3793,-4.4471,-4.4281,-4.3988,-4.3988,-4.3832,-4.3675,-4.369,-4.3464,-4.331,-4.331,-4.2907,-4.2602,-4.2586,-4.2586,-4.2602,-4.2602,-4.1986,-4.1294,-4.0551,-4.0489,-4.0593,-4.0799,-4.0799,-4.0969,-4.129,-4.1489,-4.1588,-4.1588,-4.1784,-4.198,-4.2093,-4.1547,-4.1395,-4.1531,-3.9927,-3.9266,-3.9363,-3.8683,-3.8488,-3.8595,-3.8733,-3.8215,-3.7279,-3.7307,-3.6744,-3.59,-3.5166,-3.5059,-3.5194,-3.4544,-3.4399,-3.4497,-3.4497,-3.4497,-3.4472,-3.4349,-3.4497,-3.4667,-3.4546,-3.4399,-3.4275,-3.4151,-3.3064,-3.1996,-3.1996,-3.0933,-2.9902,-2.9902,-2.9896,-2.9896,-2.9896,-2.9896,-2.9896,-2.9896,-2.9896,-2.9852,-2.972,-2.9697,-2.9614,-2.935,-2.8065,-2.7169,-2.701,-2.5873,-2.5262,-2.5586,-2.5605,-2.5642,-2.5701,-2.5703,-2.5756,-2.5897,-2.5972,-2.6063,-2.6202,-2.6277,-2.64,-2.6589,-2.6589,-2.6742,-2.699,-2.6378,-2.5976,-4.2099,-4.1955,-4.1955,-4.1955,-4.2125,-4.2463,-4.311,-4.3454,-4.3793,-4.4471,-4.4281,-4.3988,-4.3988,-4.3847,-4.3579,-4.3265,-4.3274,-4.3195,-4.2876,-4.2704,-4.2602,-4.2602,-4.2892,-4.2836,-4.223,-4.1986,-4.1391,-4.0248,-4.0312,-4.0401,-4.047,-4.0662,-4.0953,-4.129,-4.1357,-4.1456,-4.1588,-4.1784,-4.1963,-4.2109,-4.2077,-4.1817,-4.1379,-4.0246,-3.945,-3.8894,-3.8322,-3.8087,-3.8144,-3.8258,-3.8072,-3.766,-3.705,-3.6662,-3.6286,-3.5063,-3.475,-3.4796,-3.4217,-3.405,-3.4101,-3.4201,-3.4226,-3.4226,-3.4176,-3.43,-3.4399,-3.4275,-3.4201,-3.4151,-3.4126,-3.3064,-3.2012,-3.2012,-3.0933,-2.9896,-2.9896,-2.9896,-2.9874,-2.9786,-2.9764,-2.9742,-2.9653,-2.963,-2.9608,-2.9563,-2.9563,-2.9473,-2.919,-2.7971,-2.7051,-2.6826,-2.5566,-2.4875,-2.5243,-2.5339,-2.5394,-2.5432,-2.5432,-2.547,-2.5549,-2.5675,-2.577,-2.5864,-2.6099,-2.6258,-2.6328,-2.6468,-2.6387,-2.6108,-2.6012,-2.5417,-4.2638,-4.2602,-4.2602,-4.2602,-4.2786,-4.3079,-4.3516,-4.3809,-4.4064,-4.4419,-4.4044,-4.3684,-4.3864,-4.3596,-4.3292,-4.328,-4.3016,-4.2899,-4.3192,-4.2815,-4.2585,-4.283,-4.3332,-4.3121,-4.1652,-4.1721,-4.1312,-3.998,-3.998,-4.0086,-4.0172,-4.047,-4.073,-4.0987,-4.1189,-4.139,-4.1588,-4.1703,-4.1882,-4.2045,-4.2141,-4.1965,-4.1501,-4.0369,-3.9529,-3.89,-3.8007,-3.7666,0.0,-3.7886,-3.7902,-3.7767,-3.7221,-3.6959,-3.6759,-3.5364,-3.4907,-3.4915,-3.4046,-3.3838,-3.3899,-3.4,-3.405,-3.4101,-3.4101,-3.4151,-3.4201,-3.4126,-3.4101,-3.4101,-3.4101,-3.3259,-3.2336,-3.2077,-3.1121,-3.0198,-2.9879,-2.9814,-2.977,-2.9653,-2.963,-2.9608,-2.9518,-2.9496,-2.9473,-2.9434,-2.9366,-2.9252,-2.9037,-2.8,-2.7111,-2.6647,-2.56,-2.4926,-2.4882,-2.5025,-2.5139,-2.5178,-2.5201,-2.5259,-2.5355,-2.5467,-2.5565,-2.5661,-2.5899,-2.6043,-2.6096,-2.6292,-2.6083,-2.551,-2.5385,-2.4754,0.0,-4.2756,-4.2756,-4.2756,-4.3202,-4.3685,-4.3685,-4.4125,0.0,-4.4358,-4.3609,-4.3122,-4.3609,-4.3109,-4.2853,-4.3509,-4.2644,-4.2477,-4.3983,-4.3135,-4.257,-4.3098,-4.377,-4.3267,-4.0932,-4.1294,-4.1143,-3.9826,-3.9676,-3.9732,-3.994,-4.0137,-4.0331,-4.0455,-4.0987,-4.1357,-4.1555,-4.1555,-4.167,-4.1866,-4.1866,-4.1866,-4.1818,-4.0262,-3.9456,-3.9188,-3.776,-3.7238,-3.7358,-3.7567,-3.7642,-3.7671,-3.7671,-3.7599,-3.7336,-3.59,-3.5463,-3.5383,-3.3996,-3.3658,-3.3873,-3.3873,-3.3975,-3.4075,-3.4075,-3.4101,-3.4101,-3.4101,-3.4101,-3.4101,-3.4101,-3.3599,-3.2902,-3.219,-3.1438,-3.0665,-2.9865,-2.9697,-2.9653,-2.9518,-2.9496,-2.9473,-2.9473,-2.9473,-2.9428,-2.9305,-2.9167,-2.9021,-2.8818,-2.8093,-2.728,-2.6479,-2.583,-2.5199,-2.4539,-2.4661,-2.4842,-2.4966,-2.5048,-2.5146,-2.5294,-2.5355,-2.5432,-2.5578,-2.5642,-2.5754,-2.5881,-2.6079,-2.584,-2.5179,-2.4677,-2.4094,-4.4046,0.0,-4.411,-4.411,-4.4271,-4.4379,0.0,-4.435,-4.4358,-4.432,-4.3495,-4.2984,-4.3609,-4.2845,-4.2285,-4.2566,-4.1855,-4.1639,-4.2833,-4.2902,-4.2659,-4.213,-4.2652,-4.253,-4.1136,-4.1158,-4.0814,-3.9847,-3.9423,-3.9337,-3.9532,-3.9732,-3.9965,-4.025,-4.0543,-4.0867,-4.1203,-4.1236,-4.1288,-4.1439,-4.1439,-4.1439,-4.1392,-3.983,-3.9059,-3.8853,-3.7437,-3.6831,-3.6861,-3.7075,-3.7225,-3.7314,-3.7314,-3.7389,-3.7336,-3.59,-3.5422,-3.5272,-3.3969,-3.3555,-3.3607,-3.3694,-3.3771,-3.3797,-3.3924,-3.4025,-3.4101,-3.4101,-3.4101,-3.4101,-3.4101,-3.3599,-3.2902,-3.219,-3.1375,-3.0541,-2.9865,-2.963,-2.9518,-2.9373,-2.935,-2.9305,-2.9206,-2.9206,-2.9167,-2.9144,-2.9036,-2.8912,-2.8818,-2.8,-2.7157,-2.6328,-2.5572,-2.4884,-2.4311,-2.4503,-2.4706,-2.4842,-2.4862,-2.4946,-2.5146,-2.5166,-2.5224,-2.5371,-2.5543,-2.5659,-2.5738,-2.5899,-2.5628,-2.4975,-2.4945,-2.428,-4.4425,-4.461,-4.4587,-4.4511,-4.4458,-4.4435,-4.4358,-4.4243,-4.4143,-4.405,-4.3302,-4.2868,-4.3437,-4.2673,-4.2158,-4.2535,-4.1887,-4.1472,-4.1878,-4.2484,-4.25,-4.1558,-4.2338,-4.2408,-4.0938,-4.1356,-4.1155,-3.9774,-3.9423,-3.9232,-3.9119,-3.9322,-3.9538,-3.9809,-4.0036,-4.0366,-4.083,-4.0932,-4.095,-4.0919,-4.0919,-4.087,-4.0771,-3.9699,-3.8982,-3.8464,-3.7495,-3.6925,-3.6723,-3.6831,-3.6953,-3.7119,-3.7164,-3.7254,-3.7186,-3.59,-3.5394,-3.5217,-3.3863,-3.345,-3.3529,-3.3658,-3.3694,-3.3694,-3.3771,-3.3899,-3.4025,-3.4075,-3.4101,-3.4101,-3.4101,-3.3825,-3.3291,-3.2167,-3.1555,-3.0898,-2.9756,-2.9457,-2.9366,-2.9236,-2.9213,-2.919,-2.9098,-2.9098,-2.9098,-2.9098,-2.8959,-2.8834,-2.8794,-2.8207,-2.7363,-2.6313,-2.5757,-2.5089,-2.4179,-2.4312,-2.4482,-2.4641,-2.4742,-2.4862,-2.4966,-2.5048,-2.5166,-2.5294,-2.541,-2.5486,-2.5511,-2.5621,-2.5519,-2.5219,-2.4982,-2.4528,-4.4433,-4.4534,-4.4511,-4.432,-4.4243,-4.4127,-4.3934,-4.3871,-4.3778,-4.3636,-4.3031,-4.2698,-4.3145,-4.2515,-4.2075,-4.2638,-4.1995,-4.1224,-4.0704,-4.1524,-4.1818,-4.0789,-4.1989,-4.2228,-4.0534,-4.1489,-4.1558,-3.9852,-3.9545,-3.927,-3.8937,-3.8966,-3.9104,-3.9337,-3.9553,-3.9859,-4.0316,-4.0558,-4.0593,-4.0436,-4.0436,-4.0351,-4.0165,-3.968,-3.9051,-3.832,-3.7734,-3.7232,-3.6801,-3.6708,-3.677,-3.6969,-3.7089,-3.7134,-3.7037,-3.5896,-3.5417,-3.5161,-3.3783,-3.3372,-3.3477,-3.3607,-3.3658,-3.3658,-3.3658,-3.3761,-3.3873,-3.4,-3.405,-3.4075,-3.405,-3.405,-3.3686,-3.2257,-3.183,-3.1325,-2.9796,-2.9362,-2.9236,-2.9121,-2.9098,-2.9098,-2.9098,-2.9098,-2.9098,-2.9098,-2.8944,-2.8818,-2.8794,-2.8444,-2.7666,-2.6321,-2.6032,-2.5402,-2.4088,-2.4103,-2.425,-2.4436,-2.4641,-2.4762,-2.4782,-2.495,-2.5107,-2.5217,-2.5256,-2.5275,-2.5275,-2.5355,-2.5432,-2.5543,-2.4972,-2.4829,-4.4366,-4.4358,-4.4281,-4.4104,-4.3895,-4.363,-4.3448,-4.329,-4.3155,-4.3115,-4.2451,-4.2055,-4.2691,-4.2092,-4.1456,-4.1423,-4.0699,-3.9739,-3.8576,-3.9311,-3.9639,-3.8754,-4.0141,-4.09,-4.0197,-4.1025,-4.1346,-4.0895,-3.9838,-3.9299,-3.9411,-3.8883,-3.8775,-3.9141,-3.9337,-3.9496,-3.9553,-3.996,-4.0101,-4.0066,-4.0066,-4.0066,-4.0001,-3.9474,-3.9161,-3.8993,-3.7933,-3.7446,-3.7324,-3.6754,-3.6616,-3.6754,-3.6785,-3.6877,-3.692,-3.6138,-3.5553,-3.4961,-3.3729,-3.3293,-3.3319,-3.3346,-3.3346,-3.3372,-3.3503,-3.3555,-3.3581,-3.372,-3.3848,-3.3899,-3.3797,-3.3745,-3.3537,-3.2695,-3.1941,-3.123,-3.0402,-2.9657,-2.9121,-2.9098,-2.9098,-2.9098,-2.9098,-2.9098,-2.9098,-2.9098,-2.8982,-2.8865,-2.8818,-2.8444,-2.7642,-2.6191,-2.5809,-2.5152,-2.3924,-2.3961,-2.4088,-2.4244,-2.4436,-2.458,-2.463,-2.4766,-2.4862,-2.4882,-2.5029,-2.5127,-2.5127,-2.5259,-2.5333,-2.5352,-2.53,-2.5026,-4.4358,-4.4112,-4.384,-4.3527,-4.3448,-4.3329,-4.2905,-4.2743,-4.2633,-4.2496,-4.214,-4.1956,-4.2234,-4.1715,-4.111,-4.0612,-4.0163,-3.9538,-3.8549,-3.8871,-3.8996,-3.8501,-3.9513,-4.0263,-4.0291,-4.0977,-4.1264,-4.0972,-4.0036,-3.9474,-3.9357,-3.8716,-3.8464,-3.8775,-3.8863,-3.901,-3.9228,-3.9409,-3.9553,-3.9676,-3.9676,-3.9676,-3.9661,-3.9541,-3.9263,-3.8918,-3.858,-3.7991,-3.7318,-3.7122,-3.6846,-3.66,-3.6662,-3.6754,-3.6737,-3.5738,-3.5026,-3.4446,-3.3496,-3.3229,-3.3309,-3.3309,-3.3309,-3.3293,-3.3372,-3.345,-3.3503,-3.3477,-3.3617,-3.3771,-3.3736,-3.3694,-3.3492,-3.2739,-3.2249,-3.1674,-3.0553,-2.999,-2.958,-2.9177,-2.9098,-2.9098,-2.9098,-2.9098,-2.9098,-2.9098,-2.899,-2.8873,-2.8818,-2.8493,-2.773,-2.6168,-2.5879,-2.5266,-2.3902,-2.3982,-2.4187,-2.4354,-2.4436,-2.4539,-2.4589,-2.4666,-2.4686,-2.4686,-2.4771,-2.4871,-2.4946,-2.5001,-2.51,-2.5201,-2.5224,-2.5144,-4.4281,-4.3957,-4.3551,-4.3076,-4.301,-4.293,-4.2377,-4.2213,-4.2172,-4.1825,-4.1784,-4.1784,-4.1784,-4.1177,-4.0472,-3.9953,-3.9477,-3.9,-3.8527,-3.8456,-3.8378,-3.8182,-3.8935,-3.9562,-3.99,-4.054,-4.0836,-4.0526,-3.988,-3.9384,-3.9064,-3.8451,-3.8202,-3.8404,-3.8478,-3.8664,-3.9017,-3.9068,-3.9177,-3.9388,-3.9388,-3.9388,-3.9424,-3.9625,-3.941,-3.8963,-3.9093,-3.8482,-3.7384,-3.7425,-3.7029,-3.6445,-3.66,-3.6662,-3.6523,-3.5478,-3.4722,-3.4163,-3.3556,-3.3318,-3.3256,-3.3282,-3.3309,-3.3309,-3.3309,-3.3372,-3.3424,-3.3335,-3.345,-3.3607,-3.3607,-3.3607,-3.3437,-3.2835,-3.2555,-3.2117,-3.0956,-3.0441,-3.0046,-2.9485,-2.9225,-2.9098,-2.9098,-2.9098,-2.9098,-2.9098,-2.9013,-2.8936,-2.8826,-2.8612,-2.791,-2.6474,-2.6131,-2.5424,-2.4024,-2.4082,-2.4286,-2.4416,-2.4436,-2.4482,-2.4528,-2.4549,-2.4584,-2.4584,-2.4589,-2.4666,-2.4762,-2.4782,-2.4866,-2.5029,-2.5068,-2.5166,-4.4143,-4.3988,-4.3778,-4.293,-4.2581,-4.2351,-4.1868,-4.1744,-4.1604,-4.117,-4.1071,-4.1071,-4.1071,-4.012,-3.9325,-3.9282,-3.8116,-3.7183,-3.7141,-3.7127,-3.7063,-3.6856,-3.7758,-3.8365,-3.8194,-3.9067,-3.9596,-3.9608,-3.9007,-3.8674,-3.8631,-3.8198,-3.7991,-3.8202,-3.8404,-3.8612,-3.8819,-3.9017,-3.9177,-3.9388,-3.9388,-3.9388,-3.9424,-3.9625,-3.9666,-3.9626,-3.9198,-3.8599,-3.7919,-3.7414,-3.6839,-3.6242,-3.6445,-3.6523,-3.643,-3.5842,-3.5234,-3.461,-3.4178,-3.3646,-3.3123,-3.3256,-3.3309,-3.3309,-3.3309,-3.3309,-3.3293,-3.3309,-3.3293,-3.3335,-3.3335,-3.3335,-3.3319,-3.3272,-3.2766,-3.2285,-3.2165,-3.1121,-3.0188,-3.0141,-2.958,-2.9098,-2.9098,-2.9098,-2.9098,-2.9098,-2.9075,-2.9052,-2.892,-2.87,-2.8247,-2.7396,-2.652,-2.5507,-2.4288,-2.4202,-2.4223,-2.4208,-2.4276,-2.4317,-2.4323,-2.4441,-2.4498,-2.4498,-2.4584,-2.4609,-2.4609,-2.4726,-2.4802,-2.4822,-2.4946,-2.5064,-4.3773,-4.3566,-4.325,-4.2662,-4.2351,-4.1976,-4.1144,-4.0961,-4.0737,-3.9869,-3.997,-4.028,-4.042,-3.9616,-3.891,-3.8783,-3.787,-3.7148,-3.7017,-3.6875,-3.6747,-3.6563,-3.6877,-3.7288,-3.7718,-3.8116,-3.8613,-3.928,-3.8712,-3.8435,-3.8592,-3.8045,-3.7815,-3.8005,-3.8081,-3.8292,-3.8612,-3.8797,-3.9017,-3.9228,-3.9337,-3.9388,-3.9388,-3.9481,-3.9517,-3.9487,-3.9038,-3.8428,-3.7778,-3.7281,-3.6726,-3.6211,-3.6414,-3.6492,-3.6415,-3.5813,-3.5456,-3.5188,-3.42,-3.3779,-3.3677,-3.3291,-3.3229,-3.3309,-3.3309,-3.3309,-3.3309,-3.3309,-3.3309,-3.3309,-3.3309,-3.3309,-3.3309,-3.3309,-3.3103,-3.2829,-3.2386,-3.1532,-3.0701,-3.0283,-2.9611,-2.9098,-2.9098,-2.9098,-2.9098,-2.9098,-2.9098,-2.9052,-2.8904,-2.8811,-2.8396,-2.7481,-2.6267,-2.5175,-2.4332,-2.4229,-2.4202,-2.4202,-2.4229,-2.4193,-2.413,-2.4151,-2.4229,-2.4312,-2.4333,-2.44,-2.4544,-2.46,-2.4641,-2.4686,-2.4726,-2.4771,-4.3247,-4.2961,-4.2604,-4.2111,-4.1855,-4.135,-4.0108,-4.0182,-4.0158,-3.8905,-3.895,-3.9299,-3.962,-3.9089,-3.85,-3.8243,-3.7712,-3.7217,-3.6943,-3.6668,-3.6484,-3.6325,-3.6325,-3.6517,-3.7064,-3.7226,-3.7608,-3.8378,-3.8023,-3.7887,-3.8097,-3.7737,-3.7625,-3.7815,-3.7853,-3.8043,-3.8404,-3.8612,-3.8797,-3.9017,-3.9228,-3.9337,-3.9388,-3.9388,-3.9269,-3.908,-3.8742,-3.8136,-3.7308,-3.7041,-3.6598,-3.6148,-3.6352,-3.6414,-3.6368,-3.5968,-3.5751,-3.5517,-3.4647,-3.4169,-3.3916,-3.3529,-3.3323,-3.3256,-3.3282,-3.3309,-3.3309,-3.3309,-3.3309,-3.3309,-3.3309,-3.3309,-3.3309,-3.3309,-3.3309,-3.3166,-3.2718,-3.1871,-3.1065,-3.0591,-2.9746,-2.9098,-2.9098,-2.9098,-2.9098,-2.9098,-2.9098,-2.9075,-2.8967,-2.8873,-2.8435,-2.7512,-2.6304,-2.5308,-2.4639,-2.4351,-2.4145,-2.4082,-2.4082,-2.4046,-2.4003,-2.4003,-2.4024,-2.4145,-2.4145,-2.4229,-2.441,-2.4436,-2.4482,-2.4584,-2.4589,-2.4609,-4.255,-4.221,-4.1922,-4.1237,-4.0914,-4.034,-3.8669,-3.9432,-4.0062,-3.8519,-3.8019,-3.8086,-3.8689,-3.8474,-3.8062,-3.7682,-3.7437,-3.7162,-3.6765,-3.6365,-3.6086,-3.6086,-3.6086,-3.6086,-3.6086,-3.6484,-3.6721,-3.6721,-3.6875,-3.6978,-3.6978,-3.7187,-3.738,-3.7586,-3.7777,-3.8005,-3.8202,-3.8404,-3.8612,-3.8819,-3.9017,-3.9228,-3.9388,-3.9373,-3.9035,-3.8392,-3.8377,-3.7659,-3.651,-3.6628,-3.6418,-3.6005,-3.6148,-3.6196,-3.6211,-3.6414,-3.6076,-3.5521,-3.5641,-3.4818,-3.3771,-3.4022,-3.3634,-3.3123,-3.3256,-3.3309,-3.3309,-3.3309,-3.3309,-3.3309,-3.3309,-3.3309,-3.3309,-3.3309,-3.3309,-3.3309,-3.3309,-3.2203,-3.1198,-3.1198,-3.0061,-2.9114,-2.9098,-2.9098,-2.9098,-2.9098,-2.9098,-2.9098,-2.9098,-2.892,-2.8435,-2.7496,-2.6818,-2.6096,-2.528,-2.4585,-2.4082,-2.3818,-2.3797,-2.3861,-2.3982,-2.4003,-2.4003,-2.4003,-2.4003,-2.4061,-2.4202,-2.4255,-2.438,-2.4498,-2.4564,-2.4589,-4.1305,-4.0698,-3.9945,-3.9466,-3.9493,-3.9306,-3.7923,-3.8604,-3.9246,-3.803,-3.7455,-3.7441,-3.8226,-3.7786,-3.7318,-3.7398,-3.697,-3.6558,-3.6299,-3.6166,-3.6032,-3.5844,-3.5804,-3.5898,-3.6072,-3.6206,-3.6405,-3.6682,-3.6747,-3.685,-3.6978,-3.707,-3.7264,-3.7586,-3.7663,-3.7915,-3.8404,-3.8612,-3.8797,-3.9017,-3.9228,-3.9337,-3.9373,-3.8916,-3.8586,-3.8347,-3.7434,-3.6836,-3.648,-3.6135,-3.5901,-3.5831,-3.599,-3.6068,-3.6068,-3.6211,-3.6151,-3.5937,-3.566,-3.5039,-3.4335,-3.3954,-3.3415,-3.2978,-3.3123,-3.315,-3.3176,-3.3282,-3.3309,-3.3309,-3.3309,-3.3309,-3.3309,-3.3309,-3.3309,-3.3309,-3.3309,-3.2598,-3.1833,-3.1302,-3.048,-2.9706,-2.9193,-2.9098,-2.9098,-2.9098,-2.9098,-2.9075,-2.8967,-2.8873,-2.8482,-2.762,-2.728,-2.6626,-2.5382,-2.4954,-2.4526,-2.3991,-2.376,-2.3674,-2.3717,-2.3717,-2.376,-2.3861,-2.3861,-2.394,-2.4061,-2.4088,-2.4151,-2.4291,-2.4312,-2.4338,-3.9948,-3.9279,-3.8515,-3.8104,-3.8246,-3.8329,-3.777,-3.7894,-3.7928,-3.7451,-3.6851,-3.6634,-3.7414,-3.714,-3.6771,-3.6809,-3.6618,-3.6332,-3.5979,-3.5858,-3.5777,-3.5602,-3.5602,-3.5683,-3.5898,-3.6032,-3.6206,-3.6445,-3.6603,-3.6747,-3.6889,-3.6954,-3.7148,-3.7457,-3.7572,-3.7801,-3.8269,-3.8538,-3.8797,-3.898,-3.9177,-3.9301,-3.9394,-3.8706,-3.8242,-3.7928,-3.6656,-3.6088,-3.6091,-3.5769,-3.5621,-3.5653,-3.5799,-3.5863,-3.5894,-3.6101,-3.6196,-3.6181,-3.5953,-3.549,-3.4929,-3.4306,-3.3709,-3.3185,-3.3056,-3.3032,-3.3058,-3.3176,-3.3229,-3.3229,-3.3282,-3.3309,-3.3309,-3.3309,-3.3309,-3.3309,-3.3309,-3.2782,-3.2165,-3.1713,-3.0868,-3.0062,-2.9611,-2.9288,-2.9098,-2.9098,-2.9098,-2.9052,-2.8904,-2.8834,-2.8591,-2.8062,-2.7643,-2.6926,-2.576,-2.529,-2.4739,-2.397,-2.376,-2.3674,-2.3595,-2.3595,-2.3653,-2.3717,-2.3717,-2.3797,-2.3903,-2.3903,-2.3982,-2.4124,-2.4124,-2.4166,-3.8649,-3.7974,-3.7468,-3.7078,-3.7081,-3.7303,-3.7924,-3.7179,-3.6463,-3.6743,-3.6212,-3.5886,-3.6429,-3.6524,-3.6429,-3.6128,-3.6307,-3.6334,-3.5751,-3.5521,-3.5399,-3.5399,-3.5399,-3.548,-3.5669,-3.5938,-3.6072,-3.6086,-3.6484,-3.6682,-3.6721,-3.6889,-3.7109,-3.7303,-3.7495,-3.7701,-3.7944,-3.8344,-3.8612,-3.8819,-3.9017,-3.9228,-3.9394,-3.8706,-3.8003,-3.7255,-3.6028,-3.5504,-3.5504,-3.5504,-3.5504,-3.5504,-3.5638,-3.5688,-3.572,-3.6038,-3.6179,-3.6211,-3.6429,-3.6045,-3.5414,-3.4929,-3.4275,-3.3591,-3.3123,-3.2932,-3.2897,-3.3043,-3.3096,-3.3123,-3.3256,-3.3309,-3.3309,-3.3309,-3.3309,-3.3309,-3.3309,-3.2803,-3.237,-3.2307,-3.1263,-3.0362,-3.022,-2.9643,-2.9177,-2.9114,-2.9098,-2.9052,-2.8943,-2.8834,-2.8747,-2.8636,-2.7937,-2.7164,-2.6382,-2.5671,-2.4911,-2.3997,-2.3848,-2.3739,-2.3616,-2.3595,-2.3595,-2.3595,-2.3595,-2.3674,-2.3782,-2.3782,-2.3861,-2.3982,-2.3982,-2.4046,-3.7943,-3.7099,-3.6429,-3.6354,-3.6066,-3.601,-3.6757,-3.6552,-3.6193,-3.6236,-3.598,-3.575,-3.5886,-3.59,-3.5873,-3.5791,-3.5872,-3.5778,-3.5494,-3.544,-3.5399,-3.5399,-3.5399,-3.548,-3.5669,-3.5764,-3.5858,-3.6072,-3.6325,-3.6524,-3.6682,-3.6889,-3.7109,-3.7303,-3.7495,-3.7763,-3.8127,-3.8538,-3.8833,-3.9031,-3.9228,-3.9337,-3.9394,-3.8706,-3.7764,-3.6641,-3.5848,-3.5504,-3.5504,-3.5504,-3.5504,-3.5504,-3.5522,-3.5554,-3.5554,-3.5735,-3.5926,-3.6068,-3.6211,-3.5938,-3.5491,-3.5367,-3.4488,-3.3468,-3.3529,-3.311,-3.2703,-3.2897,-3.3032,-3.3112,-3.3139,-3.3229,-3.3309,-3.3309,-3.3309,-3.3309,-3.3309,-3.3182,-3.2914,-3.2402,-3.2054,-3.1501,-3.0394,-3.0077,-2.9769,-2.9193,-2.9098,-2.9075,-2.9052,-2.892,-2.8794,-2.8771,-2.8417,-2.7904,-2.7203,-2.6436,-2.5664,-2.4948,-2.4206,-2.3797,-2.376,-2.3674,-2.3595,-2.3595,-2.3595,-2.3595,-2.3653,-2.3653,-2.3717,-2.3839,-2.3839,-2.3903,-3.7634,-3.6529,-3.5568,-3.5485,-3.4857,-3.4667,-3.6116,-3.594,-3.5557,-3.5843,-3.5804,-3.571,-3.571,-3.571,-3.571,-3.571,-3.571,-3.5642,-3.544,-3.5318,-3.5277,-3.5399,-3.5318,-3.5358,-3.5669,-3.571,-3.5764,-3.5898,-3.6192,-3.6445,-3.6563,-3.685,-3.707,-3.7148,-3.7341,-3.761,-3.7915,-3.8389,-3.876,-3.8943,-3.9265,-3.9388,-3.9394,-3.8706,-3.7853,-3.6896,-3.6252,-3.5968,-3.5953,-3.5639,-3.5504,-3.5504,-3.5504,-3.5504,-3.5537,-3.5638,-3.5831,-3.6037,-3.6148,-3.6121,-3.5953,-3.5614,-3.4983,-3.4305,-3.3743,-3.328,-3.294,-3.2796,-3.2897,-3.3032,-3.3085,-3.3203,-3.3309,-3.3309,-3.3309,-3.3309,-3.3309,-3.3309,-3.3198,-3.2835,-3.2529,-3.2054,-3.1327,-3.0647,-2.9943,-2.9209,-2.9098,-2.9098,-2.9098,-2.892,-2.8794,-2.8794,-2.8556,-2.8134,-2.7457,-2.7026,-2.6313,-2.5273,-2.4752,-2.4258,-2.3833,-2.3739,-2.3674,-2.3595,-2.3595,-2.3595,-2.3595,-2.3595,-2.3653,-2.3696,-2.3696,-2.3782,-3.7372,-3.607,-3.4911,-3.4719,-3.3979,-3.3756,-3.5629,-3.5386,-3.4965,-3.5601,-3.571,-3.571,-3.571,-3.571,-3.571,-3.571,-3.571,-3.5642,-3.544,-3.5277,-3.5195,-3.5399,-3.5236,-3.5318,-3.5669,-3.571,-3.571,-3.571,-3.6098,-3.6365,-3.6405,-3.6733,-3.6954,-3.6978,-3.7187,-3.738,-3.7625,-3.8179,-3.859,-3.8782,-3.9228,-3.9388,-3.9394,-3.8826,-3.8212,-3.7539,-3.6911,-3.6656,-3.6596,-3.5938,-3.5669,-3.5669,-3.5549,-3.5504,-3.5504,-3.5621,-3.5799,-3.5973,-3.6116,-3.6289,-3.6353,-3.583,-3.5584,-3.5245,-3.3983,-3.3506,-3.3288,-3.2709,-3.2746,-3.2924,-3.3032,-3.3176,-3.3309,-3.3309,-3.3309,-3.3309,-3.3309,-3.3309,-3.3309,-3.3309,-3.2766,-3.2291,-3.2291,-3.1137,-2.9975,-2.9367,-2.9177,-2.9098,-2.9098,-2.8928,-2.8803,-2.8794,-2.858,-2.8205,-2.7611,-2.7457,-2.6896,-2.5669,-2.5334,-2.485,-2.4079,-2.39,-2.3739,-2.3653,-2.3595,-2.3595,-2.3595,-2.3595,-2.3595,-2.3595,-2.3595,-2.3674,-3.6599,-3.5514,-3.4782,-3.4167,-3.4056,-3.4233,-3.4843,-3.491,-3.4965,-3.5601,-3.571,-3.571,-3.571,-3.571,-3.571,-3.571,-3.571,-3.5642,-3.544,-3.5399,-3.5358,-3.5399,-3.5399,-3.544,-3.5669,-3.571,-3.571,-3.571,-3.5978,-3.6206,-3.6405,-3.6642,-3.6811,-3.6978,-3.7187,-3.738,-3.7625,-3.8028,-3.8427,-3.8782,-3.9228,-3.9388,-3.9388,-3.9334,-3.8916,-3.8227,-3.7569,-3.7285,-3.724,-3.6611,-3.6357,-3.6297,-3.5729,-3.5504,-3.5504,-3.5537,-3.5636,-3.5752,-3.5958,-3.6116,-3.6258,-3.6353,-3.5953,-3.5367,-3.4597,-3.3906,-3.326,-3.261,-3.2648,-3.2897,-3.2924,-3.3096,-3.3309,-3.3309,-3.3309,-3.3309,-3.3309,-3.3309,-3.3309,-3.3309,-3.2766,-3.2291,-3.2291,-3.1137,-3.0172,-3.0077,-2.9516,-2.9098,-2.9098,-2.8982,-2.8865,-2.8818,-2.866,-2.8494,-2.8273,-2.7734,-2.7319,-2.7111,-2.5899,-2.5129,-2.5016,-2.4243,-2.3797,-2.376,-2.3674,-2.3595,-2.3595,-2.3595,-2.3595,-2.3595,-2.3595,-2.3595,-3.6072,-3.4577,-3.3762,-3.3649,-3.3221,-3.3207,-3.45,-3.4531,-3.4558,-3.5533,-3.5412,-3.5276,-3.5655,-3.571,-3.571,-3.571,-3.571,-3.5669,-3.5602,-3.548,-3.544,-3.5562,-3.548,-3.548,-3.5669,-3.571,-3.571,-3.571,-3.5938,-3.6206,-3.6405,-3.6603,-3.6786,-3.6978,-3.7109,-3.7226,-3.7419,-3.7825,-3.8352,-3.898,-3.9141,-3.9301,-3.9388,-3.9388,-3.926,-3.8931,-3.8257,-3.7958,-3.7883,-3.6896,-3.6492,-3.6417,-3.5759,-3.5504,-3.5504,-3.5504,-3.5572,-3.572,-3.5799,-3.5975,-3.6211,-3.6305,-3.6214,-3.5891,-3.4828,-3.4289,-3.3783,-3.269,-3.2648,-3.2897,-3.2897,-3.3096,-3.3309,-3.3309,-3.3309,-3.3309,-3.3309,-3.3309,-3.3309,-3.3309,-3.3056,-3.275,-3.2355,-3.1428,-3.0622,-3.0267,-2.958,-2.9098,-2.9098,-2.899,-2.8897,-2.8865,-2.8692,-2.8589,-2.8517,-2.8182,-2.7796,-2.7411,-2.678,-2.6037,-2.514,-2.4696,-2.4217,-2.3696,-2.3616,-2.3595,-2.3595,-2.3595,-2.3595,-2.3595,-2.3595,-2.3595,-3.6076,-3.4422,-3.3461,-3.3709,-3.3184,-3.2973,-3.4355,-3.4342,-3.4306,-3.5165,-3.4909,-3.4707,-3.5141,-3.5222,-3.5276,-3.5425,-3.5493,-3.5533,-3.5696,-3.5562,-3.5521,-3.5669,-3.5521,-3.548,-3.5602,-3.5507,-3.548,-3.5615,-3.5722,-3.5948,-3.6391,-3.6563,-3.6747,-3.6978,-3.6978,-3.7109,-3.7303,-3.7749,-3.8337,-3.9017,-3.9068,-3.9228,-3.9373,-3.923,-3.9155,-3.914,-3.8796,-3.8452,-3.8063,-3.7105,-3.6626,-3.6417,-3.5759,-3.5504,-3.5504,-3.5504,-3.5572,-3.5638,-3.5688,-3.5879,-3.607,-3.6148,-3.6274,-3.6168,-3.4846,-3.4431,-3.4138,-3.2726,-3.2551,-3.2773,-3.2773,-3.2989,-3.3203,-3.3203,-3.3203,-3.3229,-3.3282,-3.3309,-3.3309,-3.3309,-3.3309,-3.3135,-3.2639,-3.195,-3.1255,-3.0543,-2.9848,-2.9304,-2.913,-2.9013,-2.8943,-2.8904,-2.8771,-2.8668,-2.8597,-2.8517,-2.8229,-2.7688,-2.7488,-2.6842,-2.5598,-2.5363,-2.4895,-2.4162,-2.3976,-2.3774,-2.3595,-2.3595,-2.3595,-2.3595,-2.3595,-2.3588,-3.6935,-3.583,-3.4815,-3.4812,-3.4845,-3.4717,-3.4331,-3.439,-3.4493,-3.4334,-3.4091,-3.3962,-3.4002,-3.4002,-3.4179,-3.4748,-3.4843,-3.5032,-3.5642,-3.5669,-3.5669,-3.571,-3.5521,-3.5399,-3.5399,-3.4902,-3.4794,-3.5359,-3.5088,-3.5338,-3.6324,-3.6405,-3.6589,-3.6978,-3.6978,-3.7109,-3.7303,-3.7901,-3.8389,-3.8819,-3.9017,-3.9228,-3.9394,-3.8736,-3.8437,-3.8482,-3.9095,-3.8646,-3.7464,-3.7389,-3.7015,-3.6417,-3.5759,-3.5504,-3.5504,-3.5504,-3.5504,-3.5522,-3.5671,-3.572,-3.5752,-3.5941,-3.6085,-3.5951,-3.4606,-3.4223,-3.3947,-3.2601,-3.2315,-3.2425,-3.2425,-3.2676,-3.2924,-3.2924,-3.2924,-3.3005,-3.3256,-3.3309,-3.3309,-3.3309,-3.3309,-3.3293,-3.3245,-3.2703,-3.1991,-3.127,-3.0559,-2.988,-2.9193,-2.9075,-2.9052,-2.8904,-2.8881,-2.8803,-2.8621,-2.8597,-2.8525,-2.835,-2.775,-2.7318,-2.7094,-2.6352,-2.5864,-2.5688,-2.4942,-2.4231,-2.3595,-2.3595,-2.3595,-2.3595,-2.3595,-2.3566,-3.7417,-3.6124,-3.4906,-3.4921,-3.4581,-3.4467,-3.5153,-3.5116,-3.504,-3.5537,-3.5153,-3.4576,-3.3989,-3.3908,-3.3975,-3.4192,-3.4545,-3.487,-3.5073,-3.5479,-3.5642,-3.5521,-3.544,-3.5211,-3.4674,-3.4447,-3.4299,-3.4323,-3.4497,-3.4897,-3.5576,-3.6105,-3.651,-3.6786,-3.6915,-3.7148,-3.7495,-3.7839,-3.8217,-3.8612,-3.8797,-3.9017,-3.9199,-3.8656,-3.8167,-3.7778,-3.8018,-3.7853,-3.7375,-3.6985,-3.6686,-3.6417,-3.5759,-3.5504,-3.5504,-3.5504,-3.5504,-3.5504,-3.5539,-3.5621,-3.572,-3.5784,-3.5926,-3.581,-3.447,-3.3984,-3.3622,-3.226,-3.1894,-3.1979,-3.2107,-3.229,-3.2484,-3.2551,-3.2578,-3.2605,-3.2715,-3.2893,-3.3032,-3.3032,-3.3096,-3.3176,-3.3176,-3.2688,-3.2212,-3.1959,-3.0931,-3.0109,-2.9832,-2.9382,-2.9075,-2.9029,-2.8943,-2.885,-2.8732,-2.866,-2.8501,-2.8299,-2.8045,-2.7612,-2.6955,-2.6665,-2.6238,-2.5661,-2.539,-2.4903,-2.4231,-2.3819,-2.3595,-2.3595,-2.3595,-2.3566,-3.823,-3.6941,-3.5716,-3.569,-3.5333,-3.5157,-3.5703,-3.551,-3.5274,-3.5731,-3.5045,-3.4235,-3.3802,-3.3522,-3.3379,-3.362,-3.3987,-3.438,-3.4734,-3.5141,-3.5412,-3.5413,-3.5358,-3.5048,-3.4459,-3.402,-3.3833,-3.3882,-3.3895,-3.4304,-3.5169,-3.5749,-3.6328,-3.6772,-3.7007,-3.7264,-3.7625,-3.7815,-3.8118,-3.8478,-3.8664,-3.8694,-3.869,-3.813,-3.7545,-3.689,-3.6648,-3.6626,-3.6761,-3.6567,-3.6357,-3.6118,-3.5669,-3.5504,-3.5504,-3.5504,-3.5504,-3.5504,-3.5439,-3.5474,-3.5509,-3.5462,-3.5574,-3.5522,-3.4407,-3.3787,-3.323,-3.2108,-3.1616,-3.1437,-3.1625,-3.1824,-3.1979,-3.2092,-3.2132,-3.2176,-3.2176,-3.2468,-3.2746,-3.2784,-3.2866,-3.2973,-3.3069,-3.2798,-3.2524,-3.2339,-3.1295,-3.0433,-3.0236,-2.9564,-2.9075,-2.9052,-2.8943,-2.8842,-2.8676,-2.8589,-2.842,-2.8137,-2.8088,-2.7767,-2.7094,-2.7045,-2.6737,-2.6167,-2.592,-2.5473,-2.4804,-2.4224,-2.3812,-2.3566,-2.3566,-2.3516,0.0,0.0,0.0,-3.7254,-3.7219,-3.6955,-3.5965,-3.5511,-3.5201,-3.4781,-3.3677,-3.2847,-3.3285,-3.2745,-3.2395,-3.2979,-3.3088,-3.3509,-3.4572,-3.4748,-3.4912,-3.5319,-3.5209,-3.5005,-3.4758,-3.3674,-3.3304,-3.4073,-3.3294,-3.3466,-3.5061,-3.5402,-3.5975,-3.6964,-3.7187,-3.7419,-3.7625,-3.7801,-3.8089,-3.8449,-3.8435,-3.826,-3.7824,-3.7175,-3.6527,-3.5863,-3.5181,-3.5115,-3.5517,-3.6193,-3.6088,-3.5472,-3.5472,-3.5472,-3.5472,-3.5472,-3.5472,-3.5439,-3.5261,-3.518,-3.5148,-3.4968,-3.5001,-3.5062,-3.4377,-3.36,-3.2858,-3.2178,-3.1395,-3.0807,-3.097,-3.1219,-3.1495,-3.1495,-3.1581,-3.1682,-3.1682,-3.2064,-3.241,-3.2547,-3.2574,-3.2699,-3.3016,-3.3069,-3.2903,-3.2408,-3.1697,-3.0977,-3.0291,-2.9572,-2.9068,-2.892,-2.8881,-2.8756,-2.8436,-2.8387,-2.8275,-2.802,-2.7855,-2.774,-2.76,-2.7463,-2.7335,-2.7207,-2.6562,-2.5914,-2.5221,-2.4804,-2.4216,-2.3487,-2.3487,-2.3422,-4.0107,0.0,0.0,0.0,0.0,0.0,-3.7076,-3.6269,-3.5474,-3.5321,-3.4364,-3.3472,-3.3104,-3.2864,-3.2665,-3.2613,-3.2876,-3.321,-3.355,-3.3919,-3.4142,-3.4108,-3.4313,-3.4206,-3.3569,-3.3067,-3.2817,-3.2902,-3.2724,-3.3062,-3.4202,-3.5464,-3.6487,-3.7173,-3.7419,-3.7625,-3.7815,-3.7558,-3.7527,-3.7623,-3.7302,-3.7088,-3.6919,-3.6413,-3.6084,-3.5863,-3.5181,-3.4968,-3.5096,-3.5274,-3.523,-3.5082,-3.5082,-3.5082,-3.5082,-3.5082,-3.5082,-3.5082,-3.5001,-3.4916,-3.4831,-3.475,-3.4683,-3.4485,-3.3828,-3.3059,-3.2292,-3.1683,-3.0923,-3.0371,-3.0628,-3.0836,-3.1014,-3.1176,-3.1249,-3.1292,-3.1394,-3.1509,-3.171,-3.2079,-3.2178,-3.2247,-3.2535,-3.2672,-3.2734,-3.2739,-3.2113,-3.1393,-3.0729,-3.0031,-2.9413,-2.8873,-2.874,-2.8597,-2.8411,-2.821,-2.7999,-2.774,-2.759,-2.7437,-2.7335,-2.7284,-2.7233,-2.7207,-2.703,-2.6566,-2.5766,-2.4793,-2.3977,-2.3341,-2.3246,-2.3194,-4.0513,-3.9405,-3.8237,-3.8049,0.0,0.0,-3.7589,-3.6569,-3.5622,-3.572,-3.4739,-3.3715,-3.3172,-3.2931,-3.2688,-3.2159,-3.2469,-3.2832,-3.3071,-3.3363,-3.356,-3.3611,-3.3738,-3.3714,-3.3384,-3.2961,-3.2712,-3.2758,-3.2595,-3.2981,-3.4134,-3.5689,-3.6747,-3.7264,-3.7253,-3.7315,-3.7503,-3.7105,-3.6881,-3.6881,-3.6525,-3.6206,-3.5965,-3.5587,-3.5301,-3.5039,-3.4641,-3.4481,-3.4481,-3.4481,-3.4601,-3.4817,-3.4817,-3.4817,-3.4817,-3.4817,-3.4817,-3.4783,-3.4635,-3.4501,-3.4448,-3.4395,-3.4225,-3.4002,-3.3696,-3.2987,-3.216,-3.1611,-3.0751,-3.0021,-3.0221,-3.0447,-3.0612,-3.0732,-3.0866,-3.1014,-3.1176,-3.122,-3.1366,-3.1826,-3.1927,-3.1996,-3.2259,-3.237,-3.2508,-3.2757,-3.2166,-3.1602,-3.1275,-3.0351,-2.9546,-2.9093,-2.8687,-2.8332,-2.8088,-2.7925,-2.7725,-2.7448,-2.7325,-2.7196,-2.7119,-2.6985,-2.6893,-2.6893,-2.6855,-2.6471,-2.5756,-2.4931,-2.4045,-2.3127,-2.3015,-2.2984,-4.0792,-3.9605,-3.8448,-3.8448,-3.8107,0.0,-3.7788,-3.6704,-3.5795,-3.6044,-3.493,-3.3814,-3.3514,-3.32,-3.2777,-3.2042,-3.2201,-3.2528,-3.2896,-3.2989,-3.3122,-3.3421,-3.3297,-3.3329,-3.3688,-3.3067,-3.2791,-3.3156,-3.2766,-3.3093,-3.4513,-3.5853,-3.6791,-3.7242,-3.6892,-3.6765,-3.6929,-3.6461,-3.6199,-3.6164,-3.5899,-3.551,-3.4963,-3.4788,-3.4431,-3.3896,-3.3896,-3.3896,-3.3896,-3.3896,-3.4157,-3.4597,-3.4597,-3.4597,-3.4597,-3.4597,-3.4597,-3.4563,-3.421,-3.4059,-3.4025,-3.3917,-3.3709,-3.3605,-3.3793,-3.3166,-3.2292,-3.1707,-3.0754,-2.9876,-2.9792,-3.0038,-3.0296,-3.0296,-3.0538,-3.0821,-3.1014,-3.1087,-3.1234,-3.167,-3.1727,-3.1826,-3.2122,-3.215,-3.2247,-3.2492,-3.2025,-3.165,-3.1705,-3.0572,-2.9641,-2.9377,-2.871,-2.809,-2.7625,-2.7575,-2.7448,-2.7181,-2.7041,-2.6977,-2.6977,-2.6698,-2.651,-2.651,-2.6353,-2.5973,-2.5386,-2.5017,-2.418,-2.2946,-2.2855,-2.2826,-4.0954,-3.9862,-3.8722,-3.8722,-3.8488,0.0,-3.825,-3.7345,-3.6395,-3.6065,-3.5225,-3.4514,-3.4433,-3.4301,-3.413,-3.4039,-3.3412,-3.2732,-3.213,-3.2343,-3.2504,-3.2471,-3.2517,-3.261,-3.2691,-3.2406,-3.2302,-3.257,-3.2941,-3.3543,-3.455,-3.5464,-3.6238,-3.6792,-3.6753,-3.6624,-3.6432,-3.5865,-3.5511,-3.5321,-3.4733,-3.4327,-3.4137,-3.4102,-3.3996,-3.3896,-3.3896,-3.3896,-3.3896,-3.3709,-3.3827,-3.4068,-3.4068,-3.4068,-3.4068,-3.4068,-3.4068,-3.402,-3.3951,-3.3848,-3.3709,-3.3675,-3.3536,-3.3361,-3.3396,-3.2925,-3.2174,-3.1054,-3.0562,-3.0284,-2.9888,-2.996,-3.0158,-3.0266,-3.0477,-3.0672,-3.0821,-3.0984,-3.1161,-3.1351,-3.1409,-3.1496,-3.1826,-3.187,-3.194,-3.2094,-3.2015,-3.1741,-3.1219,-3.0902,-3.0297,-2.9205,-2.8844,-2.8389,-2.767,-2.7397,-2.7207,-2.7055,-2.691,-2.6846,-2.6846,-2.6779,-2.6686,-2.651,-2.6258,-2.584,-2.5242,-2.4265,-2.3636,-2.3369,-2.2867,-2.2698,-4.1198,-4.0238,-3.9263,-3.8887,-3.86,0.0,0.0,-3.7617,-3.6821,-3.6492,-3.5962,-3.5435,-3.5025,-3.5048,-3.4988,-3.46,-3.3891,-3.3144,-3.2462,-3.2207,-3.2028,-3.185,-3.2017,-3.2278,-3.2508,-3.2359,-3.2359,-3.2675,-3.3186,-3.3868,-3.4701,-3.5515,-3.6155,-3.6682,-3.6382,-3.6093,-3.5836,-3.5212,-3.481,-3.4603,-3.4183,-3.3902,-3.3744,-3.364,-3.3605,-3.3605,-3.3605,-3.3605,-3.3605,-3.3501,-3.3501,-3.3605,-3.3709,-3.3744,-3.3744,-3.3744,-3.3744,-3.3744,-3.364,-3.3536,-3.3466,-3.3466,-3.3312,-3.3157,-3.3276,-3.289,-3.2272,-3.164,-3.0975,-3.0445,-3.0217,-3.0109,-3.0111,-3.0189,-3.0387,-3.0642,-3.0762,-3.0895,-3.1014,-3.1248,-3.1307,-3.138,-3.1597,-3.167,-3.1727,-3.187,-3.1898,-3.1806,-3.1541,-3.1137,-3.064,-2.9962,-2.9192,-2.8468,-2.7943,-2.7462,-2.7104,-2.691,-2.6846,-2.6806,-2.6806,-2.6712,-2.6539,-2.6312,-2.6165,-2.5901,-2.5551,-2.4668,-2.4085,-2.3734,-2.3126,-2.2914,-4.169,-4.0701,-3.9698,-3.9065,-3.8658,-3.8391,0.0,0.0,0.0,-3.7171,-3.6928,-3.6537,-3.584,-3.5911,-3.5864,-3.5143,-3.4483,-3.3879,-3.3357,-3.2639,-3.204,-3.1571,-3.1624,-3.1861,-3.2283,-3.2377,-3.2603,-3.3088,-3.3496,-3.4145,-3.5031,-3.5611,-3.6179,-3.6682,-3.6045,-3.5583,-3.5407,-3.4733,-3.4312,-3.4094,-3.3951,-3.3793,-3.3605,-3.3396,-3.329,-3.329,-3.329,-3.329,-3.329,-3.329,-3.329,-3.3326,-3.3466,-3.3536,-3.3536,-3.3536,-3.3536,-3.3536,-3.3361,-3.329,-3.329,-3.329,-3.3192,-3.3108,-3.3241,-3.2974,-3.2553,-3.244,-3.1668,-3.0792,-3.0554,-3.0386,-3.0223,-3.0109,-3.0341,-3.0642,-3.0732,-3.0791,-3.0881,-3.1146,-3.1263,-3.1351,-3.1467,-3.1511,-3.1568,-3.1727,-3.1727,-3.1784,-3.1883,-3.1343,-3.091,-3.0759,-2.9675,-2.8827,-2.8438,-2.7794,-2.7295,-2.7047,-2.6878,-2.6806,-2.6806,-2.6618,-2.6392,-2.6138,-2.6111,-2.6029,-2.5893,-2.5375,-2.4787,-2.4145,-2.3504,-2.3228,-4.278,-4.1252,-3.9675,-3.9417,-3.8873,-3.8391,-3.8391,0.0,-3.8222,-3.808,0.0,-3.7905,-3.7636,0.0,0.0,-3.6974,-3.6083,-3.5276,-3.4681,-3.4065,-3.3162,-3.1763,-3.1209,-3.0959,-3.0993,-3.1861,-3.2746,-3.3578,-3.3761,-3.4409,-3.5631,-3.5442,-3.5727,-3.6668,-3.6045,-3.5583,-3.5407,-3.4733,-3.4312,-3.4094,-3.3951,-3.3793,-3.3605,-3.3396,-3.329,-3.329,-3.329,-3.329,-3.329,-3.329,-3.329,-3.329,-3.3326,-3.3326,-3.3326,-3.3326,-3.3326,-3.3326,-3.3326,-3.329,-3.329,-3.329,-3.3276,-3.3276,-3.3276,-3.3234,-3.3066,-3.2553,-3.23,-3.1935,-3.0778,-3.0697,-3.0765,-3.0223,-3.0341,-3.0598,-3.0612,-3.0732,-3.0791,-3.0851,-3.1117,-3.1351,-3.1467,-3.1511,-3.1511,-3.1539,-3.1539,-3.1539,-3.1553,-3.1465,-3.118,-3.0595,-3.0372,-2.9988,-2.9228,-2.8497,-2.801,-2.7879,-2.7178,-2.6806,-2.6806,-2.6618,-2.6445,-2.6286,-2.6165,-2.6029,-2.5893,-2.5714,-2.531,-2.4696,-2.4044,-2.3434,-4.3089,-4.1964,-4.0779,-4.0284,-3.9372,-3.8571,-3.8571,-3.8425,-3.8266,-3.8209,0.0,0.0,0.0,0.0,0.0,0.0,-3.6832,-3.5996,-3.567,-3.4729,-3.3718,-3.2749,-3.2596,-3.2517,-3.2428,-3.2716,-3.3113,-3.362,-3.3691,-3.4106,-3.4992,-3.5221,-3.556,-3.6111,-3.6239,-3.5992,-3.5407,-3.5131,-3.4674,-3.4094,-3.3951,-3.3793,-3.3605,-3.3396,-3.329,-3.329,-3.329,-3.329,-3.329,-3.329,-3.329,-3.329,-3.329,-3.329,-3.329,-3.329,-3.329,-3.329,-3.329,-3.329,-3.329,-3.329,-3.329,-3.329,-3.329,-3.329,-3.3234,-3.3002,-3.2748,-3.2455,-3.1919,-3.1468,-3.1108,-3.085,-3.0706,-3.0598,-3.0598,-3.0642,-3.0702,-3.0791,-3.091,-3.1087,-3.1351,-3.1438,-3.1511,-3.1511,-3.1511,-3.1511,-3.1511,-3.1511,-3.1391,-3.1107,-3.0746,-3.0332,-2.9911,-2.9275,-2.866,-2.8157,-2.734,-2.6873,-2.6806,-2.6712,-2.6553,-2.6299,-2.6233,-2.6111,-2.5893,-2.5839,-2.5658,-2.5297,-2.4551,-2.4057,-4.299,-4.2244,-4.147,-4.0508,-3.9645,-3.8919,-3.857,-3.8366,-3.8216,-3.8024,-3.8107,0.0,0.0,0.0,-3.8164,-3.8123,0.0,-3.6761,-3.6558,-3.5649,-3.4638,-3.3672,-3.3561,-3.359,-3.3568,-3.3602,-3.3752,-3.4041,-3.3899,-3.4177,-3.5124,-3.5074,-3.5309,-3.5953,-3.6111,-3.587,-3.5218,-3.5114,-3.4727,-3.4094,-3.4005,-3.3848,-3.3675,-3.3466,-3.3361,-3.329,-3.329,-3.329,-3.329,-3.329,-3.329,-3.329,-3.329,-3.329,-3.329,-3.329,-3.329,-3.329,-3.329,-3.329,-3.329,-3.329,-3.329,-3.329,-3.329,-3.329,-3.329,-3.329,-3.3107,-3.2829,-3.2659,-3.2188,-3.1642,-3.1298,-3.1038,-3.0816,-3.0641,-3.0598,-3.0642,-3.0732,-3.0762,-3.0881,-3.1102,-3.1322,-3.1467,-3.1511,-3.1511,-3.1511,-3.1511,-3.1511,-3.1511,-3.1511,-3.1062,-3.0735,-3.0636,-3.0041,-2.923,-2.8198,-2.7542,-2.7074,-2.682,-2.6806,-2.6674,-2.6353,-2.634,-2.6206,-2.5948,-2.5921,-2.5839,-2.5743,-2.5106,-2.468,-4.2456,-4.1827,-4.105,-3.9612,-3.9547,-3.9539,-3.82,-3.8168,-3.8223,-3.7543,-3.7596,-3.773,-3.773,-3.7992,-3.8135,-3.7934,-3.7889,0.0,0.0,-3.7103,-3.6181,-3.4212,-3.3407,-3.3157,-3.346,-3.4018,-3.4607,-3.5215,-3.465,-3.501,-3.6741,-3.5129,-3.493,-3.6596,-3.5496,-3.4853,-3.4817,-3.4355,-3.4108,-3.4094,-3.4094,-3.404,-3.3896,-3.3675,-3.3466,-3.329,-3.329,-3.329,-3.329,-3.329,-3.329,-3.329,-3.329,-3.329,-3.329,-3.329,-3.329,-3.329,-3.329,-3.329,-3.329,-3.329,-3.329,-3.329,-3.329,-3.329,-3.329,-3.329,-3.3312,-3.3157,-3.2553,-3.2628,-3.2554,-3.1293,-3.1231,-3.1322,-3.0743,-3.0598,-3.0598,-3.0598,-3.0702,-3.0791,-3.0821,-3.1087,-3.1351,-3.1467,-3.1511,-3.1511,-3.1511,-3.1511,-3.1511,-3.1511,-3.1481,-3.1466,-3.1466,-3.0726,-2.9622,-2.8096,-2.779,-2.7418,-2.6835,-2.6806,-2.6712,-2.6484,-2.6379,-2.6233,-2.6084,-2.5948,-2.5893,-2.5893,-2.5729,-2.5162,-4.2997,-4.2469,-4.1904,-4.1548,-4.0978,-4.0307,-3.9591,-3.9338,-3.8932,-3.7826,-3.7808,-3.7895,-3.7468,-3.7626,-3.7876,-3.7902,-3.7831,-3.7759,0.0,-3.7389,-3.6751,-3.5784,-3.5055,-3.4713,-3.4807,-3.4751,-3.4823,-3.5009,-3.4819,-3.4674,-3.4602,-3.477,-3.4932,-3.4987,-3.5232,-3.5282,-3.4994,-3.4708,-3.4372,-3.3985,-3.3833,-3.3744,-3.3675,-3.3501,-3.3361,-3.329,-3.329,-3.329,-3.329,-3.329,-3.329,-3.329,-3.329,-3.329,-3.329,-3.329,-3.329,-3.329,-3.329,-3.329,-3.329,-3.329,-3.329,-3.329,-3.329,-3.329,-3.329,-3.329,-3.3396,-3.3444,-3.3246,-3.3036,-3.283,-3.2514,-3.191,-3.1327,-3.1219,-3.0872,-3.0598,-3.0598,-3.0642,-3.0702,-3.0791,-3.0881,-3.1058,-3.1322,-3.1438,-3.1511,-3.1511,-3.1511,-3.1511,-3.1511,-3.1511,-3.1511,-3.1511,-3.0741,-2.9993,-2.9312,-2.8353,-2.7702,-2.7418,-2.7012,-2.6712,-2.651,-2.6379,-2.6233,-2.6084,-2.5975,-2.5893,-2.5893,-2.5839,-2.5617,-4.2313,-4.2242,-4.211,-4.1793,-4.1302,-4.0693,-3.9949,-3.9321,-3.8583,-3.7466,-3.7461,-3.7529,-3.7157,-3.7403,-3.7736,-3.7959,-3.7769,-3.7626,0.0,-3.7389,-3.7029,-3.6708,-3.6194,-3.5812,-3.5683,-3.5394,-3.5184,-3.5184,-3.491,-3.4661,-3.4409,-3.4727,-3.4894,-3.4894,-3.5331,-3.5375,-3.4888,-3.4853,-3.4447,-3.3793,-3.3709,-3.3675,-3.3605,-3.3466,-3.3361,-3.329,-3.329,-3.329,-3.329,-3.329,-3.329,-3.329,-3.329,-3.329,-3.329,-3.329,-3.329,-3.329,-3.329,-3.329,-3.329,-3.329,-3.329,-3.329,-3.329,-3.329,-3.329,-3.329,-3.3396,-3.3501,-3.3501,-3.3328,-3.3129,-3.3001,-3.2395,-3.1789,-3.1471,-3.1114,-3.0797,-3.0626,-3.0598,-3.0642,-3.0702,-3.0762,-3.091,-3.1248,-3.138,-3.1438,-3.1511,-3.1511,-3.1511,-3.1511,-3.1511,-3.1467,-3.1438,-3.0849,-3.0307,-2.9914,-2.901,-2.827,-2.7724,-2.7345,-2.6944,-2.6618,-2.6406,-2.626,-2.6179,-2.5975,-2.5893,-2.5893,-2.5893,-2.5839]},{"header":{"parameterUnit":"m.s-1","parameterCategory":1,"la1":30.6,"la2":29.2853,"lo1":-89.7004,"lo2":-87.6739,"dy":0.0162,"dx":0.0183,"nx":112,"ny":82,"refTime":"2023-05-10T00:00:00:Z","depth":0,"parameterNumber":3,"parameterNumberName":"V-component_of_WINDS"},"data":[0.0,0.0,0.0,0.0,0.0,0.0,0.0,0.0,0.0,0.0,0.0,0.0,0.0,0.0,0.0,0.0,0.0,0.0,0.0,0.0,0.0,0.0,0.0,0.0,0.0,0.0,0.0,0.0,0.0,0.0,0.0,0.0,0.0,0.0,0.0,0.0,0.0,0.0,0.0,0.0,0.0,0.0,0.0,0.0,0.0,0.0,0.0,0.0,0.0,0.0,0.0,0.0,0.0,0.0,0.0,0.0,0.0,0.0,0.0,0.0,0.0,0.0,0.0,0.0,0.0,0.0,0.0,0.0,0.0,0.0,0.0,0.0,0.0,0.0,0.0,0.0,0.0,0.0,0.0,0.0,0.0,0.0,0.0,0.0,0.0,0.0,0.0,0.0,0.0,0.0,0.3344,0.3695,0.3399,0.3027,0.275,0.1413,0.016,-0.0958,0.0,0.0,0.0,0.0,0.0,0.0,0.0,0.0,0.0,0.0,0.0,0.0,0.0,0.0,0.0,0.0,0.0,0.0,0.0,0.0,0.0,0.0,0.0,0.0,0.0,0.0,0.0,0.0,0.0,0.0,0.0,0.0,0.0,0.0,0.0,0.0,0.0,0.0,0.0,0.0,0.0,0.0,0.0,0.0,0.0,0.0,0.0,0.0,0.0,0.0,0.0,0.0,0.0,0.0,0.0,0.0,0.0,0.0,0.0,0.0,0.0,0.0,0.0,0.0,0.0,0.0,0.0,0.0,0.0,0.0,0.0,0.0,0.0,0.0,0.0,0.0,0.0,0.0,0.0,0.0,0.0,0.0,0.0,0.0,0.0,0.0,0.0,0.0,0.0,0.0,0.0,0.0,0.0,0.0,0.0,0.0,0.0,0.0,0.0,0.0,0.0,0.0,0.0,0.0,0.3723,0.3776,0.3613,0.3309,0.275,0.1739,0.0639,-0.0692,0.0,0.0,0.0,0.0,0.0,0.0,0.0,0.0,0.0,0.0,0.0,0.0,0.0,0.0,0.0,0.0,0.0,0.0,0.0,0.0,0.0,0.0,0.0,0.0,0.0,0.0,0.0,0.0,0.0,0.0,0.0,0.0,0.0,0.0,0.0,0.0,0.0,0.0,0.0,0.0,0.0,0.0,0.0,0.0,0.0,0.0,0.0,0.0,0.0,0.0,0.0,0.0,0.0,0.0,0.0,0.0,0.0,0.0,0.0,0.0,0.0,0.0,0.0,0.0,0.0,0.0,0.0,0.0,0.0,0.0,0.0,0.0,0.0,0.0,0.0,0.0,0.0,0.0,0.0,0.0,0.0,0.0,0.0,0.0,0.0,0.0,0.0,0.0,0.0,0.0,0.0,0.0,0.0,0.0,0.0,0.0,0.0,0.0,0.0,0.0,0.0,0.0,0.0,0.4479,0.462,0.4343,0.4173,0.3754,0.2971,0.1792,0.0583,-0.0577,-0.2272,0.0,0.0,0.0,0.0,0.0,0.0,0.0,0.0,0.0,0.0,0.0,0.0,0.0,0.0,0.0,0.0,0.0,0.0,0.0,0.0,0.0,0.0,0.0,0.0,0.0,0.0,0.0,0.0,0.0,0.0,0.0,0.0,0.0,0.0,0.0,0.0,0.0,0.0,0.0,0.0,0.0,0.0,0.0,0.0,0.0,0.0,0.0,0.0,0.0,0.0,0.0,0.0,0.0,0.0,0.0,0.0,0.0,0.0,0.0,0.0,0.0,0.0,0.0,0.0,0.0,0.0,0.0,0.0,0.0,0.0,0.0,0.0,0.0,0.0,0.0,0.0,0.0,0.0,0.0,0.0,0.0,0.0,0.0,0.0,0.0,0.0,0.0,0.0,0.0,0.0,0.0,0.0,0.0,0.0,0.0,0.0,0.0,0.0,0.0,0.0,0.0,0.0,0.5092,0.5304,0.486,0.4675,0.4201,0.3305,0.1955,0.074,-0.0415,-0.1918,0.0,0.0,0.0,0.0,0.0,0.0,0.0,0.0,0.0,0.0,0.0,0.0,0.0,0.0,0.0,0.0,0.0,0.0,0.0,0.0,0.0,0.0,0.0,0.0,0.0,0.0,0.0,0.0,0.0,0.0,0.0,0.0,0.0,0.0,0.0,0.0,0.0,0.0,0.0,0.0,0.0,0.0,0.0,0.0,0.0,0.0,0.0,0.0,0.0,0.0,0.0,0.0,0.0,0.0,0.0,0.0,0.0,0.0,0.0,0.0,0.0,0.0,0.0,0.0,0.0,0.0,0.0,0.0,0.0,0.0,0.0,0.0,0.0,0.0,0.0,0.0,0.0,0.0,0.0,0.0,0.0,0.0,0.0,0.0,0.0,0.0,0.0,0.0,0.0,0.0,0.0,0.0,0.0,0.0,0.0,0.0,0.0,0.0,0.0,0.0,0.0,0.0,0.5446,0.5403,0.517,0.4987,0.4538,0.3643,0.2662,0.1427,-0.0104,-0.1524,0.0,0.0,0.0,0.0,0.0,0.0,0.0,0.0,0.0,0.0,0.0,0.0,0.0,0.0,0.0,0.0,0.0,0.0,0.0,0.0,0.0,0.0,0.0,0.0,0.0,0.0,0.0,0.0,0.0,0.0,0.0,0.0,0.0,0.0,0.0,0.0,0.0,0.0,0.0,0.0,0.0,0.0,0.0,0.0,0.0,0.0,0.0,0.0,0.0,0.0,0.0,0.0,0.0,0.0,0.0,0.0,0.0,0.0,0.0,0.0,0.0,0.0,0.0,0.0,0.0,0.0,0.0,0.0,0.0,0.0,0.0,0.0,0.0,0.0,0.0,0.0,0.0,0.0,0.0,0.0,0.0,0.0,0.0,0.0,0.0,0.0,0.0,0.0,0.0,0.0,0.0,0.0,0.0,0.0,0.0,0.0,0.0,0.0,0.0,0.0,0.0,0.0,0.5962,0.6055,0.5683,0.5401,0.4848,0.3859,0.2779,0.1552,0.015,0.0,0.0,0.0,0.0,0.0,0.0,0.0,0.0,0.0,0.0,0.0,0.0,0.0,0.0,0.0,0.0,0.0,0.0,0.0,0.0,0.0,0.0,0.0,0.0,0.0,0.0,0.0,0.0,0.0,0.0,0.0,0.0,0.0,0.0,0.0,0.0,0.0,0.0,0.0,0.0,0.0,0.0,0.0,0.0,0.0,0.0,0.0,0.0,0.0,0.0,0.0,0.0,0.0,0.0,0.0,0.0,0.0,0.0,0.0,0.0,0.0,0.0,0.0,0.0,0.0,0.0,0.0,0.0,0.0,0.0,0.0,0.0,0.0,0.0,0.0,0.0,0.0,0.0,0.0,0.0,0.0,0.0,0.0,0.0,0.0,0.0,0.0,0.0,0.0,0.0,0.0,0.0,0.0,0.0,0.0,0.0,0.0,0.0,0.0,0.0,0.0,0.0,0.5828,0.6221,0.6357,0.5996,0.5688,0.513,0.4223,0.3164,0.1938,0.0638,0.0,0.0,0.0,0.0,0.0,0.0,0.0,0.0,0.0,0.0,0.0,0.0,0.0,0.0,0.0,0.0,0.0,0.0,0.0,0.0,0.0,0.0,0.0,0.0,0.0,0.0,0.0,0.0,0.0,0.0,0.0,0.0,0.0,0.0,0.0,0.0,0.0,0.0,0.0,0.0,0.0,0.0,0.0,0.0,0.0,0.0,0.0,0.0,0.0,0.0,0.0,0.0,0.0,0.0,0.0,0.0,0.0,0.0,0.0,0.0,0.0,0.0,0.0,0.0,0.0,0.0,0.0,0.0,0.0,0.0,0.0,0.0,0.0,0.0,0.0,0.0,0.0,0.0,0.0,0.0,0.0,0.0,0.0,0.0,0.0,0.0,0.0,0.0,0.0,0.0,0.0,0.0,0.0,0.0,0.0,0.0,0.0,0.0,0.0,0.0,0.0,0.0,0.6171,0.6223,0.615,0.5996,0.5691,0.5265,0.4733,0.3923,0.2854,0.0,0.0,0.0,0.0,0.0,0.0,0.0,0.0,0.0,0.0,0.0,0.0,0.0,0.0,0.0,0.0,0.0,0.0,0.0,0.0,0.0,0.0,0.0,0.0,0.0,0.0,0.0,0.0,0.0,0.0,0.0,0.0,0.0,0.0,0.0,0.0,0.0,0.0,0.0,0.0,0.0,0.0,0.0,0.0,0.0,0.0,0.0,0.0,0.0,0.0,0.0,0.0,0.0,0.0,0.0,0.0,0.0,0.0,0.0,0.0,0.0,0.0,0.0,0.0,0.0,0.0,0.0,0.0,0.0,0.0,0.0,0.0,0.0,0.0,0.0,0.0,0.0,0.0,0.0,0.0,0.0,0.0,0.0,0.0,0.0,0.0,0.0,0.0,0.0,0.0,0.0,0.0,0.0,0.0,0.0,0.0,0.0,0.0,0.0,0.0,0.0,0.0,0.0,0.6102,0.6246,0.6233,0.5883,0.5672,0.5302,0.4696,0.3954,0.3067,0.1964,0.0,0.0,0.0,0.0,0.0,0.0,0.0,0.0,0.0,0.0,0.0,0.0,0.0,0.0,0.0,0.0,0.0,0.0,0.0,0.0,0.0,0.0,0.0,0.0,0.0,0.0,0.0,0.0,0.0,0.0,0.0,0.0,0.0,0.0,0.0,0.0,0.0,0.0,0.0,0.0,0.0,0.0,0.0,0.0,0.0,0.0,0.0,0.0,0.0,0.0,0.0,0.0,0.0,0.0,0.0,0.0,0.0,0.0,0.0,0.0,0.0,0.0,0.0,0.0,0.0,0.0,0.0,0.0,0.0,0.0,0.0,0.0,0.0,0.0,0.0,0.0,0.0,0.0,0.0,0.0,0.0,0.0,0.0,0.0,0.0,0.0,0.0,0.0,0.0,0.0,0.0,0.0,0.0,0.0,0.0,0.0,0.0,0.0,0.0,0.0,0.0,0.0,0.62,0.6339,0.6313,0.608,0.5775,0.5411,0.4867,0.4262,0.3551,0.2747,0.0,0.0,0.0,0.0,0.0,0.0,0.0,0.0,0.0,0.0,0.0,0.0,0.0,0.0,0.0,0.0,0.0,0.0,0.0,0.0,0.0,0.0,0.0,0.0,0.0,0.0,0.0,0.0,0.0,0.0,0.0,0.0,0.0,0.0,0.0,0.0,0.0,0.0,0.0,0.0,0.0,0.0,0.0,0.0,0.0,0.0,0.0,0.0,0.0,0.0,0.0,0.0,0.0,0.0,0.0,0.0,0.0,0.0,0.0,0.0,0.0,0.0,0.0,0.0,0.0,0.0,0.0,0.0,0.0,0.0,0.0,0.0,0.0,0.0,0.0,0.0,0.0,0.0,0.0,0.0,0.0,0.0,0.0,0.0,0.0,0.0,0.0,0.0,0.0,0.0,0.0,0.0,0.0,0.0,0.0,0.0,0.0,0.0,0.0,0.0,0.0,0.0,0.6441,0.6482,0.6437,0.6387,0.5984,0.5536,0.524,0.4788,0.4255,0.3736,0.0,0.0,0.0,0.0,0.0,0.0,0.0,0.0,0.0,0.0,0.0,0.0,0.0,0.0,0.0,0.0,0.0,0.0,0.0,0.0,0.0,0.0,0.0,0.0,0.0,0.0,0.0,0.0,0.0,0.0,0.0,0.0,0.0,0.0,0.0,0.0,0.0,0.0,0.0,0.0,0.0,0.0,0.0,0.0,0.0,0.0,0.0,0.0,0.0,0.0,0.0,0.0,0.0,0.0,0.0,0.0,0.0,0.0,0.0,0.0,1.4232,1.4005,0.0,0.0,0.0,0.0,0.0,0.0,0.0,0.0,0.0,0.0,0.0,0.0,0.0,0.0,0.0,0.0,0.0,0.0,0.0,0.0,0.0,0.0,0.0,0.0,0.0,0.0,0.0,0.0,0.0,0.0,0.0,0.0,0.0,0.0,0.0,0.0,0.0,0.0,0.0,0.0,0.6441,0.6634,0.6639,0.6437,0.6287,0.6037,0.5536,0.5238,0.4878,0.4558,0.3738,0.0,0.0,0.0,0.0,0.0,0.0,0.0,0.0,0.0,0.0,0.0,0.0,0.0,0.0,0.0,0.0,0.0,0.0,0.0,0.0,0.0,0.0,0.0,0.0,0.0,0.0,0.0,0.0,0.0,0.0,0.0,0.0,0.0,0.0,0.0,0.0,0.0,0.0,0.0,0.0,0.0,0.0,0.0,0.0,0.0,0.0,0.0,0.0,0.0,0.0,0.0,0.0,0.0,0.0,0.0,0.0,0.0,0.0,0.0,1.5605,1.4935,0.0,0.0,0.0,0.0,0.0,0.0,0.0,0.0,0.0,0.0,0.0,0.0,0.0,0.0,0.0,0.0,0.0,0.0,0.0,0.0,0.0,0.0,0.0,0.0,0.0,0.0,0.0,0.0,0.0,0.0,0.0,0.0,0.0,0.0,0.0,0.0,0.0,0.0,0.0,0.0,0.6641,0.6735,0.6842,0.6942,0.6637,0.6284,0.5987,0.5636,0.5336,0.5186,0.465,0.0,0.0,0.0,0.0,0.0,0.0,0.0,0.0,0.0,0.0,0.0,0.0,0.0,0.0,0.0,0.0,0.0,0.0,0.0,0.0,0.0,0.0,0.0,0.0,0.0,0.0,0.0,0.0,0.0,0.0,0.0,0.0,0.0,0.0,0.0,0.0,0.0,0.0,0.0,0.0,0.0,0.0,0.0,0.0,0.0,0.0,0.0,0.0,0.0,0.0,0.0,0.0,0.0,2.0699,2.0337,2.0019,1.9379,1.872,1.8121,1.6893,1.585,1.502,1.5234,0.0,0.0,0.0,0.0,0.0,0.0,0.0,0.0,0.0,0.0,0.0,0.0,0.0,0.0,0.0,0.0,0.0,0.0,0.0,0.0,0.0,0.0,1.2045,1.2174,1.2286,1.2037,1.0773,0.0,0.0,0.0,0.0,0.0,0.0,0.0,0.0,0.0,0.0,0.0,0.7017,0.6994,0.7144,0.7596,0.7039,0.6587,0.6537,0.6087,0.5787,0.5787,0.5459,0.525,0.0,0.0,0.0,0.0,0.0,0.0,0.0,0.0,0.0,0.0,0.0,0.0,0.0,0.0,0.0,0.0,0.0,0.0,0.0,0.0,0.0,0.0,0.0,0.0,0.0,0.0,0.0,0.0,0.0,0.0,0.0,0.0,2.1987,2.2414,0.0,0.0,0.0,0.0,0.0,0.0,0.0,0.0,0.0,0.0,0.0,0.0,0.0,2.1451,2.1451,2.1451,2.1418,2.1347,2.1302,2.1024,2.0564,2.0246,1.9636,1.8831,1.8483,0.0,1.649,1.5994,0.0,0.0,0.0,0.0,0.0,0.0,0.0,0.0,0.0,0.0,0.0,0.0,0.0,0.0,0.0,0.0,0.0,0.0,0.0,0.0,0.0,0.0,1.1817,1.2469,1.2505,1.2337,1.2157,1.1386,1.0537,0.9723,0.9252,0.8776,0.0,0.0,0.0,0.0,0.0,0.0,0.7671,0.7592,0.7596,0.7892,0.7643,0.7341,0.7138,0.6839,0.6642,0.6642,0.6179,0.5782,0.5636,0.4883,0.0,0.0,0.0,0.0,0.0,0.0,0.0,0.0,0.0,0.0,0.0,0.0,0.0,0.0,0.0,0.0,0.0,0.0,0.0,0.0,0.0,0.0,0.0,0.0,0.0,0.0,0.0,0.0,0.0,2.2801,2.2726,2.3073,2.315,2.3079,0.0,0.0,0.0,0.0,0.0,0.0,0.0,0.0,0.0,2.2561,2.241,2.2217,2.1992,2.1905,2.1822,2.1794,2.1526,2.1203,2.0871,2.0464,1.9935,1.9331,1.8909,1.8142,1.7205,1.674,1.6184,1.5537,0.0,0.0,0.0,0.0,1.3581,1.3432,1.3106,1.3084,1.3145,1.2981,0.0,0.0,0.0,0.0,0.0,0.0,0.0,1.1742,1.1936,1.2334,1.2729,1.309,1.2963,1.2715,1.2443,1.2071,1.1615,1.0938,1.0357,0.9839,0.9486,0.8824,0.0,0.0,0.0,0.7736,0.8231,0.8041,0.7942,0.8187,0.7842,0.7547,0.7444,0.7191,0.7039,0.7039,0.6726,0.654,0.6429,0.5727,0.4942,0.0,0.0,0.0,0.0,0.0,0.0,0.0,0.0,0.0,0.0,0.0,0.0,0.0,0.0,0.0,0.0,0.0,0.0,0.0,0.0,0.0,0.0,0.0,0.0,0.0,0.0,0.0,0.0,2.343,2.331,2.3777,2.3855,2.3897,0.0,0.0,0.0,0.0,0.0,0.0,2.4061,2.4007,2.3832,2.3609,2.3329,2.2993,2.2495,2.2264,2.2141,2.2097,2.166,2.1329,2.0997,2.0645,2.0164,1.9571,1.9118,1.8444,1.7643,1.7169,1.646,1.5706,1.5634,1.5382,1.5055,1.4516,1.4287,1.4247,1.3695,1.3589,1.368,1.3507,1.3313,1.3139,1.2811,0.0,0.0,0.0,0.0,1.2472,1.2472,1.2923,1.3398,1.338,1.3256,1.2997,1.2582,1.2423,1.2255,1.174,1.1227,1.0806,1.0528,0.9972,0.0,0.9286,0.8882,0.8738,0.9022,0.8603,0.8386,0.8684,0.8237,0.7875,0.7842,0.7536,0.7319,0.7285,0.7046,0.693,0.6894,0.6232,0.5568,0.4851,0.0,0.0,0.0,0.0,0.0,0.0,0.0,0.0,0.0,0.0,0.0,0.0,0.0,0.0,0.0,0.0,0.0,0.0,0.0,0.0,0.0,0.0,0.0,0.0,0.0,0.0,0.0,0.0,0.0,2.4952,2.5103,0.0,0.0,0.0,0.0,2.45,2.4842,2.5083,2.5103,2.5308,2.502,2.4187,2.3879,2.345,2.2803,2.253,2.2309,2.2097,2.183,2.1454,2.0997,2.0997,2.0473,1.9587,1.9571,1.8948,1.7913,1.6983,1.653,1.6316,1.5713,1.569,1.5837,1.514,1.4856,1.4772,1.4253,1.4062,1.4062,1.4048,1.4041,1.3946,1.3441,1.3409,0.0,0.0,1.294,1.2959,1.2959,1.2991,1.3045,1.3099,1.3114,1.3007,1.2768,1.2513,1.2206,1.1539,1.1535,1.1492,1.1037,0.0,1.0594,1.045,1.001,0.9847,1.0275,0.962,0.9232,0.9529,0.9076,0.8667,0.8568,0.8066,0.7667,0.7486,0.7045,0.6745,0.6618,0.6139,0.562,0.502,0.4074,0.0,0.0,0.0,0.0,0.0,0.0,0.0,0.0,0.0,0.0,0.0,0.0,0.0,0.0,0.0,0.0,0.0,0.0,0.0,0.0,0.0,0.0,0.0,0.0,0.0,0.0,0.0,0.0,2.5655,2.5637,0.0,2.5772,2.5821,2.5772,2.561,2.565,2.5659,2.5659,2.5411,2.5177,2.4866,2.4161,2.3676,2.3431,2.2928,2.253,2.2309,2.2052,2.1642,2.0997,2.0997,2.051,1.9587,1.9587,1.9101,1.8263,1.7751,1.7056,1.6276,1.5778,1.5505,1.5369,1.4781,1.4569,1.4513,1.4206,1.4088,1.4088,1.4088,1.3955,1.374,1.3551,1.3418,1.3338,1.3193,1.3251,1.3395,1.3395,1.3409,1.3403,1.333,1.3175,1.2985,1.259,1.2539,1.2422,1.1893,1.1751,1.1635,1.1492,1.1481,1.1462,1.1252,1.1187,1.1157,1.0939,1.0364,0.9874,0.9704,0.9348,0.8987,0.8627,0.8328,0.8026,0.7785,0.7409,0.7152,0.7096,0.6551,0.5952,0.5398,0.4607,0.3909,0.0,0.0,0.0,0.0,0.0,0.0,0.0,0.0,0.0,0.0,0.0,0.0,0.0,0.0,0.0,0.0,0.0,0.0,0.0,0.0,0.0,0.0,0.0,0.0,0.0,2.5771,2.5917,2.6786,2.6475,2.6329,2.6625,2.6531,2.645,2.645,2.6345,2.6322,2.6468,2.5946,2.5561,2.541,2.4651,2.4082,2.3789,2.3283,2.2805,2.2397,2.2185,2.1731,2.0997,2.0997,2.051,1.9716,1.9633,1.9258,1.8735,1.8323,1.7617,1.6679,1.5987,1.5511,1.519,1.4608,1.4398,1.4356,1.4166,1.4088,1.4088,1.4088,1.3955,1.3753,1.3753,1.3661,1.3507,1.3507,1.3641,1.3753,1.3753,1.3809,1.3779,1.3568,1.3355,1.3094,1.2711,1.2634,1.2473,1.2082,1.1998,1.1997,1.1951,1.2085,1.2145,1.1911,1.2014,1.1935,1.1428,1.0902,1.043,0.9987,0.9686,0.9331,0.8918,0.8625,0.8371,0.8131,0.7758,0.7521,0.7434,0.684,0.6283,0.5723,0.4901,0.4207,0.3613,0.0,0.0,0.0,0.0,0.0,0.0,0.0,0.0,0.0,0.0,0.0,0.0,0.0,0.0,0.0,0.0,0.0,0.0,0.0,0.0,0.0,0.0,0.0,2.7006,2.7027,2.7372,2.8265,2.7568,2.7027,2.7027,2.7027,2.7027,2.7027,2.7027,2.7226,2.7563,2.6928,2.6295,2.5816,2.5362,2.4715,2.3838,2.3574,2.3073,2.2416,2.223,2.1731,2.0997,2.0997,2.06,1.9891,1.9671,1.9433,1.9142,1.8705,1.8179,1.7529,1.638,1.5784,1.5483,1.4698,1.4405,1.4356,1.4166,1.413,1.413,1.413,1.413,1.413,1.413,1.4088,1.4088,1.4088,1.4088,1.4088,1.4088,1.4088,1.4046,1.3779,1.3568,1.3355,1.3137,1.2753,1.2329,1.2076,1.2374,1.2643,1.241,1.2552,1.2603,1.2421,1.2412,0.0,1.1732,1.1251,1.0783,1.0514,1.008,0.9732,0.9498,0.907,0.8718,0.8588,0.8145,0.7753,0.7492,0.7048,0.6493,0.5881,0.497,0.4152,0.3437,0.0,0.0,0.0,0.0,0.0,0.0,0.0,0.0,0.0,0.0,0.0,0.0,0.0,0.0,0.0,0.0,0.0,0.0,0.0,0.0,0.0,2.8567,2.8768,2.8131,2.7839,2.7802,2.8074,2.7689,2.7453,2.7453,2.7453,2.7453,2.7453,2.763,2.7683,2.7573,2.7251,2.6819,2.6315,2.571,2.5196,2.4763,2.4056,2.3416,2.2886,2.2494,2.1856,2.0997,2.0997,2.06,1.9882,1.9845,1.9563,1.9188,1.9058,1.8688,1.8149,1.7071,1.6081,1.5282,1.489,1.4511,1.4208,1.4279,1.4321,1.4321,1.4489,1.4447,1.4321,1.4321,1.4201,1.4088,1.4088,1.4088,1.4088,1.4088,1.4088,1.4046,1.3779,1.3652,1.3568,1.3349,1.3222,1.2971,1.2527,1.2703,1.2626,1.1676,1.188,1.2128,1.1866,1.2093,1.2103,1.1509,1.1287,1.0975,1.0394,1.0245,0.9943,0.9391,0.9078,0.8678,0.8204,0.7869,0.7579,0.7372,0.695,0.6376,0.5621,0.5117,0.4698,0.0,0.0,0.0,0.0,0.0,0.0,0.0,0.0,0.0,0.0,0.0,0.0,0.0,0.0,0.0,0.0,0.0,0.0,0.0,0.0,0.0,0.0,2.9285,2.9489,2.9207,2.8935,2.881,2.881,2.8408,2.8102,2.8102,2.8008,2.7925,2.7925,2.8102,2.8102,2.7914,2.7547,2.7167,2.6832,2.6149,2.5587,2.5267,2.4663,2.3922,2.3112,2.282,2.2165,2.115,2.115,2.0835,2.0246,2.011,1.9837,1.9471,1.9279,1.8966,1.8527,0.0,0.0,0.0,0.0,1.4598,1.437,1.4489,1.4524,1.4524,1.465,1.4608,1.4524,1.444,1.4321,1.4201,1.4124,1.4088,1.4088,1.4088,1.4166,1.4201,1.4026,1.3977,1.3977,1.3851,1.3737,1.3529,1.2952,1.2996,0.0,1.1838,1.1976,1.2149,1.1899,1.2082,1.2043,1.1478,1.1302,1.1101,1.0611,1.0383,1.0079,0.9704,0.9368,0.0,0.0,0.0,0.7975,0.7563,0.7129,0.0,0.0,0.0,0.5359,0.5162,0.4895,0.0,0.0,0.2794,0.2321,0.0,0.0,0.0,0.0,0.0,0.0,0.0,0.0,0.0,0.0,0.0,0.0,0.0,0.0,0.0,0.0,2.9602,2.9499,3.0113,3.0057,2.9931,2.9886,2.9277,2.8803,2.8803,2.8571,2.8441,2.8395,2.8441,2.8441,2.8395,2.7736,0.0,0.0,0.0,2.597,2.5583,2.5287,2.4472,2.3224,2.3186,2.2533,2.1437,2.1437,2.1159,2.0736,2.0473,2.0201,1.9928,1.9471,1.9104,1.8742,1.7848,1.7071,1.6294,1.5177,1.4741,1.4741,1.4741,0.0,0.0,1.4783,1.4776,1.4692,1.4524,1.4482,1.4398,1.4208,1.4173,1.4173,1.4173,1.4286,1.444,1.444,1.4482,1.4482,1.4482,1.4342,1.4034,1.3453,1.3311,1.3108,1.2547,1.2471,1.2424,1.2226,1.2184,1.2008,1.1575,1.1334,1.1141,1.0895,1.0512,0.0,1.019,0.9873,0.9549,0.9297,0.9013,0.8562,0.7951,0.744,0.7041,0.6756,0.6407,0.6128,0.5885,0.5563,0.5178,0.4735,0.3798,0.303,0.0,0.0,0.0,0.0,0.0,0.0,0.0,0.0,0.0,0.0,0.0,0.0,0.0,0.0,0.0,3.0407,3.0226,3.0067,3.0159,3.017,3.0091,2.9931,2.937,2.8989,2.8803,2.8757,2.8617,2.8395,2.8617,2.8617,2.8395,2.8055,2.7668,2.7309,2.6938,2.6504,2.5972,2.5625,2.4908,2.3883,2.3537,0.0,2.1651,2.1651,2.1374,2.0907,2.0736,2.0473,2.0201,1.9882,1.9517,1.8985,1.746,1.678,1.6514,1.5403,1.4999,1.4999,1.4999,1.4999,1.5041,1.5215,1.5131,1.4999,1.4999,1.4824,0.0,1.4573,1.4573,1.4573,1.4573,1.4608,1.465,1.465,1.4824,1.4957,1.4957,1.4848,1.4636,1.4248,1.3968,1.3674,1.3338,1.2739,1.2329,1.2285,1.2143,1.1967,1.1684,1.15,1.1202,1.0857,1.0737,1.0547,1.0242,0.998,0.9678,0.9332,0.8792,0.8362,0.8056,0.7824,0.7494,0.7111,0.7037,0.6804,0.645,0.6211,0.5803,0.5165,0.4171,0.3471,0.0,0.0,0.0,0.0,0.0,0.0,0.0,0.0,0.0,0.0,0.0,3.105,3.1085,0.0,3.1026,3.0668,3.0487,3.0352,3.0216,3.0445,3.0468,3.008,2.9737,2.9462,2.937,2.9128,2.8896,2.8757,2.8757,2.8757,2.8617,2.8337,2.8055,2.7668,2.7309,2.689,2.6496,2.6036,2.5413,2.4606,2.4031,2.3288,2.2395,2.2056,2.1687,2.132,2.115,2.0835,2.0473,2.0065,1.9608,1.9069,1.7924,1.7306,1.6967,1.5953,1.5499,1.5409,1.5409,1.5333,1.5298,1.5499,1.5423,1.5257,1.5242,1.5075,1.4866,1.4734,1.4692,1.4692,1.4692,1.4783,1.495,1.5026,1.5242,1.5458,1.559,1.5413,1.5165,1.4829,1.4493,1.4164,1.3835,1.3477,1.3112,1.2783,1.2562,1.2378,1.2187,1.1966,1.1744,1.1446,1.1298,1.1149,1.0812,1.0438,1.003,0.962,0.9241,0.8899,0.8713,0.8399,0.8169,0.7944,0.7437,0.7094,0.6901,0.6411,0.599,0.5644,0.4786,0.4072,0.0,0.0,0.0,0.0,0.0,0.0,0.0,3.2769,3.2634,3.2254,3.2283,3.2253,3.1913,3.1761,3.1484,3.0847,3.0713,3.0578,3.0306,3.0629,3.0744,3.0273,3.0148,3.0045,2.9897,2.9462,2.9174,2.9082,2.8896,2.8803,2.8803,2.8535,2.829,2.8092,2.7631,2.7214,2.6996,2.6496,2.5882,2.5163,2.4623,2.3965,2.3148,2.2591,2.2127,2.1785,2.1472,2.1069,2.0654,2.011,1.97,1.926,1.855,1.8012,1.7534,1.6499,1.6038,1.5816,1.5775,1.5665,1.5548,1.5748,1.5665,1.5548,1.5533,1.5409,1.5249,1.5033,1.4985,1.4985,1.4985,1.5124,1.534,1.5484,1.5692,1.5884,1.6044,1.5842,1.5535,1.5196,1.4857,1.4525,1.4248,1.4201,1.4021,1.3448,1.3193,1.301,1.2863,1.2673,1.2452,1.2268,1.204,1.1781,1.1484,1.0952,1.0482,1.0039,0.9771,0.9526,0.9302,0.8923,0.8693,0.8581,0.776,0.7318,0.7208,0.6504,0.6134,0.6064,0.5448,0.4739,3.2471,3.2233,3.2124,3.2739,3.3261,3.3615,0.0,3.3193,3.2931,3.3166,3.2701,3.2254,3.2289,3.1981,3.1617,3.1261,3.105,3.0871,3.0578,3.0624,3.0545,3.0227,3.0595,3.0617,2.9977,2.9634,2.9359,2.9128,2.8896,2.8803,2.8803,2.8535,2.8395,2.8348,2.7831,2.7452,2.7262,2.6938,2.6333,2.5456,2.536,2.4663,2.3374,2.3281,2.2837,2.2008,2.132,2.0916,2.0654,2.011,1.9882,1.9716,1.8806,1.8308,1.7975,1.6784,1.6353,1.6312,1.6121,1.6046,1.6046,1.6046,1.6046,1.6004,1.6004,1.6004,1.5963,1.5963,1.5922,1.5922,1.5922,1.5963,1.6004,1.6004,1.6203,1.6234,1.5988,1.5803,1.5604,1.5271,1.4877,1.4581,1.4541,1.4533,1.4418,1.4057,1.3819,1.3681,1.3681,1.3492,1.3309,1.3083,1.29,1.2489,1.1744,1.1375,1.0942,1.0369,0.9946,0.9539,0.9216,0.9004,0.8613,0.8075,0.798,0.7686,0.7187,0.6941,0.6618,0.6262,0.602,0.5433,3.2762,3.2994,3.3511,3.3731,3.4416,3.509,3.509,3.4564,3.41,3.4217,3.3564,3.2865,3.2815,3.2506,3.2101,3.1617,3.1451,3.1229,3.0668,3.089,3.0801,3.0091,3.0456,3.0558,3.0102,2.9874,2.9691,2.9554,2.9174,2.8989,2.8989,2.8757,2.8581,2.8395,2.8055,2.7726,2.7499,2.7081,2.6703,2.632,2.5774,2.5036,2.4196,2.3661,2.2919,2.2052,2.1597,2.1186,2.0871,2.0518,2.0201,1.9815,1.8981,1.8568,1.8261,1.7192,1.664,1.6394,1.6319,1.6203,1.6128,1.6245,1.6203,1.6128,1.6245,1.6203,1.6087,1.6087,1.6087,1.6087,1.6087,1.6087,1.6128,1.6245,1.6172,1.6115,1.6086,1.57,1.5386,1.5213,1.4887,1.4641,1.4756,1.4756,1.4784,1.474,1.4389,1.4145,1.4145,1.4072,1.3956,1.3739,1.3448,1.2939,1.2166,1.2002,1.1578,1.0707,1.0346,1.0008,0.9666,0.9276,0.896,0.8709,0.8235,0.7866,0.7559,0.7242,0.6859,0.6476,0.6255,0.5902,3.3548,3.3901,3.4476,3.4789,3.5495,3.6109,3.6109,3.5652,3.5154,3.4956,3.4337,3.3674,3.3192,3.2939,3.2593,3.1981,3.1849,3.1572,3.0982,3.1142,3.0985,3.0194,3.0319,3.0399,3.0125,2.9829,2.9703,2.9703,2.9277,2.9035,2.9035,2.8896,2.871,2.8535,2.8243,2.7998,2.7726,2.7309,2.7044,2.69,2.6232,2.5488,2.4782,2.3722,2.2859,2.2176,2.183,2.1463,2.1096,2.0871,2.051,2.0042,1.9287,1.8818,1.8476,1.7606,1.6968,1.6599,1.6599,1.6443,1.6286,1.6443,1.6443,1.6409,1.6566,1.6484,1.6368,1.6368,1.6335,1.6294,1.6368,1.6368,1.6386,1.6481,1.6308,1.6127,1.6038,1.5645,1.5298,1.5136,1.4932,1.482,1.4963,1.4963,1.5034,1.5169,1.4883,1.4605,1.4605,1.4605,1.4533,1.4274,1.3992,1.3504,1.2713,1.2564,1.2068,1.1044,1.0717,1.0408,1.0008,0.9525,0.9246,0.9149,0.8474,0.8057,0.7894,0.7481,0.7144,0.684,0.6542,0.6262,3.4933,3.4816,3.4672,3.577,3.607,3.6109,3.6109,3.6083,3.5839,3.5077,3.4874,3.4478,3.3298,3.3068,3.2952,3.2487,3.2169,3.1893,3.1705,3.1297,3.0894,3.0623,3.0363,3.0102,2.9931,2.9416,2.9128,2.9128,2.8943,2.8803,2.8803,2.8803,2.8803,2.8803,2.8535,2.8243,2.7998,2.7726,2.7357,2.69,2.689,2.6118,2.4772,2.3421,2.2681,2.2353,2.1909,2.1562,2.1347,2.1096,2.0871,2.0621,1.98,1.9204,1.8699,1.7977,1.7416,1.7098,1.7098,1.6894,1.6697,1.6689,1.6853,1.7049,1.7098,1.7049,1.7057,1.7057,1.6894,1.673,1.7017,1.7057,1.7009,1.685,1.6799,1.6554,1.5715,1.5618,1.554,1.5024,1.5078,1.5169,1.5204,1.5204,1.5196,1.5204,1.5204,1.5169,1.5169,1.5169,1.5026,1.4641,1.4569,1.4221,1.3362,1.2964,1.2401,1.1516,1.1056,1.0543,1.0008,0.9676,0.9323,0.9007,0.8657,0.8387,0.8182,0.7727,0.7498,0.747,0.6865,0.6478,3.4813,3.5344,3.5937,3.6326,3.6863,3.7299,3.7299,3.6985,3.6496,3.5809,3.5604,3.5231,3.4288,3.3982,3.3721,3.3226,3.2665,3.2113,3.1749,3.1395,3.0994,3.0397,3.0261,3.0034,2.968,2.9646,2.9554,2.9393,2.9301,2.9255,2.9255,2.9128,2.8989,2.8989,2.8628,2.829,2.7998,2.7726,2.7452,2.7167,2.6382,2.5609,2.4772,2.3723,2.3067,2.2662,2.2309,2.1954,2.1562,2.1338,2.1105,2.0836,2.0025,1.9504,1.9204,1.8437,1.7861,1.7497,1.7343,1.7229,1.7147,1.7147,1.7229,1.731,1.731,1.731,1.731,1.731,1.7229,1.7188,1.727,1.731,1.7212,1.6882,1.6618,1.6313,1.5745,1.5486,1.5317,1.5122,1.5133,1.5275,1.5541,1.5497,1.5497,1.5771,1.5674,1.5541,1.5426,1.5541,1.5505,1.5213,1.5062,1.4649,1.3755,1.3455,1.2912,1.1948,1.143,1.1028,1.0744,1.0136,0.9786,0.9664,0.9242,0.8888,0.8603,0.8312,0.7917,0.7493,0.7296,0.6961,3.5186,3.5846,3.6586,3.6839,3.7325,3.7756,3.7625,3.7286,3.6776,3.5979,3.5835,3.5634,3.4743,3.4479,3.4261,3.372,3.2996,3.2388,3.1981,3.1673,3.1288,3.0912,3.072,3.0572,3.0338,3.0202,2.9929,2.9416,2.9359,2.9359,2.9359,2.9255,2.922,2.9082,2.8814,2.8477,2.8149,2.7857,2.7584,2.7299,2.6121,2.5417,2.5057,2.3988,2.3276,2.2882,2.2662,2.2264,2.183,2.1696,2.1382,2.0864,2.0187,1.9722,1.9342,1.8719,1.8273,1.791,1.7627,1.7473,1.7392,1.7392,1.7432,1.7505,1.7505,1.7505,1.7505,1.7505,1.7473,1.7432,1.7514,1.7454,1.7334,1.7035,1.6712,1.6378,1.5926,1.5692,1.5594,1.5524,1.5559,1.5665,1.5929,1.5859,1.5885,1.6132,1.6105,1.5991,1.5823,1.5894,1.5894,1.5718,1.5603,1.5124,1.4156,1.3958,1.3461,1.2414,1.1903,1.1591,1.1466,1.0776,1.0364,1.0301,0.9786,0.937,0.9049,0.8797,0.8409,0.7852,0.7722,0.7395,3.5942,3.6263,3.6488,3.7232,3.742,3.7357,3.7,3.6914,3.6601,3.5478,3.5713,3.5804,3.4825,3.4661,3.4512,3.4073,3.3264,3.2674,3.2481,3.1994,3.1821,3.2065,3.169,3.1542,3.1815,3.1118,3.0244,2.9241,2.9139,2.9128,2.9128,2.9393,2.9393,2.9128,2.9128,2.885,2.8395,2.8139,2.7773,2.7299,2.6167,2.5609,2.5533,2.4175,2.3363,2.3101,2.2882,2.2539,2.2141,2.2097,2.1625,2.0786,2.0388,1.9814,1.9165,1.8833,1.8612,1.8353,1.7902,1.7627,1.7432,1.7432,1.7546,1.774,1.774,1.774,1.774,1.774,1.7587,1.7514,1.77,1.7581,1.7394,1.7252,1.7054,1.674,1.621,1.6202,1.6272,1.6132,1.6202,1.6307,1.6307,1.6351,1.6342,1.6342,1.6508,1.6577,1.6342,1.6307,1.6272,1.6132,1.6079,1.5627,1.4529,1.442,1.3938,1.2907,1.2521,1.2274,1.2151,1.1498,1.1059,1.0863,1.0333,0.9881,0.955,0.9204,0.8861,0.8511,0.8182,0.7852,3.5146,3.5839,3.6536,3.6361,3.6435,3.6476,3.6,3.5871,3.5664,3.4925,3.5543,3.5968,3.5118,3.5289,3.5466,3.5127,3.4088,3.3244,3.3034,3.2381,3.1954,3.2065,3.1999,3.1971,3.2029,3.1675,3.1152,3.0266,2.9894,2.9703,2.9703,2.9748,2.9691,2.9393,2.922,2.885,2.8395,2.7914,2.7631,2.7536,2.6376,2.577,2.5578,2.4483,2.3807,2.3363,2.3144,2.2882,2.2627,2.2397,2.1933,2.1296,2.0889,2.0232,1.9452,1.9066,1.8812,1.8612,1.8491,1.8161,1.7838,1.7838,1.787,1.791,1.791,1.791,1.791,1.791,1.8031,1.8161,1.8193,1.8066,1.7837,1.7497,1.7174,1.6767,1.6351,1.6272,1.6272,1.6272,1.6403,1.6473,1.6342,1.6682,1.6925,1.676,1.7047,1.7047,1.6377,1.6438,1.6438,1.6272,1.5973,1.556,1.5029,1.4498,1.3939,1.3363,1.292,1.2652,1.2621,1.212,1.1809,1.1778,1.1153,1.0611,1.0231,0.9792,0.9344,0.8861,0.8544,0.8182,3.4433,3.504,3.5722,3.5739,3.5765,3.5705,3.5507,3.5474,3.5353,3.5032,3.566,3.614,3.5562,3.5694,3.5717,3.5228,3.4327,3.3456,3.2924,3.2453,3.2273,3.2582,3.254,3.264,3.3052,3.2587,3.2012,3.1294,3.0615,3.0113,2.9908,2.9977,2.992,2.9691,2.9405,2.8989,2.8395,2.8113,2.7772,2.7467,2.6511,2.5927,2.5585,2.461,2.4077,2.3807,2.3406,2.3144,2.2916,2.2471,2.1921,2.1325,2.0921,2.0294,1.9582,1.9363,1.9082,1.8812,1.8812,1.8603,1.8282,1.8201,1.8201,1.8201,1.8201,1.8241,1.8331,1.8331,1.8402,1.8531,1.8531,1.8266,1.7892,1.7678,1.726,1.6856,1.6736,1.6682,1.6726,1.6795,1.6934,1.6968,1.6839,1.7107,1.7279,1.7185,1.7367,1.7332,1.6874,1.6934,1.6968,1.6839,1.6397,1.593,1.5476,1.4826,1.4241,1.3757,1.3338,1.3094,1.3094,1.2644,1.2344,1.2182,1.1747,1.1279,1.0769,1.0498,1.0047,0.9434,0.9189,0.8802,3.3777,3.4144,3.4475,3.509,3.5067,3.4939,3.5149,3.5194,3.5207,3.5283,3.5788,3.6139,3.5877,3.5864,3.562,3.5047,3.4412,3.367,3.2758,3.2548,3.2678,3.3114,3.299,3.3185,3.4087,3.3429,3.266,3.2053,3.1179,3.0489,2.9965,3.0091,3.0091,2.984,2.9588,2.9128,2.8441,2.8395,2.8064,2.7317,2.6668,2.6059,2.5586,2.4704,2.4249,2.4163,2.3721,2.3406,2.3115,2.2481,2.1834,2.1176,2.0809,2.024,1.9636,1.9636,1.9399,1.9082,1.9082,1.8922,1.87,1.8523,1.8442,1.8442,1.8442,1.8571,1.87,1.874,1.8772,1.8772,1.882,1.8377,1.7914,1.7914,1.745,1.7038,1.7235,1.7304,1.7348,1.7529,1.7573,1.7573,1.7573,1.7573,1.7608,1.7608,1.7608,1.7642,1.7608,1.7539,1.7486,1.7419,1.6906,1.6318,1.5739,1.5186,1.4619,1.4088,1.3752,1.3571,1.3571,1.3164,1.2767,1.2459,1.2305,1.1903,1.1247,1.1216,1.0839,1.0142,0.9958,0.9542,3.331,3.3699,3.4024,3.3903,3.3787,3.3858,3.4092,3.418,3.4306,3.4715,3.5256,3.5634,3.56,3.5588,3.5701,3.6065,3.524,3.4357,3.3794,3.3322,3.2959,3.2656,3.2589,3.2737,3.3113,3.2995,3.2535,3.1588,3.1379,3.0963,3.0205,3.017,2.9988,2.9588,2.9312,2.9035,2.871,2.8488,2.8157,2.7627,2.6883,2.6237,2.5586,2.5038,2.4572,2.4163,2.3894,2.3624,2.3377,2.2728,2.2036,2.1416,2.1003,2.0431,1.9863,1.9863,1.9715,1.9478,1.9478,1.925,1.8922,1.8692,1.866,1.866,1.866,1.866,1.874,1.8891,1.9073,1.9231,1.9399,1.8983,1.8535,1.8535,1.7951,1.7426,1.7579,1.7759,1.7872,1.7906,1.7906,1.7906,1.7906,1.8042,1.8168,1.8168,1.8245,1.8279,1.8178,1.7769,1.7338,1.6954,1.6529,1.6103,1.5656,1.4969,1.4522,1.4419,1.4091,1.3911,1.3911,1.3739,1.3519,1.3299,1.3011,1.2613,1.2089,1.1809,1.1397,1.0902,1.0428,0.9989,3.2767,3.2906,3.2971,3.313,3.3022,3.3093,3.3809,3.4068,3.4395,3.5185,3.5699,3.5968,3.5968,3.5683,3.5583,3.5893,3.5253,3.4445,3.3695,3.3347,3.3032,3.2548,3.2503,3.2661,3.305,3.2958,3.2592,3.1818,3.1633,3.1181,3.0239,3.0216,3.0034,2.9737,2.96,2.9324,2.8943,2.885,2.8351,2.7475,2.7024,2.6375,2.5583,2.5094,2.4786,2.4529,2.4196,2.3937,2.38,2.2874,2.229,2.1952,2.1292,2.0791,2.0401,2.0401,2.0216,1.9951,1.9951,1.9754,1.9429,1.9359,1.9121,1.8891,1.8962,1.9091,1.925,1.9597,1.9745,1.9863,2.0059,1.9592,1.9022,1.9022,1.8447,1.793,1.7988,1.8236,1.8414,1.8414,1.8506,1.8573,1.8573,1.864,1.8674,1.8573,1.8607,1.8617,1.8438,1.798,1.7574,1.7162,1.6725,1.6283,1.589,1.5257,1.4872,1.4872,1.4538,1.4359,1.4359,1.413,1.392,1.3761,1.3519,1.3164,1.2674,1.249,1.2151,1.1622,1.1146,1.0643,3.2238,3.2143,3.2047,3.2504,3.2487,3.2626,3.3752,3.4148,3.4594,3.5685,3.6146,3.6323,3.6323,3.5871,3.5533,3.5658,3.5174,3.4487,3.3535,3.3326,3.306,3.2391,3.2322,3.2478,3.2899,3.2751,3.2434,3.1948,3.1685,3.119,3.0329,3.0216,3.0091,2.9886,2.9886,2.9657,2.9174,2.9128,2.8549,2.7557,2.7226,2.6606,2.571,2.5253,2.4999,2.4861,2.4454,2.4249,2.4102,2.3079,2.2613,2.2483,2.1736,2.1247,2.1031,2.1031,2.076,2.0411,2.0411,2.0255,2.0059,2.0059,1.9666,1.9231,1.946,1.9627,1.9833,2.0303,2.0459,2.0537,2.0722,2.0264,1.9677,1.9443,1.8949,1.8506,1.8506,1.8774,1.8975,1.8975,1.9108,1.9208,1.9208,1.9208,1.9142,1.9008,1.8975,1.8908,1.8684,1.8299,1.7888,1.7506,1.6973,1.6509,1.6087,1.5605,1.5303,1.5303,1.502,1.4854,1.4854,1.4567,1.4339,1.4219,1.407,1.3731,1.3224,1.3224,1.2889,1.2274,1.1895,1.1358,3.191,3.1741,3.1773,3.201,3.2074,3.2361,3.3719,3.401,3.4364,3.5399,3.586,3.6063,3.6063,3.5744,3.5658,3.6207,3.5656,3.4876,3.4065,3.3729,3.3101,3.1898,3.1789,3.1801,3.1849,3.1817,3.1704,3.1377,3.1177,3.0929,3.0578,3.0352,3.0091,2.9886,2.9886,2.9737,2.9485,2.922,2.8816,2.8275,2.7612,2.6922,2.6206,2.5764,2.5295,2.4861,2.4583,2.4378,2.4122,2.3422,2.2968,2.2717,2.2268,2.183,2.1425,2.1425,2.1185,2.0828,2.0828,2.0712,2.0527,2.0527,2.0216,1.9863,2.0147,2.0225,2.0303,2.0712,2.0992,2.1167,2.1349,2.122,2.0793,1.9947,1.9471,1.9218,1.9218,1.9374,1.955,1.955,1.9539,1.9539,1.9539,1.9539,1.9539,1.9539,1.955,1.944,1.9252,1.8812,1.8322,1.774,1.6961,1.6357,1.5956,1.576,1.5643,1.5643,1.5449,1.5323,1.5323,1.5196,1.5039,1.4911,1.4715,1.4389,1.392,1.392,1.3558,1.2928,1.2574,1.205,3.1862,3.1705,3.1705,3.1805,3.1805,3.2128,3.3308,3.3689,3.4074,3.5148,3.5716,3.6015,3.6015,3.5615,3.551,3.6058,3.5496,3.4671,3.3876,3.3664,3.3138,3.1837,3.1961,3.2166,3.2166,3.2166,3.1977,3.1552,3.1318,3.1128,3.1038,3.0668,3.0306,3.0091,3.0091,2.9954,2.9737,2.9451,2.9011,2.8387,2.7929,2.727,2.6444,2.6174,2.5754,2.5295,2.4914,2.47,2.4584,2.4053,2.3826,2.377,2.3166,2.2833,2.267,2.2357,2.1987,2.1634,2.1634,2.1492,2.13,2.13,2.1185,2.1031,2.0886,2.0858,2.0964,2.1492,2.1683,2.1807,2.1987,2.1565,2.0923,2.026,1.9788,1.9473,1.9473,1.9638,1.9769,1.9769,1.9846,1.9911,1.9911,1.9911,1.9878,1.9802,1.9769,1.9736,1.9671,1.8977,1.8434,1.8303,1.7476,1.6751,1.6366,1.6267,1.6239,1.6239,1.6056,1.5941,1.5941,1.5739,1.5594,1.5536,1.5196,1.4872,1.4616,1.4478,1.4151,1.3588,1.3246,1.2803,3.1865,3.1705,3.1705,3.1705,3.1837,3.2199,3.308,3.3532,3.3976,3.4884,3.5524,3.5872,3.5872,3.5645,3.5568,3.5953,3.526,3.4487,3.3922,3.3647,3.3167,3.2283,3.2491,3.2743,3.2743,3.2599,3.2262,3.1753,3.1528,3.1395,3.1306,3.0982,3.0668,3.0352,3.0261,3.0136,2.9966,2.9726,2.9317,2.8744,2.8328,2.7731,2.6998,2.6617,2.6259,2.5881,2.5402,2.5168,2.5052,2.4651,2.4595,2.468,2.4144,2.3905,2.3825,2.3308,2.287,2.248,2.2342,2.2138,2.1997,2.1997,2.1997,2.1959,2.1693,2.154,2.1589,2.2063,2.2214,2.2327,2.2515,2.1867,2.1086,2.0743,2.0186,1.9747,1.9747,1.9878,1.9976,1.9976,2.0042,2.0118,2.0118,2.0118,2.0074,2.0042,2.0042,2.0064,2.0194,1.9308,1.8778,1.8947,1.802,1.7234,1.68,1.6768,1.6768,1.6712,1.6599,1.6485,1.6438,1.6228,1.6085,1.6056,1.5662,1.5381,1.5205,1.5049,1.4745,1.4279,1.3826,1.322,3.1917,3.1705,3.1705,3.1705,3.2082,3.2635,3.3176,3.3669,3.4138,3.4667,3.5223,3.562,3.562,3.5812,3.6003,3.6015,3.5118,3.4373,3.4373,3.3749,3.3284,3.3272,3.3272,3.3284,3.3284,3.2803,3.2262,3.1753,3.1705,3.1572,3.1306,3.1306,3.1083,3.0623,3.0352,3.0216,3.0216,3.0011,2.9737,2.9474,2.8755,2.8251,2.7947,2.7249,2.6798,2.6551,2.6092,2.5717,2.5485,2.5274,2.5174,2.5204,2.5164,2.5018,2.4731,2.4282,2.3815,2.3405,2.2864,2.2553,2.2402,2.2402,2.2402,2.244,2.2628,2.2402,2.2138,2.2327,2.2553,2.274,2.2927,2.2302,2.1581,2.1581,2.0816,2.0074,2.0074,2.0118,2.0118,2.0118,2.0118,2.0118,2.0118,2.0118,2.0183,2.0378,2.041,2.0496,2.0839,2.0018,1.9424,1.9579,1.8583,1.7689,1.7217,1.719,1.7134,1.7011,1.6972,1.6927,1.6818,1.6666,1.6524,1.6413,1.6181,1.5941,1.5701,1.5701,1.5439,1.4961,1.4248,1.3164,3.2817,3.2779,3.2779,3.2779,3.2911,3.3176,3.3681,3.3874,3.4138,3.4667,3.5223,3.562,3.562,3.5824,3.5844,3.5271,3.4731,3.4205,3.3725,3.3439,3.3284,3.3284,3.3737,3.3997,3.3817,3.3622,3.3146,3.223,3.1994,3.1849,3.1761,3.1484,3.1071,3.0623,3.0532,3.0397,3.0216,3.0011,2.9794,2.9485,2.9054,2.8673,2.824,2.7855,2.7495,2.7234,2.6585,2.6238,2.6155,2.5988,2.5983,2.6065,2.5883,2.579,2.5645,2.4837,2.4332,2.4026,2.3352,2.3075,2.3001,2.2852,2.2815,2.2815,2.2889,2.2703,2.2553,2.274,2.2852,2.2927,2.2964,2.2302,2.1592,2.1592,2.0816,2.0118,2.0118,2.0118,2.0151,2.0281,2.0313,2.0346,2.0475,2.0508,2.054,2.0604,2.0604,2.0733,2.1063,2.0183,1.9654,1.9895,1.9004,1.8197,1.7717,1.7579,1.7534,1.7479,1.7479,1.7423,1.7273,1.7155,1.6976,1.6797,1.6467,1.6249,1.6173,1.5943,1.5427,1.4658,1.4308,1.3479,3.3238,3.3284,3.3284,3.3284,3.3428,3.3657,3.3922,3.415,3.4426,3.486,3.5113,3.5375,3.5679,3.5699,3.5608,3.5283,3.4679,3.42,3.405,3.3677,3.3496,3.3689,3.4314,3.4454,3.388,3.4012,3.3679,3.2593,3.2376,3.2245,3.2169,3.1761,3.1395,3.1026,3.0758,3.0487,3.0216,3.0091,2.9874,2.9646,2.9508,2.9248,2.8924,2.8464,2.8196,2.8068,2.7235,2.6805,0.0,2.6528,2.6539,2.6629,2.6488,2.6484,2.6462,2.5458,2.4956,2.4675,2.3839,2.342,2.3298,2.315,2.3075,2.3001,2.3001,2.2927,2.2852,2.2964,2.3001,2.3001,2.3001,2.2433,2.1811,2.1636,2.0992,2.0369,2.0249,2.0205,2.027,2.0475,2.0508,2.054,2.0669,2.0701,2.0733,2.0754,2.085,2.101,2.134,2.0672,2.0199,2.0263,1.9511,1.8783,1.8286,1.8057,1.7931,1.7877,1.781,1.7728,1.759,1.7462,1.7284,1.7106,1.6779,1.6591,1.6545,1.623,1.5672,1.4877,1.4508,1.3757,0.0,3.3404,3.3404,3.3404,3.3753,3.4054,3.4054,3.4475,0.0,3.5126,3.5,3.5075,3.5868,3.5615,3.5404,3.5866,3.4919,3.432,3.5064,3.4311,3.3861,3.4358,3.4894,3.4803,3.3742,3.404,3.3916,3.2903,3.2779,3.268,3.2487,3.2213,3.1937,3.1749,3.1026,3.0532,3.0261,3.0261,3.0136,2.9931,2.9931,2.9931,2.9897,2.9118,2.8864,2.8998,2.8005,2.7429,2.7267,2.7044,2.6974,2.6933,2.6933,2.7067,2.7064,2.6083,2.5588,2.5297,2.4249,2.3677,2.3335,2.3335,2.3187,2.3038,2.3038,2.3001,2.3001,2.3001,2.3001,2.3001,2.3001,2.2663,2.2193,2.1712,2.1255,2.083,2.0477,2.041,2.0475,2.0669,2.0701,2.0733,2.0733,2.0733,2.0797,2.0903,2.1094,2.1328,2.1667,2.1363,2.098,2.0641,2.0045,1.9424,1.8872,1.8583,1.834,1.8139,1.7991,1.7854,1.7711,1.759,1.7479,1.7334,1.7134,1.6965,1.6807,1.6534,1.6107,1.5505,1.4827,1.4087,3.4258,0.0,3.4463,3.4463,3.451,3.4595,0.0,3.4884,3.5126,3.5175,3.5143,3.5276,3.5868,3.5871,3.5718,3.5717,3.5198,3.4939,3.5152,3.4819,3.4468,3.4345,3.4848,3.5059,3.4747,3.4843,3.4705,3.4183,3.3596,3.3154,3.2952,3.268,3.2363,3.1945,3.1605,3.1217,3.0838,3.0793,3.0691,3.0454,3.0454,3.0454,3.0419,2.9607,2.9366,2.9477,2.8468,2.8007,2.7966,2.7748,2.7545,2.736,2.736,2.729,2.7064,2.6083,2.5677,2.5451,2.4286,2.3824,2.3751,2.3593,2.3482,2.3446,2.3261,2.3113,2.3001,2.3001,2.3001,2.3001,2.3001,2.2663,2.2193,2.1712,2.1313,2.0941,2.0477,2.0508,2.0669,2.0807,2.0839,2.0903,2.1074,2.1074,2.1094,2.1126,2.1242,2.1443,2.1667,2.1485,2.117,2.0802,2.0341,1.9794,1.9165,1.8759,1.8491,1.834,1.8313,1.8166,1.7854,1.7826,1.7744,1.7601,1.7351,1.7145,1.6955,1.6779,1.6406,1.5796,1.5512,1.4879,3.4631,3.4775,3.4835,3.4932,3.4969,3.503,3.5126,3.5271,3.5428,3.5512,3.538,3.5416,3.6046,3.6045,3.5927,3.6088,3.5854,3.5498,3.514,3.5021,3.4879,3.464,3.529,3.5663,3.543,3.5871,3.5776,3.4804,3.4345,3.3879,3.3411,3.3142,3.2884,3.2525,3.2276,3.1893,3.133,3.1196,3.1139,3.1116,3.1116,3.1149,3.1214,3.0462,3.0048,2.9984,2.9097,2.8526,2.8179,2.807,2.7909,2.7655,2.7563,2.7441,2.7204,2.6083,2.5716,2.5528,2.4434,2.397,2.3861,2.3677,2.3593,2.3593,2.3482,2.3298,2.3113,2.3038,2.3001,2.3001,2.3001,2.2815,2.2455,2.1851,2.1535,2.1285,2.0738,2.0722,2.085,2.0999,2.1031,2.1063,2.119,2.119,2.119,2.119,2.138,2.158,2.1698,2.1791,2.1572,2.0884,2.0673,2.0226,1.9363,1.9037,1.8786,1.861,1.8476,1.8313,1.8139,1.7991,1.7826,1.7711,1.7545,1.7434,1.7329,1.72,1.6931,1.6534,1.6146,1.5588,3.4715,3.4872,3.4932,3.5175,3.5271,3.5416,3.5656,3.5764,3.5847,3.6051,3.5709,3.559,3.6364,3.6231,3.6175,3.6658,3.6506,3.5994,3.5073,3.5075,3.509,3.4914,3.5704,3.6146,3.5862,3.6787,3.6768,3.5336,3.5064,3.4667,3.3922,3.3649,3.3398,3.3154,3.2896,3.2494,3.1925,3.1617,3.1572,3.1805,3.1805,3.1881,3.2021,3.1281,3.0785,3.0481,2.968,2.8958,2.8366,2.8295,2.8151,2.7921,2.7696,2.7603,2.7406,2.632,2.585,2.5605,2.4545,2.408,2.3934,2.3751,2.3677,2.3677,2.3677,2.353,2.3335,2.315,2.3075,2.3038,2.3075,2.3075,2.2882,2.2169,2.1928,2.1731,2.1156,2.0992,2.0999,2.1158,2.119,2.119,2.119,2.119,2.119,2.119,2.1466,2.1667,2.1698,2.2123,2.2007,2.0937,2.0986,2.0616,1.9506,1.9302,1.9117,1.8878,1.861,1.8449,1.8422,1.8127,1.7909,1.7822,1.7767,1.7739,1.7739,1.759,1.7479,1.7351,1.6765,1.624,3.5054,3.5126,3.5223,3.5476,3.5704,3.5966,3.6216,3.6405,3.6534,3.6581,3.6337,3.6317,3.6866,3.6752,3.6677,3.689,3.6645,3.6018,3.4887,3.4856,3.4839,3.4513,3.5126,3.5711,3.6035,3.6456,3.6741,3.6661,3.5792,3.5076,3.4715,3.425,3.3781,3.3356,3.3154,3.2995,3.2896,3.2431,3.2257,3.23,3.23,3.23,3.232,3.154,3.115,3.1016,2.9837,2.9256,2.9095,2.8651,2.8351,2.8139,2.8099,2.7978,2.7758,2.7109,2.6488,2.5811,2.4618,2.4189,2.4152,2.4116,2.4116,2.408,2.3897,2.3824,2.3787,2.3556,2.3372,2.3298,2.3446,2.3519,2.3374,2.284,2.2521,2.2173,2.1686,2.135,2.1158,2.119,2.119,2.119,2.119,2.119,2.119,2.119,2.1348,2.1506,2.1667,2.2123,2.2037,2.1068,2.1228,2.0919,1.9677,1.9447,1.9289,1.9155,1.8878,1.8691,1.856,1.841,1.8313,1.8286,1.8018,1.7881,1.7881,1.7728,1.7656,1.7629,1.7429,1.7,3.5126,3.5404,3.574,3.6121,3.6216,3.6358,3.6888,3.7074,3.7142,3.7268,3.72,3.7202,3.7448,3.715,3.6772,3.6567,3.6481,3.6151,3.5323,3.5231,3.5267,3.5202,3.5656,3.6253,3.692,3.7385,3.7564,3.7216,3.6446,3.5699,3.5128,3.4556,3.4105,3.3781,3.3709,3.3539,3.3283,3.3068,3.2896,3.2779,3.2779,3.2779,3.2766,3.2235,3.1865,3.1515,3.0688,3.0017,2.9419,2.9068,2.8723,2.8339,2.8259,2.8139,2.7936,2.6991,2.6215,2.5489,2.4672,2.4309,2.42,2.42,2.42,2.4189,2.408,2.397,2.3897,2.3934,2.3703,2.3482,2.3567,2.3593,2.3506,2.3084,2.2897,2.2593,2.1944,2.169,2.1491,2.1247,2.119,2.119,2.119,2.119,2.119,2.119,2.1305,2.1463,2.1667,2.2061,2.1959,2.1096,2.1144,2.0782,1.9703,1.942,1.9196,1.8984,1.8878,1.8744,1.8614,1.8545,1.8518,1.8518,1.8371,1.8236,1.8166,1.8123,1.7986,1.781,1.7744,1.7484,3.5223,3.5596,3.6061,3.6628,3.6734,3.6828,3.7492,3.7677,3.7723,3.7991,3.8037,3.8037,3.8037,3.7485,3.6924,3.645,3.6333,3.613,3.5692,3.5626,3.571,3.5918,3.6229,3.6731,3.7371,3.7887,3.7914,3.7299,3.6703,3.6089,3.5483,3.485,3.4397,3.4202,3.4118,3.3907,3.3471,3.3441,3.3313,3.3124,3.3124,3.3124,3.3081,3.281,3.2487,3.2047,3.1516,3.0748,2.987,2.9504,2.906,2.8538,2.8339,2.8259,2.8152,2.6978,2.6165,2.5511,2.4887,2.4486,2.4273,2.4236,2.42,2.42,2.42,2.408,2.4007,2.4164,2.397,2.3751,2.3751,2.3751,2.3686,2.3421,2.3275,2.3015,2.2388,2.2066,2.178,2.1422,2.1282,2.119,2.119,2.119,2.119,2.119,2.1273,2.1411,2.1624,2.1906,2.1855,2.1153,2.1019,2.0588,1.9585,1.9328,1.9103,1.8905,1.8878,1.8786,1.8694,1.8667,1.8652,1.8652,1.8614,1.8545,1.8449,1.8422,1.8275,1.8018,1.7963,1.7826,3.5428,3.562,3.5847,3.6828,3.7261,3.7551,3.8031,3.8167,3.8291,3.8729,3.8805,3.8805,3.8805,3.7906,3.7155,3.7115,3.6329,3.5751,3.571,3.5697,3.5791,3.606,3.6224,3.6407,3.6643,3.6831,3.6924,3.6854,3.6295,3.5907,3.5867,3.5156,3.466,3.4397,3.4202,3.3937,3.367,3.3471,3.3313,3.3124,3.3124,3.3124,3.3081,3.281,3.2698,3.2593,3.1883,3.1257,3.0638,2.9894,2.9237,2.8764,2.8538,2.8471,2.8398,2.7627,2.6975,2.6377,2.5522,2.4897,2.4454,2.4273,2.42,2.42,2.42,2.42,2.4189,2.42,2.4189,2.4164,2.4164,2.4164,2.4152,2.4118,2.3751,2.3349,2.3316,2.2559,2.1883,2.1848,2.1491,2.119,2.119,2.119,2.119,2.119,2.1221,2.1253,2.14,2.1726,2.1773,2.1308,2.1095,2.0517,1.932,1.9208,1.9182,1.917,1.9052,1.8999,1.896,1.8839,1.8798,1.8798,1.8652,1.8587,1.8587,1.8464,1.8394,1.8367,1.8166,1.8002,3.5605,3.6073,3.6452,3.7168,3.7551,3.7795,3.7867,3.7864,3.7905,3.8,3.8347,3.856,3.8441,3.7841,3.7167,3.6563,3.5937,3.5562,3.5669,3.5844,3.6032,3.6246,3.6318,3.6484,3.6743,3.6809,3.6884,3.7032,3.6496,3.6077,3.5909,3.5322,3.488,3.4673,3.459,3.4327,3.3937,3.3725,3.3471,3.3283,3.3154,3.3124,3.3124,3.2982,3.2939,3.2914,3.2109,3.1467,3.0935,3.0122,2.941,2.8803,2.8578,2.851,2.845,2.7792,2.7391,2.694,2.5948,2.5339,2.492,2.4522,2.4309,2.42,2.42,2.42,2.42,2.42,2.42,2.42,2.42,2.42,2.42,2.42,2.4051,2.3797,2.3476,2.2857,2.2306,2.1951,2.1514,2.119,2.119,2.119,2.119,2.119,2.119,2.1253,2.1388,2.1612,2.1642,2.1326,2.0754,2.0025,1.9139,1.9143,1.9208,1.9208,1.9143,1.9158,1.9237,1.921,1.9143,1.9037,1.9011,1.8893,1.8706,1.8664,1.861,1.8518,1.8464,1.8371,3.5571,3.6128,3.6548,3.7175,3.7521,3.7642,3.732,3.747,3.7695,3.7735,3.8109,3.8451,3.8512,3.8079,3.7423,3.6451,3.6102,3.594,3.5831,3.6112,3.6325,3.6484,3.6484,3.6597,3.6822,3.6742,3.6716,3.6819,3.6399,3.6032,3.5838,3.5422,3.5086,3.488,3.4839,3.4632,3.4202,3.3937,3.3725,3.3471,3.3283,3.3154,3.3124,3.3124,3.3023,3.2792,3.2222,3.1577,3.0891,3.0264,2.957,2.8882,2.8657,2.8578,2.8542,2.8102,2.7744,2.7377,2.6586,2.5924,2.5384,2.4923,2.4545,2.4273,2.4236,2.42,2.42,2.42,2.42,2.42,2.42,2.42,2.42,2.42,2.42,2.4097,2.3717,2.3155,2.257,2.2226,2.1661,2.119,2.119,2.119,2.119,2.119,2.119,2.1221,2.1336,2.1561,2.1623,2.135,2.0644,1.9951,1.938,1.924,1.9249,1.9328,1.9328,1.9342,1.9394,1.9394,1.9368,1.9249,1.9249,1.9143,1.8943,1.8878,1.8786,1.8652,1.8614,1.8587,3.531,3.5655,3.5963,3.6805,3.7164,3.7127,3.6456,3.7013,3.7769,3.8101,3.8353,3.8672,3.9284,3.8727,3.7896,3.703,3.7112,3.7001,3.6208,3.6445,3.6721,3.6721,3.6721,3.6721,3.6721,3.6325,3.6086,3.6086,3.5844,3.571,3.571,3.5521,3.5318,3.5127,3.4921,3.4673,3.4397,3.4202,3.3937,3.367,3.3471,3.3283,3.3124,3.3111,3.2754,3.2215,3.2202,3.1599,3.0568,3.0396,2.9821,2.9091,2.8882,2.8791,2.8803,2.8578,2.8186,2.769,2.7472,2.6716,2.5738,2.5405,2.4945,2.4454,2.4273,2.42,2.42,2.42,2.42,2.42,2.42,2.42,2.42,2.42,2.42,2.42,2.42,2.3397,2.2719,2.2719,2.1891,2.1201,2.119,2.119,2.119,2.119,2.119,2.119,2.119,2.1498,2.1623,2.1434,2.0906,2.0434,2.0019,1.9512,1.9328,1.9591,1.9617,1.9539,1.942,1.9394,1.9394,1.9394,1.9394,1.9354,1.9208,1.9078,1.8919,1.8798,1.8679,1.8614,3.5122,3.5378,3.5496,3.6085,3.6747,3.6976,3.5909,3.6554,3.7324,3.729,3.7619,3.8018,3.8477,3.8117,3.7645,3.7235,3.6889,3.6638,3.6538,3.6642,3.6747,3.6875,3.6915,3.685,3.6707,3.6603,3.6405,3.6126,3.6032,3.5898,3.571,3.5642,3.544,3.5127,3.5044,3.4743,3.4202,3.3937,3.3725,3.3471,3.3283,3.3154,3.3111,3.2654,3.2378,3.2177,3.1411,3.0909,3.0543,2.992,2.9528,2.9275,2.9079,2.9013,2.9013,2.8803,2.8627,2.8394,2.7798,2.7069,2.6287,2.582,2.5237,2.4682,2.4454,2.4418,2.4381,2.4236,2.42,2.42,2.42,2.42,2.42,2.42,2.42,2.42,2.42,2.3684,2.3075,2.2742,2.2145,2.1583,2.1259,2.119,2.119,2.119,2.119,2.1221,2.1336,2.1561,2.1561,2.1242,2.117,2.0803,1.992,1.9894,1.9773,1.9471,1.963,1.9734,1.9682,1.9682,1.963,1.9539,1.9539,1.9473,1.9354,1.9289,1.921,1.9064,1.9037,1.8972,3.4574,3.4981,3.5215,3.5688,3.6533,3.7095,3.6633,3.6674,3.6947,3.7126,3.7256,3.7524,3.799,3.7876,3.7582,3.7132,3.7019,3.6972,3.6853,3.6889,3.6968,3.7109,3.7109,3.7031,3.685,3.6747,3.6603,3.6365,3.6206,3.6032,3.5858,3.5764,3.5562,3.5236,3.5113,3.4867,3.4382,3.4021,3.3725,3.3513,3.3313,3.3197,3.3056,3.2478,3.2089,3.1825,3.0758,3.0281,3.0217,2.9749,2.956,2.9521,2.9314,2.9236,2.9197,2.891,2.8791,2.8715,2.8216,2.7603,2.6924,2.6324,2.5691,2.5121,2.474,2.461,2.4574,2.4381,2.4309,2.4309,2.4236,2.42,2.42,2.42,2.42,2.42,2.42,2.3763,2.3316,2.3041,2.2376,2.1791,2.1514,2.1328,2.119,2.119,2.119,2.1253,2.1388,2.158,2.1643,2.1436,2.1404,2.1084,2.0262,2.0162,1.9944,1.9497,1.963,1.9734,1.9798,1.9798,1.9759,1.9682,1.9682,1.9617,1.9486,1.9486,1.942,1.9275,1.9275,1.9223,3.3746,3.4417,3.4939,3.5494,3.636,3.7303,3.8007,3.726,3.6623,3.739,3.7254,3.7161,3.7723,3.7821,3.7559,3.6844,3.7352,3.7625,3.7102,3.7187,3.7303,3.7303,3.7303,3.7226,3.7017,3.6811,3.6707,3.6721,3.6325,3.6126,3.6086,3.5858,3.5602,3.5399,3.5195,3.5003,3.4769,3.4298,3.3937,3.367,3.3471,3.3283,3.3056,3.2478,3.1888,3.126,3.0231,2.9792,2.9792,2.9792,2.9792,2.9792,2.9509,2.9419,2.938,2.8988,2.8843,2.8803,2.859,2.8162,2.7606,2.6924,2.63,2.5717,2.5073,2.4873,2.479,2.4562,2.449,2.4454,2.4273,2.42,2.42,2.42,2.42,2.42,2.42,2.3833,2.3465,2.3419,2.2662,2.2009,2.1906,2.1537,2.1247,2.1201,2.119,2.1253,2.1368,2.158,2.1761,2.1874,2.1631,2.1319,2.0892,2.0374,1.9949,1.965,1.9615,1.9656,1.9773,1.9798,1.9798,1.9798,1.9798,1.9734,1.9604,1.9604,1.9539,1.942,1.942,1.9342,3.3129,3.3404,3.3675,3.4725,3.5442,3.6247,3.765,3.7276,3.667,3.6874,3.6934,3.7021,3.7161,3.7175,3.7147,3.6982,3.7066,3.7211,3.724,3.7264,3.7303,3.7303,3.7303,3.7226,3.7017,3.6954,3.6889,3.6707,3.6484,3.6286,3.6126,3.5858,3.5602,3.5399,3.5195,3.4908,3.4481,3.4021,3.3683,3.3484,3.3283,3.3154,3.3056,3.2478,3.1687,3.0746,3.008,2.9792,2.9792,2.9792,2.9792,2.9792,2.974,2.9702,2.9702,2.9392,2.9157,2.9013,2.8803,2.8267,2.7666,2.7507,2.6824,2.5972,2.5669,2.5349,2.4981,2.479,2.461,2.4502,2.4465,2.4309,2.42,2.42,2.42,2.42,2.42,2.4108,2.3913,2.3488,2.3235,2.2834,2.2032,2.1802,2.1629,2.1259,2.119,2.1221,2.1253,2.1498,2.1698,2.173,2.1904,2.1801,2.1301,2.0887,2.0414,1.9934,1.9733,1.9617,1.963,1.9734,1.9798,1.9798,1.9798,1.9798,1.9759,1.9759,1.9682,1.9565,1.9565,1.9486,3.2143,3.246,3.3023,3.4947,3.5162,3.5432,3.7563,3.7217,3.6501,3.6794,3.6915,3.6978,3.6978,3.6978,3.6978,3.6978,3.6978,3.707,3.7264,3.738,3.7419,3.7303,3.738,3.7341,3.7017,3.6978,3.6954,3.685,3.6589,3.6365,3.6246,3.5898,3.5642,3.5562,3.5358,3.5072,3.4743,3.4189,3.3768,3.3556,3.324,3.3124,3.3056,3.2478,3.1763,3.0959,3.0419,3.0181,3.0168,2.9905,2.9792,2.9792,2.9792,2.9792,2.9753,2.9509,2.9275,2.9052,2.8882,2.8476,2.8026,2.7762,2.7332,2.6741,2.6127,2.5768,2.5505,2.5052,2.479,2.461,2.4538,2.4345,2.42,2.42,2.42,2.42,2.42,2.42,2.412,2.3856,2.3579,2.3235,2.2708,2.2215,2.1755,2.127,2.119,2.119,2.119,2.1498,2.1698,2.1698,2.2011,2.1981,2.1452,2.121,2.079,2.0058,1.9866,1.9731,1.9603,1.9656,1.9734,1.9798,1.9798,1.9798,1.9798,1.9798,1.9759,1.9708,1.9708,1.9604,3.0876,3.1563,3.2698,3.5024,3.4957,3.4955,3.73,3.6965,3.6286,3.6866,3.6978,3.6978,3.6978,3.6978,3.6978,3.6978,3.6978,3.707,3.7264,3.7419,3.7495,3.7303,3.7457,3.738,3.7017,3.6978,3.6978,3.6978,3.6654,3.6445,3.6405,3.6018,3.5764,3.571,3.5521,3.5318,3.5086,3.4452,3.3992,3.3713,3.3283,3.3124,3.3056,3.2579,3.2064,3.1499,3.0972,3.0758,3.0708,3.0156,2.993,2.993,2.9829,2.9792,2.9792,2.956,2.9314,2.9131,2.8922,2.8736,2.8466,2.7993,2.7801,2.7536,2.655,2.6178,2.5949,2.5326,2.4957,2.4754,2.461,2.4381,2.42,2.42,2.42,2.42,2.42,2.42,2.42,2.42,2.3751,2.3407,2.3407,2.257,2.1778,2.1385,2.1247,2.119,2.119,2.1454,2.1655,2.1698,2.198,2.1986,2.1572,2.1452,2.106,2.0282,2.0107,1.99,1.9673,1.9614,1.9656,1.9759,1.9798,1.9798,1.9798,1.9798,1.9798,1.9798,1.9798,1.9734,2.9506,3.0804,3.2435,3.3502,3.4279,3.5064,3.6159,3.623,3.6286,3.6866,3.6978,3.6978,3.6978,3.6978,3.6978,3.6978,3.6978,3.707,3.7264,3.7303,3.7341,3.7303,3.7303,3.7264,3.7017,3.6978,3.6978,3.6978,3.6772,3.6603,3.6405,3.6166,3.5938,3.571,3.5521,3.5318,3.5086,3.4618,3.4147,3.3713,3.3283,3.3124,3.3124,3.3006,3.2654,3.2077,3.1524,3.1286,3.1248,3.0721,3.0507,3.0457,2.998,2.9792,2.9792,2.9753,2.9573,2.9341,2.9118,2.8922,2.8712,2.8466,2.8089,2.757,2.697,2.649,2.5985,2.5421,2.5052,2.479,2.4754,2.449,2.42,2.42,2.42,2.42,2.42,2.42,2.42,2.42,2.3751,2.3407,2.3407,2.257,2.1871,2.1802,2.1445,2.119,2.119,2.1348,2.1506,2.1667,2.1843,2.1963,2.2089,2.1668,2.1344,2.1229,2.0463,1.9989,1.9943,1.9719,1.9617,1.963,1.9734,1.9798,1.9798,1.9798,1.9798,1.9798,1.9798,1.9798,2.8758,2.9466,3.06,3.2212,3.2932,3.3718,3.5648,3.5836,3.5864,3.6796,3.675,3.661,3.6922,3.6978,3.6978,3.6978,3.6978,3.7017,3.7109,3.7226,3.7264,3.7148,3.7226,3.7226,3.7017,3.6978,3.6978,3.6978,3.6811,3.6603,3.6405,3.6206,3.5992,3.571,3.5602,3.548,3.5277,3.4812,3.423,3.3513,3.3356,3.3197,3.3124,3.3124,3.2943,3.2667,3.2102,3.1851,3.1788,3.0959,3.062,3.0557,3.0005,2.9792,2.9792,2.9792,2.965,2.938,2.9314,2.9067,2.8803,2.8685,2.8421,2.7978,2.715,2.6729,2.6394,2.554,2.5052,2.479,2.479,2.449,2.42,2.42,2.42,2.42,2.42,2.42,2.42,2.42,2.4016,2.374,2.3453,2.2834,2.2249,2.194,2.1491,2.119,2.119,2.1305,2.1431,2.1506,2.1769,2.1937,2.203,2.192,2.1716,2.1416,2.1017,2.0572,2.0132,1.9998,1.9874,1.9708,1.9773,1.9798,1.9798,1.9798,1.9798,1.9798,1.9798,1.9798,2.8186,2.8375,2.9087,3.1093,3.1766,3.2544,3.4807,3.5176,3.5293,3.6256,3.615,3.6019,3.6469,3.6553,3.661,3.6764,3.6754,3.6796,3.6964,3.7148,3.7187,3.7017,3.7187,3.7226,3.7109,3.693,3.6901,3.7042,3.6749,3.6501,3.6391,3.6246,3.6032,3.571,3.571,3.5602,3.5399,3.4895,3.4217,3.3471,3.3441,3.3283,3.3111,3.2918,3.2855,3.2842,3.2554,3.2265,3.1938,3.1135,3.0733,3.0557,3.0005,2.9792,2.9792,2.9792,2.965,2.9509,2.9419,2.9184,2.8949,2.8882,2.8724,2.8385,2.7286,2.6961,2.6732,2.5684,2.5147,2.4921,2.4921,2.4634,2.4345,2.4345,2.4345,2.4309,2.4236,2.42,2.42,2.42,2.42,2.4074,2.3659,2.3213,2.2708,2.2191,2.1686,2.1339,2.1213,2.1273,2.1368,2.1388,2.1632,2.18,2.1894,2.203,2.1956,2.1632,2.1476,2.116,2.059,2.0447,2.034,2.0185,2.0073,1.9949,1.9798,1.9798,1.9798,1.9798,1.9798,1.9837,2.7706,2.8056,2.8635,3.0062,3.1237,3.2304,3.3081,3.3943,3.4643,3.4938,3.5148,3.5245,3.5287,3.5287,3.547,3.6061,3.6159,3.6356,3.6908,3.7017,3.7017,3.6978,3.7187,3.7303,3.7303,3.6779,3.6665,3.726,3.6574,3.6196,3.6403,3.6405,3.6192,3.571,3.571,3.5602,3.5399,3.4729,3.4189,3.367,3.3471,3.3283,3.3056,3.2503,3.2252,3.229,3.2805,3.2428,3.1436,3.1373,3.106,3.0557,3.0005,2.9792,2.9792,2.9792,2.9792,2.974,2.947,2.938,2.9341,2.917,2.8961,2.8597,2.7527,2.7161,2.6943,2.5874,2.5418,2.5276,2.5276,2.5016,2.4754,2.4754,2.4754,2.4646,2.4273,2.42,2.42,2.42,2.42,2.4189,2.4154,2.3705,2.3189,2.2719,2.2203,2.1709,2.1259,2.1221,2.1253,2.1388,2.142,2.1557,2.1862,2.1894,2.1987,2.2149,2.168,2.1439,2.1503,2.1149,2.1038,2.1222,2.0836,2.0377,1.9798,1.9798,1.9798,1.9798,1.9798,1.9862,2.7185,2.716,2.7272,2.8659,2.9732,3.0898,3.2638,3.3617,3.4509,3.5615,3.5694,3.5493,3.5273,3.5189,3.5259,3.5484,3.585,3.6188,3.6399,3.674,3.707,3.7187,3.7264,3.7185,3.694,3.6698,3.6461,3.609,3.6193,3.6216,3.6045,3.6263,3.6272,3.5992,3.5804,3.5562,3.5195,3.4825,3.441,3.3937,3.3725,3.3471,3.3258,3.2508,3.2026,3.17,3.1901,3.1763,3.1361,3.1035,3.0783,3.0557,3.0005,2.9792,2.9792,2.9792,2.9792,2.9792,2.9689,2.956,2.938,2.9302,2.9157,2.8805,2.7727,2.7459,2.7348,2.6299,2.5943,2.5838,2.5711,2.5512,2.5265,2.5147,2.5111,2.5076,2.4933,2.473,2.461,2.461,2.449,2.4381,2.4381,2.3858,2.335,2.3167,2.2421,2.1825,2.1675,2.1397,2.1221,2.1285,2.1368,2.1494,2.1749,2.1843,2.2018,2.2309,2.2158,2.2013,2.1925,2.1786,2.1629,2.1437,2.1305,2.0943,2.0377,1.9987,1.9798,1.9798,1.9798,1.9862,2.6956,2.6777,2.6792,2.7759,2.8804,2.9961,3.1448,3.2539,3.3621,3.4808,3.4892,3.4761,3.4775,3.4638,3.4641,3.4815,3.5194,3.5602,3.6047,3.6469,3.6831,3.7236,3.7341,3.7339,3.7114,3.6722,3.6282,3.5861,3.5796,3.5756,3.5788,3.5983,3.6012,3.5978,3.5737,3.544,3.5086,3.488,3.4548,3.4118,3.3907,3.3636,3.3191,3.2494,3.1855,3.1299,3.1162,3.1006,3.0846,3.0683,3.0507,3.0306,2.993,2.9792,2.9792,2.9792,2.9792,2.9792,2.9869,2.9767,2.9664,2.969,2.9586,2.9282,2.8363,2.81,2.7883,2.7002,2.6647,2.6496,2.6302,2.606,2.5838,2.5699,2.5616,2.5594,2.5594,2.5253,2.4957,2.4873,2.4766,2.4622,2.4526,2.4104,2.3685,2.3442,2.2685,2.2111,2.1917,2.1479,2.1221,2.1253,2.1368,2.1537,2.1855,2.1937,2.2154,2.2482,2.2543,2.2536,2.2434,2.2493,2.2435,2.2201,2.204,2.166,2.1091,2.0416,2.0025,1.9862,1.9862,1.9952,0.0,0.0,0.0,2.7441,2.8559,2.9593,2.945,3.0598,3.1834,3.2292,3.2521,3.2919,3.3723,3.3541,3.3473,3.4076,3.4189,3.4624,3.5878,3.6061,3.639,3.7137,3.7429,3.762,3.7848,3.6749,3.6186,3.6619,3.5315,3.4882,3.5756,3.5557,3.5507,3.5696,3.5521,3.5277,3.5086,3.4867,3.4522,3.4092,3.4079,3.3627,3.288,3.2316,3.1752,3.1176,3.065,3.019,2.9868,3.0369,3.0281,2.983,2.983,2.983,2.983,2.983,2.983,2.9869,3.0049,3.0113,3.0152,3.033,3.0292,3.0012,2.949,2.9016,2.85,2.7972,2.7533,2.7196,2.704,2.6722,2.6427,2.6427,2.6324,2.6233,2.6233,2.5734,2.5264,2.5087,2.5052,2.4921,2.4598,2.4526,2.4291,2.3546,2.3029,2.2558,2.2007,2.1535,2.1265,2.14,2.142,2.162,2.2166,2.2228,2.234,2.269,2.286,2.2969,2.3108,2.33,2.345,2.3599,2.309,2.2526,2.1924,2.1091,2.0455,2.0016,2.0016,2.0093,2.7436,0.0,0.0,0.0,0.0,0.0,2.8967,2.9633,3.0431,3.1525,3.1766,3.1973,3.2745,3.2792,3.288,3.326,3.3822,3.4315,3.4666,3.5124,3.5587,3.5943,3.6555,3.6842,3.6554,3.6324,3.5971,3.5361,3.4939,3.4916,3.534,3.5853,3.5934,3.5507,3.5277,3.5086,3.488,3.4265,3.3863,3.3727,3.3148,3.2741,3.252,3.1793,3.1368,3.1176,3.065,3.033,3.0241,3.0394,3.0356,3.0228,3.0228,3.0228,3.0228,3.0228,3.0228,3.0228,3.0292,3.0419,3.0546,3.0609,3.0685,3.0644,3.006,2.9572,2.914,2.859,2.815,2.7769,2.7456,2.7222,2.7019,2.6863,2.6807,2.6726,2.6577,2.644,2.6198,2.5746,2.5653,2.5535,2.5135,2.4957,2.4779,2.4447,2.398,2.3442,2.2894,2.2425,2.2013,2.1659,2.1706,2.1894,2.2197,2.2389,2.2622,2.2969,2.315,2.333,2.345,2.3509,2.3569,2.3599,2.3445,2.3145,2.2695,2.1553,2.0705,2.0156,2.0296,2.0385,2.7326,2.6767,2.6157,2.6396,0.0,0.0,2.8005,2.8379,2.8975,3.0172,3.0533,3.0827,3.141,3.1663,3.1774,3.1811,3.2469,3.3264,3.4096,3.4548,3.4981,3.5419,3.5943,3.6313,3.6432,3.6367,3.6013,3.5282,3.4953,3.4831,3.4887,3.5767,3.6032,3.544,3.4968,3.4645,3.4441,3.363,3.3208,3.3208,3.2815,3.2528,3.2241,3.1902,3.1577,3.1342,3.1055,3.0911,3.0911,3.0911,3.0748,3.0533,3.0533,3.0533,3.0533,3.0533,3.0533,3.0571,3.071,3.0861,3.0949,3.1037,3.1224,3.1294,3.0877,3.0493,3.0121,2.9478,2.8739,2.8118,2.7875,2.7656,2.7503,2.7369,2.7248,2.7079,2.6863,2.6841,2.6671,2.6119,2.6027,2.591,2.5488,2.5347,2.517,2.4909,2.446,2.3976,2.3567,2.2975,2.2518,2.2274,2.2162,2.2235,2.2543,2.2714,2.2957,2.3288,2.3492,2.3641,2.373,2.3822,2.3897,2.3897,2.3969,2.3783,2.3293,2.2106,2.1133,2.0372,2.0587,2.065,2.6872,2.6401,2.5812,2.5812,2.6313,0.0,2.6768,2.7035,2.7528,2.8479,2.8986,2.9394,2.9913,3.029,3.0432,3.0274,3.0759,3.1826,3.3695,3.4012,3.4373,3.5141,3.5473,3.5898,3.6683,3.6404,3.6021,3.5712,3.5061,3.4645,3.4513,3.5464,3.5762,3.5264,3.4553,3.406,3.3766,3.2974,3.2594,3.2633,3.2751,3.2539,3.2038,3.2228,3.2038,3.1609,3.1609,3.1609,3.1609,3.1609,3.1299,3.0811,3.0811,3.0811,3.0811,3.0811,3.0811,3.0849,3.1211,3.1347,3.1384,3.1559,3.178,3.189,3.172,3.1473,3.1116,3.0287,2.9248,2.8414,2.8333,2.8072,2.7822,2.7822,2.7556,2.7268,2.7079,2.7024,2.6854,2.6339,2.627,2.6119,2.5723,2.5688,2.5535,2.5158,2.4741,2.4396,2.4164,2.3459,2.3002,2.3055,2.2735,2.2696,2.3078,2.3138,2.3288,2.3628,2.3819,2.392,2.392,2.4144,2.4292,2.4292,2.452,2.4326,2.3724,2.2625,2.1628,2.0751,2.0851,2.0825,2.666,2.6011,2.5327,2.5327,2.5717,0.0,2.6104,2.621,2.6564,2.7239,2.7212,2.7454,2.8637,2.9038,2.9538,3.0381,3.055,3.0994,3.22,3.2841,3.3367,3.3698,3.4491,3.5046,3.5211,3.5288,3.5251,3.5003,3.4411,3.4208,3.4475,3.5079,3.5071,3.446,3.4273,3.3781,3.2948,3.2293,3.2045,3.2225,3.1827,3.1662,3.1694,3.1732,3.1702,3.1609,3.1609,3.1609,3.1609,3.178,3.1683,3.1424,3.1424,3.1424,3.1424,3.1424,3.1424,3.1447,3.1522,3.1633,3.178,3.1817,3.1963,3.2146,3.2109,3.1726,3.107,2.9923,2.9449,2.9118,2.8487,2.8183,2.8,2.7855,2.7623,2.7436,2.7268,2.7113,2.6909,2.6658,2.6589,2.6487,2.6119,2.6097,2.598,2.5758,2.5638,2.5418,2.4944,2.4746,2.4316,2.3492,2.341,2.335,2.3115,2.3348,2.3599,2.3832,2.3966,2.4067,2.4067,2.4112,2.4187,2.4292,2.4593,2.4468,2.3849,2.2578,2.1849,2.1649,2.1184,2.0936,2.6499,2.6006,2.5498,2.5253,2.5549,0.0,0.0,2.5853,2.5902,2.6331,2.6429,2.6581,2.7119,2.7692,2.8206,2.8649,2.8946,2.9388,3.014,3.1512,3.2521,3.2695,3.3592,3.4313,3.4633,3.4853,3.4853,3.4583,3.4066,3.3942,3.4324,3.4749,3.4763,3.4206,3.3927,3.3291,3.2267,3.1705,3.1481,3.1708,3.153,3.1545,3.1743,3.1853,3.189,3.189,3.189,3.189,3.189,3.2,3.2,3.189,3.178,3.1743,3.1743,3.1743,3.1743,3.1743,3.1853,3.1963,3.2036,3.2036,3.2169,3.23,3.2205,3.1762,3.1165,3.0554,2.9977,2.9401,2.899,2.851,2.8079,2.7967,2.7723,2.7469,2.7335,2.7214,2.7079,2.6748,2.6679,2.6624,2.6396,2.6339,2.627,2.6097,2.6062,2.5928,2.5541,2.5327,2.4978,2.448,2.4064,2.3835,2.3761,2.3662,2.3717,2.3966,2.4067,2.4083,2.4083,2.4157,2.4319,2.4536,2.4721,2.4687,2.446,2.3461,2.2855,2.2572,2.1993,2.1649,2.6816,2.6368,2.5904,2.5552,2.5708,2.5895,0.0,0.0,0.0,2.5846,2.6158,2.6303,2.6099,2.6694,2.7148,2.6966,2.7368,2.7928,2.8489,3.0237,3.1486,3.1709,3.2534,3.3282,3.3797,3.4193,3.4356,3.4189,3.3789,3.3775,3.435,3.4539,3.4483,3.4206,3.3686,3.2893,3.181,3.1274,3.1099,3.131,3.1522,3.172,3.189,3.2109,3.2218,3.2218,3.2218,3.2218,3.2218,3.2218,3.2218,3.2182,3.2036,3.1963,3.1963,3.1963,3.1963,3.1963,3.2146,3.2218,3.2218,3.2218,3.2264,3.2322,3.2241,3.1843,3.1436,3.1327,3.0581,2.9801,2.957,2.8898,2.8245,2.8139,2.7802,2.7469,2.7369,2.7302,2.7201,2.6897,2.676,2.6658,2.6521,2.6499,2.643,2.627,2.627,2.6201,2.605,2.5723,2.548,2.5356,2.4736,2.435,2.4504,2.4055,2.3884,2.4194,2.4148,2.4083,2.4083,2.4232,2.445,2.475,2.4778,2.4863,2.5005,2.4558,2.4042,2.347,2.2896,2.248,2.8115,2.7239,2.626,2.64,2.6159,2.5895,2.5895,0.0,2.5902,2.611,0.0,2.6295,2.6476,0.0,0.0,2.7359,2.7376,2.7623,2.8398,2.9223,2.9925,3.0341,3.0938,3.1299,3.1402,3.2493,3.3322,3.3652,3.3468,3.3813,3.4938,3.4376,3.4052,3.4193,3.3686,3.2893,3.181,3.1274,3.1099,3.131,3.1522,3.172,3.189,3.2109,3.2218,3.2218,3.2218,3.2218,3.2218,3.2218,3.2218,3.2218,3.2182,3.2182,3.2182,3.2182,3.2182,3.2182,3.2182,3.2218,3.2218,3.2218,3.2205,3.2205,3.2205,3.2164,3.2001,3.1436,3.1192,3.0839,2.9787,2.9194,2.8752,2.8245,2.7802,2.749,2.7503,2.7369,2.7302,2.7235,2.693,2.6658,2.6521,2.6499,2.6499,2.6465,2.6465,2.6465,2.6418,2.6402,2.6163,2.5615,2.5485,2.5275,2.4963,2.4555,2.4402,2.4611,2.4311,2.4083,2.4083,2.4232,2.4392,2.462,2.4721,2.4863,2.5005,2.505,2.4764,2.4163,2.3628,2.3079,2.9615,2.8976,2.8355,2.8142,2.7504,2.6945,2.6945,2.647,2.6115,2.6199,0.0,0.0,0.0,0.0,0.0,0.0,2.676,2.694,2.737,2.7811,2.8608,2.9944,3.0797,3.1333,3.1452,3.208,3.254,3.2608,3.2535,3.2864,3.3718,3.379,3.3745,3.3674,3.3793,3.3198,3.181,3.1562,3.1427,3.131,3.1522,3.172,3.189,3.2109,3.2218,3.2218,3.2218,3.2218,3.2218,3.2218,3.2218,3.2218,3.2218,3.2218,3.2218,3.2218,3.2218,3.2218,3.2218,3.2218,3.2218,3.2218,3.2218,3.2218,3.2218,3.2218,3.2164,3.187,3.1487,3.1002,3.0489,2.9602,2.8756,2.8518,2.7952,2.749,2.749,2.7469,2.7403,2.7302,2.7167,2.6964,2.6658,2.6555,2.6499,2.6499,2.6499,2.6499,2.6499,2.6499,2.6399,2.616,2.5799,2.5564,2.5547,2.5058,2.4695,2.453,2.4188,2.4037,2.4083,2.4157,2.4332,2.4578,2.4677,2.4778,2.5005,2.5061,2.4995,2.4805,2.4338,2.4004,3.1377,3.0974,3.0477,2.9906,2.9069,2.8341,2.8023,2.7303,2.6635,2.6501,2.6313,0.0,0.0,0.0,2.6229,2.6324,0.0,2.6525,2.6805,2.7108,2.78,2.9142,3.0153,3.0847,3.1303,3.1609,3.182,3.1883,3.175,3.2081,3.3041,3.3066,3.3215,3.3527,3.3674,3.3158,3.199,3.1756,3.1543,3.131,3.1434,3.1633,3.1817,3.2036,3.2146,3.2218,3.2218,3.2218,3.2218,3.2218,3.2218,3.2218,3.2218,3.2218,3.2218,3.2218,3.2218,3.2218,3.2218,3.2218,3.2218,3.2218,3.2218,3.2218,3.2218,3.2218,3.2218,3.2218,3.1762,3.129,3.1128,3.0147,2.9186,2.8868,2.8255,2.7686,2.7529,2.749,2.7469,2.7369,2.7335,2.7201,2.6918,2.6692,2.6521,2.6499,2.6499,2.6499,2.6499,2.6499,2.6499,2.6499,2.6122,2.5904,2.6051,2.5545,2.502,2.4512,2.4313,2.4164,2.4096,2.4083,2.4229,2.452,2.4563,2.4706,2.4948,2.4977,2.5061,2.5132,2.4888,2.4734,3.347,3.2974,3.2288,3.1368,3.069,2.993,2.8916,2.8307,2.777,2.7277,2.7003,2.685,2.685,2.6479,2.6271,2.6561,2.6592,0.0,0.0,2.758,2.7763,2.7519,2.8219,2.9078,3.0061,3.0697,3.1297,3.1847,3.1337,3.1871,3.374,3.2261,3.2218,3.4126,3.3101,3.2501,3.2397,3.1688,3.1323,3.131,3.131,3.1397,3.1609,3.1817,3.2036,3.2218,3.2218,3.2218,3.2218,3.2218,3.2218,3.2218,3.2218,3.2218,3.2218,3.2218,3.2218,3.2218,3.2218,3.2218,3.2218,3.2218,3.2218,3.2218,3.2218,3.2218,3.2218,3.2218,3.2169,3.2019,3.1436,3.0962,3.0357,2.9245,2.8681,2.8203,2.762,2.749,2.749,2.749,2.7403,2.7302,2.7268,2.6964,2.6658,2.6521,2.6499,2.6499,2.6499,2.6499,2.6499,2.6499,2.6474,2.6461,2.6461,2.6127,2.5524,2.4748,2.4858,2.4687,2.4109,2.4083,2.4157,2.4321,2.4492,2.4677,2.4806,2.4948,2.5005,2.5005,2.5118,2.5053,3.5444,3.5009,3.4466,3.3946,3.3036,3.2062,3.1141,3.0322,2.947,2.8569,2.8104,2.7722,2.7347,2.6962,2.6644,2.6539,2.6674,2.6809,0.0,2.729,2.7756,2.8083,2.8897,2.9517,2.9859,3.0342,3.0674,3.0906,3.0738,3.0812,3.1361,3.1583,3.1869,3.2271,3.2783,3.2758,3.2206,3.2084,3.1843,3.1485,3.1619,3.1743,3.1817,3.2,3.2146,3.2218,3.2218,3.2218,3.2218,3.2218,3.2218,3.2218,3.2218,3.2218,3.2218,3.2218,3.2218,3.2218,3.2218,3.2218,3.2218,3.2218,3.2218,3.2218,3.2218,3.2218,3.2218,3.2218,3.2109,3.1946,3.1757,3.1213,3.0547,3.0055,2.924,2.8518,2.8171,2.7798,2.749,2.749,2.7469,2.7403,2.7302,2.7201,2.6998,2.6692,2.6555,2.6499,2.6499,2.6499,2.6499,2.6499,2.6499,2.6499,2.6499,2.6139,2.5901,2.582,2.5195,2.478,2.4687,2.4321,2.4157,2.4292,2.4492,2.4677,2.4806,2.492,2.5005,2.5005,2.5061,2.5065,3.6944,3.6639,3.6284,3.5694,3.4733,3.3694,3.2785,3.17,3.0622,2.9735,2.9268,2.8862,2.8448,2.7994,2.7543,2.7201,2.7065,2.6962,0.0,2.729,2.7777,2.8231,2.8919,2.939,2.9546,2.9831,3.005,3.005,2.9948,2.9998,3.0376,3.0724,3.1212,3.1765,3.2446,3.2629,3.2321,3.2359,3.2193,3.172,3.178,3.1817,3.189,3.2036,3.2146,3.2218,3.2218,3.2218,3.2218,3.2218,3.2218,3.2218,3.2218,3.2218,3.2218,3.2218,3.2218,3.2218,3.2218,3.2218,3.2218,3.2218,3.2218,3.2218,3.2218,3.2218,3.2218,3.2218,3.2109,3.2,3.2,3.1558,3.1029,3.0707,3.0011,2.9257,2.8649,2.82,2.7852,2.7575,2.749,2.7469,2.7403,2.7335,2.7167,2.6748,2.6624,2.6555,2.6499,2.6499,2.6499,2.6499,2.6499,2.6521,2.6555,2.6464,2.6404,2.6407,2.5779,2.5287,2.5018,2.4622,2.4367,2.4232,2.4463,2.4649,2.4734,2.492,2.5005,2.5005,2.5005,2.5061]}]]